[[{"header":{"parameterUnit":"m.s-1","parameterCategory":1,"la1":31.0,"la2":29.5877,"lo1":-88.7671,"lo2":-86.6584,"dy":0.0162,"dx":0.0185,"nx":115,"ny":88,"refTime":"2023-04-07T12:00:00:Z","depth":0,"parameterNumber":2,"parameterNumberName":"U-component_of_WINDS"},"data":[0.0,0.0,0.0,0.0,0.0,0.0,0.0,0.0,0.0,0.0,0.0,0.0,0.0,0.0,0.0,0.0,0.0,0.0,0.0,0.0,0.0,0.0,0.0,0.0,0.0,0.0,0.0,0.0,0.0,0.0,0.0,0.0,0.0,0.0,0.0,0.0,0.0,0.0,0.0,0.0,0.0,0.0,0.0,0.0,0.0,0.0,0.0,0.0,0.0,0.0,0.0,0.0,0.0,0.0,0.0,0.0,0.0,0.0,0.0,0.0,0.0,0.0,0.0,0.0,0.0,0.0,0.0,0.0,0.0,0.0,0.0,0.0,0.0,0.0,0.0,0.0,0.0,0.0,0.0,0.0,0.0,0.0,0.0,0.0,0.0,0.0,0.0,0.0,0.0,0.0,0.0,0.0,0.0,0.0,0.0,0.0,0.0,0.0,0.0,0.0,0.0,0.0,0.0,0.0,0.0,0.0,0.0,0.0,0.0,0.0,0.0,0.0,0.0,0.0,0.0,0.0,0.0,0.0,0.0,0.0,0.0,0.0,0.0,0.0,0.0,0.0,0.0,0.0,0.0,0.0,0.0,0.0,0.0,0.0,0.0,0.0,0.0,0.0,0.0,0.0,0.0,0.0,0.0,0.0,0.0,0.0,0.0,0.0,0.0,0.0,0.0,0.0,0.0,0.0,0.0,0.0,0.0,0.0,0.0,0.0,0.0,0.0,0.0,0.0,0.0,0.0,0.0,0.0,0.0,0.0,0.0,0.0,0.0,0.0,0.0,0.0,0.0,0.0,0.0,0.0,0.0,0.0,0.0,0.0,0.0,0.0,0.0,0.0,0.0,0.0,0.0,0.0,0.0,0.0,0.0,0.0,0.0,0.0,0.0,0.0,0.0,0.0,0.0,0.0,0.0,0.0,0.0,0.0,0.0,0.0,0.0,0.0,0.0,0.0,0.0,0.0,0.0,0.0,0.0,0.0,0.0,0.0,0.0,0.0,0.0,0.0,0.0,0.0,0.0,0.0,0.0,0.0,0.0,0.0,0.0,0.0,0.0,0.0,0.0,0.0,0.0,0.0,0.0,0.0,0.0,0.0,0.0,0.0,0.0,0.0,0.0,0.0,0.0,0.0,0.0,0.0,0.0,0.0,0.0,0.0,0.0,0.0,0.0,0.0,0.0,0.0,0.0,0.0,0.0,0.0,0.0,0.0,0.0,0.0,0.0,0.0,0.0,0.0,0.0,0.0,0.0,0.0,0.0,0.0,0.0,0.0,0.0,0.0,0.0,0.0,0.0,0.0,0.0,0.0,0.0,0.0,0.0,0.0,0.0,0.0,0.0,0.0,0.0,0.0,0.0,0.0,0.0,0.0,0.0,0.0,0.0,0.0,0.0,0.0,0.0,0.0,0.0,0.0,0.0,0.0,0.0,0.0,0.0,0.0,0.0,0.0,0.0,0.0,0.0,0.0,0.0,0.0,0.0,0.0,0.0,0.0,0.0,0.0,0.0,0.0,0.0,0.0,0.0,0.0,0.0,0.0,0.0,0.0,0.0,0.0,0.0,0.0,0.0,0.0,0.0,0.0,0.0,0.0,0.0,0.0,0.0,0.0,0.0,0.0,0.0,0.0,0.0,0.0,0.0,0.0,0.0,0.0,0.0,0.0,0.0,0.0,0.0,0.0,0.0,0.0,0.0,0.0,0.0,0.0,0.0,0.0,0.0,0.0,0.0,0.0,0.0,0.0,0.0,0.0,0.0,0.0,0.0,0.0,0.0,0.0,0.0,0.0,0.0,0.0,0.0,0.0,0.0,0.0,0.0,0.0,0.0,0.0,0.0,0.0,0.0,0.0,0.0,0.0,0.0,0.0,0.0,0.0,0.0,0.0,0.0,0.0,0.0,0.0,0.0,0.0,0.0,0.0,0.0,0.0,0.0,0.0,0.0,0.0,0.0,0.0,0.0,0.0,0.0,0.0,0.0,0.0,0.0,0.0,0.0,0.0,0.0,0.0,0.0,0.0,0.0,0.0,0.0,0.0,0.0,0.0,0.0,0.0,0.0,0.0,0.0,0.0,0.0,0.0,0.0,0.0,0.0,0.0,0.0,0.0,0.0,0.0,0.0,0.0,0.0,0.0,0.0,0.0,0.0,0.0,0.0,0.0,0.0,0.0,0.0,0.0,0.0,0.0,0.0,0.0,0.0,0.0,0.0,0.0,0.0,0.0,0.0,0.0,0.0,0.0,0.0,0.0,0.0,0.0,0.0,0.0,0.0,0.0,0.0,0.0,0.0,0.0,0.0,0.0,0.0,0.0,0.0,0.0,0.0,0.0,0.0,0.0,0.0,0.0,0.0,0.0,0.0,0.0,0.0,0.0,0.0,0.0,0.0,0.0,0.0,0.0,0.0,0.0,0.0,0.0,0.0,0.0,0.0,0.0,0.0,0.0,0.0,0.0,0.0,0.0,0.0,0.0,0.0,0.0,0.0,0.0,0.0,0.0,0.0,0.0,0.0,0.0,0.0,0.0,0.0,0.0,0.0,0.0,0.0,0.0,0.0,0.0,0.0,0.0,0.0,0.0,0.0,0.0,0.0,0.0,0.0,0.0,0.0,0.0,0.0,0.0,0.0,0.0,0.0,0.0,0.0,0.0,0.0,0.0,0.0,0.0,0.0,0.0,0.0,0.0,0.0,0.0,0.0,0.0,0.0,0.0,0.0,0.0,0.0,0.0,0.0,0.0,0.0,0.0,0.0,0.0,0.0,0.0,0.0,0.0,0.0,0.0,0.0,0.0,0.0,0.0,0.0,0.0,0.0,0.0,0.0,0.0,0.0,0.0,0.0,0.0,0.0,0.0,0.0,0.0,0.0,0.0,0.0,0.0,0.0,0.0,0.0,0.0,0.0,0.0,0.0,0.0,0.0,0.0,0.0,0.0,0.0,0.0,0.0,0.0,0.0,0.0,0.0,0.0,0.0,0.0,0.0,0.0,0.0,0.0,0.0,0.0,0.0,0.0,0.0,0.0,0.0,0.0,0.0,0.0,0.0,0.0,0.0,0.0,0.0,0.0,0.0,0.0,0.0,0.0,0.0,0.0,0.0,0.0,0.0,0.0,0.0,0.0,0.0,0.0,0.0,0.0,0.0,0.0,0.0,0.0,0.0,0.0,0.0,0.0,0.0,0.0,0.0,0.0,0.0,0.0,0.0,0.0,0.0,0.0,0.0,0.0,0.0,0.0,0.0,0.0,0.0,0.0,0.0,0.0,0.0,0.0,0.0,0.0,0.0,0.0,0.0,0.0,0.0,0.0,0.0,0.0,0.0,0.0,0.0,0.0,0.0,0.0,0.0,0.0,0.0,0.0,0.0,0.0,0.0,0.0,0.0,0.0,0.0,0.0,0.0,0.0,0.0,0.0,0.0,0.0,0.0,0.0,0.0,0.0,0.0,0.0,0.0,0.0,0.0,0.0,0.0,0.0,0.0,0.0,0.0,0.0,0.0,0.0,0.0,0.0,0.0,0.0,0.0,0.0,0.0,0.0,0.0,0.0,0.0,0.0,0.0,0.0,0.0,0.0,0.0,0.0,0.0,0.0,0.0,0.0,0.0,0.0,0.0,0.0,0.0,0.0,0.0,0.0,0.0,0.0,0.0,0.0,0.0,0.0,0.0,0.0,0.0,0.0,0.0,0.0,0.0,0.0,0.0,0.0,0.0,0.0,0.0,0.0,0.0,0.0,0.0,0.0,0.0,0.0,0.0,0.0,0.0,0.0,0.0,0.0,0.0,0.0,0.0,0.0,0.0,0.0,0.0,0.0,0.0,0.0,0.0,0.0,0.0,0.0,0.0,0.0,0.0,0.0,0.0,0.0,0.0,0.0,0.0,0.0,0.0,0.0,0.0,0.0,0.0,0.0,0.0,0.0,0.0,0.0,0.0,0.0,0.0,0.0,0.0,0.0,0.0,0.0,0.0,0.0,0.0,0.0,0.0,0.0,0.0,0.0,0.0,0.0,0.0,0.0,0.0,0.0,0.0,0.0,0.0,0.0,0.0,0.0,0.0,0.0,0.0,0.0,0.0,0.0,0.0,0.0,0.0,0.0,0.0,0.0,0.0,0.0,0.0,0.0,0.0,0.0,0.0,0.0,0.0,0.0,0.0,0.0,0.0,0.0,0.0,0.0,0.0,0.0,0.0,0.0,0.0,0.0,0.0,0.0,0.0,0.0,0.0,0.0,0.0,0.0,0.0,0.0,0.0,0.0,0.0,0.0,0.0,0.0,0.0,0.0,0.0,0.0,2.1595,0.0,0.0,0.0,0.0,0.0,0.0,0.0,0.0,0.0,0.0,0.0,0.0,0.0,0.0,0.0,0.0,0.0,0.0,0.0,0.0,0.0,0.0,0.0,0.0,0.0,0.0,0.0,0.0,0.0,0.0,0.0,0.0,0.0,0.0,0.0,0.0,0.0,0.0,0.0,0.0,0.0,0.0,0.0,0.0,0.0,0.0,0.0,0.0,0.0,0.0,0.0,0.0,0.0,0.0,0.0,0.0,0.0,0.0,0.0,0.0,0.0,0.0,0.0,0.0,0.0,0.0,0.0,0.0,0.0,0.0,0.0,0.0,0.0,0.0,0.0,0.0,0.0,0.0,0.0,0.0,0.0,0.0,0.0,0.0,0.0,0.0,0.0,0.0,0.0,0.0,0.0,0.0,0.0,0.0,0.0,0.0,0.0,0.0,0.0,0.0,0.0,0.0,0.0,0.0,0.0,0.0,0.0,0.0,0.0,0.0,2.1856,2.2071,2.2254,2.2346,2.2364,0.0,0.0,0.0,0.0,0.0,0.0,0.0,0.0,0.0,0.0,0.0,0.0,0.0,0.0,0.0,0.0,0.0,0.0,0.0,0.0,0.0,0.0,0.0,0.0,0.0,0.0,0.0,0.0,0.0,0.0,0.0,0.0,0.0,0.0,0.0,0.0,0.0,0.0,0.0,0.0,0.0,0.0,0.0,0.0,0.0,0.0,0.0,0.0,0.0,0.0,0.0,0.0,0.0,0.0,0.0,0.0,0.0,0.0,0.0,0.0,0.0,0.0,0.0,0.0,0.0,0.0,0.0,0.0,0.0,0.0,0.0,0.0,0.0,0.0,0.0,0.0,0.0,0.0,0.0,0.0,0.0,0.0,0.0,0.0,0.0,0.0,0.0,0.0,0.0,0.0,0.0,0.0,0.0,0.0,0.0,0.0,0.0,0.0,0.0,0.0,0.0,0.0,0.0,0.0,0.0,0.0,0.0,0.0,0.0,0.0,0.0,0.0,2.2889,2.2889,2.2871,0.0,0.0,0.0,0.0,0.0,0.0,0.0,0.0,0.0,0.0,0.0,0.0,0.0,0.0,0.0,0.0,0.0,0.0,0.0,0.0,0.0,0.0,0.0,0.0,0.0,0.0,0.0,0.0,0.0,0.0,0.0,0.0,0.0,0.0,0.0,0.0,0.0,0.0,0.0,0.0,0.0,0.0,0.0,0.0,0.0,0.0,0.0,0.0,0.0,0.0,0.0,0.0,0.0,0.0,0.0,0.0,0.0,0.0,0.0,0.0,0.0,0.0,0.0,0.0,0.0,0.0,0.0,0.0,0.0,0.0,0.0,0.0,0.0,0.0,0.0,0.0,0.0,0.0,0.0,0.0,0.0,0.0,0.0,0.0,0.0,0.0,0.0,0.0,0.0,0.0,0.0,0.0,0.0,0.0,0.0,0.0,0.0,0.0,0.0,0.0,0.0,0.0,0.0,0.0,0.0,0.0,0.0,0.0,0.0,0.0,2.2876,2.2889,2.2889,0.0,2.2889,0.0,0.0,0.0,0.0,0.0,0.0,0.0,0.0,0.0,0.0,0.0,0.0,0.0,0.0,0.0,0.0,0.0,0.0,0.0,0.0,0.0,0.0,0.0,0.0,0.0,0.0,0.0,0.0,0.0,0.0,0.0,0.0,0.0,0.0,0.0,0.0,0.0,0.0,0.0,0.0,0.0,0.0,0.0,0.0,0.0,0.0,0.0,0.0,0.0,0.0,0.0,0.0,0.0,0.0,0.0,0.0,0.0,0.0,0.0,0.0,0.0,0.0,0.0,0.0,0.0,0.0,0.0,0.0,0.0,0.0,0.0,0.0,0.0,0.0,0.0,0.0,0.0,0.0,0.0,0.0,0.0,0.0,0.0,0.0,0.0,0.0,0.0,0.0,0.0,0.0,0.0,0.0,0.0,0.0,0.0,0.0,0.0,0.0,0.0,0.0,0.0,0.0,0.0,0.0,0.0,0.0,0.0,0.0,0.0,0.0,2.2895,2.3195,2.3195,2.3268,0.0,0.0,0.0,0.0,0.0,0.0,0.0,0.0,0.0,0.0,0.0,0.0,0.0,0.0,0.0,0.0,0.0,0.0,0.0,0.0,0.0,0.0,0.0,0.0,0.0,0.0,0.0,0.0,0.0,0.0,0.0,0.0,0.0,0.0,0.0,0.0,0.0,0.0,0.0,0.0,0.0,0.0,0.0,0.0,0.0,0.0,0.0,0.0,0.0,0.0,0.0,0.0,0.0,0.0,0.0,0.0,0.0,0.0,0.0,0.0,0.0,0.0,0.0,0.0,0.0,0.0,0.0,0.0,0.0,0.0,0.0,0.0,0.0,0.0,0.0,0.0,0.0,0.0,0.0,0.0,0.0,0.0,0.0,0.0,0.0,0.0,0.0,0.0,0.0,0.0,0.0,0.0,0.0,0.0,0.0,0.0,0.0,0.0,0.0,0.0,0.0,0.0,0.0,0.0,0.0,0.0,0.0,0.0,0.0,0.0,2.2905,2.3054,2.3388,2.3487,2.3641,2.3842,0.0,0.0,0.0,0.0,0.0,0.0,0.0,0.0,0.0,0.0,0.0,0.0,0.0,0.0,0.0,0.0,0.0,0.0,0.0,0.0,0.0,0.0,0.0,0.0,0.0,0.0,0.0,0.0,0.0,0.0,0.0,0.0,0.0,0.0,0.0,0.0,0.0,0.0,0.0,0.0,0.0,0.0,0.0,0.0,0.0,0.0,0.0,0.0,0.0,0.0,0.0,0.0,0.0,0.0,0.0,0.0,0.0,0.0,0.0,0.0,0.0,0.0,0.0,0.0,0.0,0.0,0.0,0.0,0.0,0.0,0.0,0.0,0.0,0.0,0.0,0.0,0.0,0.0,0.0,0.0,0.0,0.0,0.0,0.0,0.0,0.0,0.0,0.0,0.0,0.0,0.0,0.0,0.0,0.0,0.0,0.0,0.0,0.0,0.0,0.0,0.0,0.0,0.0,0.0,0.0,0.0,0.0,0.0,2.3327,2.3345,2.3388,2.3423,2.371,2.3898,0.0,0.0,0.0,0.0,0.0,0.0,0.0,0.0,0.0,0.0,0.0,0.0,0.0,0.0,0.0,0.0,0.0,0.0,0.0,0.0,0.0,0.0,0.0,0.0,0.0,0.0,0.0,0.0,0.0,0.0,0.0,0.0,0.0,0.0,0.0,0.0,0.0,0.0,0.0,0.0,0.0,0.0,0.0,0.0,0.0,0.0,0.0,0.0,0.0,0.0,0.0,0.0,0.0,0.0,0.0,0.0,0.0,0.0,0.0,0.0,0.0,0.0,0.0,0.0,0.0,0.0,0.0,0.0,0.0,0.0,0.0,0.0,0.0,0.0,0.0,0.0,0.0,0.0,0.0,0.0,0.0,0.0,0.0,0.0,0.0,0.0,0.0,0.0,0.0,0.0,0.0,0.0,0.0,0.0,0.0,0.0,0.0,0.0,0.0,0.0,0.0,0.0,0.0,0.0,0.0,0.0,0.0,0.0,0.0,2.2904,2.3097,2.3372,2.3789,2.3946,2.4131,0.0,0.0,0.0,0.0,0.0,0.0,0.0,0.0,0.0,0.0,0.0,0.0,0.0,0.0,0.0,0.0,0.0,0.0,0.0,0.0,0.0,0.0,0.0,0.0,0.0,0.0,0.0,0.0,0.0,0.0,0.0,0.0,0.0,0.0,0.0,0.0,0.0,0.0,0.0,0.0,0.0,0.0,0.0,0.0,0.0,0.0,0.0,0.0,0.0,0.0,0.0,0.0,0.0,0.0,0.0,0.0,0.0,0.0,0.0,0.0,0.0,0.0,0.0,0.0,0.0,0.0,0.0,0.0,0.0,0.0,0.0,0.0,0.0,0.0,0.0,0.0,0.0,0.0,0.0,0.0,0.0,0.0,0.0,0.0,0.0,0.0,0.0,0.0,0.0,0.0,0.0,0.0,0.0,0.0,0.0,0.0,0.0,0.0,0.0,0.0,0.0,0.0,0.0,0.0,0.0,0.0,0.0,0.0,0.0,2.2791,0.0,2.354,2.4007,2.4114,2.4279,0.0,0.0,0.0,0.0,0.0,0.0,0.0,0.0,0.0,0.0,0.0,0.0,0.0,0.0,0.0,0.0,0.0,0.0,0.0,0.0,0.0,0.0,0.0,0.0,0.0,0.0,0.0,0.0,0.0,0.0,0.0,0.0,0.0,0.0,0.0,0.0,0.0,0.0,0.0,0.0,0.0,0.0,0.0,0.0,0.0,0.0,0.0,0.0,0.0,0.0,0.0,0.0,0.0,0.0,0.0,0.0,0.0,0.0,0.0,0.0,0.0,0.0,0.0,0.0,0.0,0.0,0.0,0.0,0.0,0.0,0.0,0.0,0.0,0.0,0.0,0.0,0.0,0.0,0.0,0.0,0.0,0.0,0.0,0.0,0.0,0.0,0.0,0.0,0.0,0.0,0.0,0.0,0.0,0.0,0.0,0.0,0.0,0.0,0.0,0.0,0.0,0.0,0.0,0.0,0.0,0.0,0.0,0.0,2.2783,2.3091,2.3503,2.3841,2.4105,2.4203,2.4383,0.0,0.0,0.0,0.0,0.0,0.0,0.0,0.0,0.0,0.0,0.0,0.0,0.0,0.0,0.0,0.0,0.0,0.0,0.0,0.0,0.0,0.0,0.0,0.0,0.0,0.0,0.0,0.0,0.0,0.0,0.0,0.0,0.0,0.0,0.0,0.0,0.0,0.0,0.0,0.0,0.0,0.0,0.0,0.0,0.0,0.0,0.0,0.0,0.0,0.0,0.0,0.0,0.0,0.0,0.0,0.0,0.0,0.0,0.0,0.0,0.0,0.0,0.0,0.0,0.0,0.0,0.0,0.0,0.0,0.0,0.0,0.0,0.0,0.0,0.0,0.0,0.0,0.0,0.0,0.0,0.0,0.0,0.0,0.0,0.0,0.0,0.0,0.0,0.0,0.0,0.0,0.0,0.0,0.0,0.0,0.0,0.0,0.0,0.0,0.0,0.0,0.0,0.0,0.0,0.0,0.0,0.0,0.0,0.0,2.3861,2.3981,2.4314,2.4827,2.4867,2.4937,0.0,0.0,0.0,0.0,0.0,0.0,0.0,0.0,0.0,0.0,0.0,0.0,0.0,0.0,0.0,0.0,0.0,0.0,0.0,0.0,0.0,0.0,0.0,0.0,0.0,0.0,0.0,0.0,0.0,0.0,0.0,0.0,0.0,0.0,0.0,0.0,0.0,0.0,0.0,0.0,0.0,0.0,0.0,0.0,0.0,0.0,0.0,0.0,0.0,0.0,0.0,0.0,0.0,0.0,0.0,0.0,0.0,0.0,0.0,0.0,0.0,0.0,0.0,0.0,0.0,0.0,0.0,0.0,0.0,0.0,0.0,0.0,0.0,0.0,0.0,0.0,0.0,0.0,0.0,0.0,0.0,0.0,0.0,0.0,0.0,0.0,0.0,0.0,0.0,0.0,0.0,0.0,0.0,0.0,0.0,0.0,0.0,0.0,0.0,0.0,0.0,0.0,0.0,0.0,0.0,0.0,0.0,0.0,0.0,2.4663,2.4875,2.5258,2.5781,2.567,2.5471,2.5193,0.0,0.0,0.0,0.0,0.0,0.0,0.0,0.0,0.0,0.0,0.0,0.0,0.0,0.0,0.0,0.0,0.0,0.0,0.0,0.0,0.0,0.0,0.0,0.0,0.0,0.0,0.0,0.0,0.0,0.0,0.0,0.0,0.0,0.0,0.0,0.0,0.0,0.0,0.0,0.0,0.0,0.0,0.0,0.0,0.0,0.0,0.0,0.0,0.0,0.0,0.0,0.0,0.0,0.0,0.0,0.0,0.0,0.0,0.0,0.0,0.0,0.0,0.0,0.0,0.0,0.0,0.0,0.0,0.0,0.0,0.0,0.0,0.0,0.0,0.0,0.0,0.0,0.0,0.0,0.0,0.0,0.0,0.0,0.0,0.0,0.0,0.0,0.0,0.0,0.0,0.0,0.0,0.0,0.0,0.0,0.0,0.0,0.0,0.0,0.0,0.0,0.0,0.0,0.0,0.0,0.0,0.0,0.0,2.5389,2.5937,2.6353,2.6701,2.645,2.5929,0.0,0.0,0.0,0.0,0.0,0.0,0.0,0.0,0.0,0.0,0.0,0.0,0.0,0.0,0.0,0.0,0.0,0.0,0.0,0.0,0.0,0.0,0.0,0.0,0.0,0.0,0.0,0.0,0.0,0.0,0.0,0.0,0.0,0.0,0.0,0.0,0.0,0.0,0.0,0.0,0.0,0.0,0.0,0.0,0.0,0.0,0.0,0.0,0.0,0.0,0.0,0.0,0.0,0.0,0.0,0.0,0.0,0.0,0.0,0.0,0.0,0.0,0.0,0.0,0.0,0.0,0.0,0.0,0.0,0.0,0.0,0.0,0.0,0.0,0.0,0.0,0.0,0.0,0.0,0.0,0.0,0.0,0.0,0.0,0.0,0.0,0.0,0.0,0.0,0.0,0.0,0.0,0.0,0.0,0.0,0.0,0.0,0.0,0.0,0.0,0.0,0.0,0.0,0.0,0.0,0.0,0.0,0.0,0.0,2.4104,2.487,2.5579,2.6182,2.6263,2.5631,0.0,0.0,0.0,0.0,0.0,0.0,0.0,0.0,0.0,0.0,0.0,0.0,0.0,0.0,0.0,0.0,0.0,0.0,0.0,0.0,0.0,0.0,0.0,0.0,0.0,0.0,0.0,0.0,0.0,0.0,0.0,0.0,0.0,0.0,0.0,0.0,0.0,0.0,0.0,0.0,0.0,0.0,0.0,0.0,0.0,0.0,0.0,0.0,0.0,0.0,0.0,0.0,0.0,0.0,0.0,0.0,0.0,0.0,0.0,0.0,0.0,0.0,0.0,0.0,0.0,0.0,0.0,0.0,0.0,0.0,0.0,0.0,0.0,0.0,0.0,0.0,0.0,0.0,0.0,0.0,0.0,0.0,0.0,0.0,0.0,0.0,0.0,0.0,0.0,0.0,0.0,0.0,0.0,0.0,0.0,0.0,0.0,0.0,0.0,0.0,0.0,0.0,0.0,0.0,0.0,0.0,0.0,0.0,2.4014,2.3602,2.4317,2.4891,2.5322,2.5592,2.529,0.0,0.0,0.0,0.0,0.0,0.0,0.0,0.0,0.0,0.0,0.0,0.0,0.0,0.0,0.0,0.0,0.0,0.0,0.0,0.0,0.0,0.0,0.0,0.0,0.0,0.0,0.0,0.0,0.0,0.0,0.0,0.0,0.0,0.0,0.0,0.0,0.0,0.0,0.0,0.0,0.0,0.0,0.0,0.0,0.0,0.0,0.0,0.0,0.0,0.0,0.0,0.0,0.0,0.0,0.0,0.0,0.0,0.0,0.0,0.0,0.0,0.0,0.0,0.0,0.0,0.0,0.0,0.0,0.0,0.0,0.0,0.0,0.0,0.0,0.0,0.0,0.0,0.0,0.0,0.0,0.0,0.0,0.0,0.0,0.0,0.0,0.0,0.0,0.0,0.0,0.0,0.0,0.0,0.0,0.0,0.0,0.0,0.0,0.0,0.0,0.0,0.0,0.0,0.0,0.0,0.0,0.0,0.0,2.3712,2.3356,2.3895,2.4201,2.4219,2.464,2.4866,0.0,0.0,0.0,0.0,0.0,0.0,0.0,0.0,0.0,0.0,0.0,0.0,0.0,0.0,0.0,0.0,0.0,0.0,0.0,0.0,0.0,0.0,0.0,0.0,0.0,0.0,0.0,0.0,0.0,0.0,0.0,0.0,0.0,0.0,0.0,0.0,0.0,0.0,0.0,0.0,0.0,0.0,0.0,0.0,0.0,0.0,0.0,0.0,0.0,0.0,0.0,0.0,0.0,0.0,0.0,0.0,0.0,0.0,0.0,0.0,0.0,0.0,0.0,0.0,0.0,0.0,0.0,0.0,0.0,0.0,0.0,0.0,0.0,0.0,0.0,0.0,0.0,0.0,0.0,0.0,0.0,0.0,0.0,0.0,0.0,0.0,0.0,0.0,0.0,0.0,0.0,0.0,0.0,0.0,0.0,0.0,0.0,0.0,0.0,0.0,0.0,0.0,0.0,0.0,0.0,0.0,0.0,0.0,2.2691,2.1691,2.2421,2.2812,2.2846,2.4164,2.4686,0.0,0.0,0.0,0.0,0.0,0.0,0.0,0.0,0.0,0.0,0.0,0.0,0.0,0.0,0.0,0.0,0.0,0.0,0.0,0.0,0.0,0.0,0.0,0.0,0.0,0.0,0.0,0.0,0.0,0.0,0.0,0.0,0.0,0.0,0.0,0.0,0.0,0.0,0.0,0.0,0.0,0.0,0.0,0.0,0.0,0.0,0.0,0.0,2.6539,0.0,0.0,0.0,0.0,0.0,0.0,0.0,0.0,0.0,0.0,0.0,0.0,0.0,0.0,0.0,0.0,0.0,0.0,0.0,0.0,0.0,0.0,0.0,0.0,0.0,0.0,0.0,0.0,0.0,0.0,0.0,0.0,0.0,0.0,0.0,0.0,0.0,0.0,0.0,0.0,0.0,0.0,0.0,0.0,0.0,0.0,0.0,0.0,0.0,0.0,0.0,0.0,0.0,0.0,0.0,0.0,0.0,0.0,0.0,2.2744,2.177,2.2311,2.2619,2.2673,2.335,2.4052,0.0,0.0,0.0,0.0,0.0,0.0,0.0,0.0,0.0,0.0,0.0,0.0,0.0,0.0,0.0,0.0,0.0,0.0,0.0,0.0,0.0,0.0,0.0,0.0,0.0,0.0,0.0,0.0,0.0,0.0,0.0,0.0,0.0,0.0,0.0,0.0,0.0,0.0,0.0,0.0,0.0,0.0,0.0,0.0,0.0,0.0,0.0,0.0,0.0,0.0,0.0,0.0,0.0,0.0,0.0,0.0,0.0,0.0,0.0,0.0,0.0,0.0,0.0,0.0,0.0,0.0,0.0,0.0,0.0,0.0,0.0,0.0,0.0,0.0,0.0,0.0,0.0,0.0,0.0,0.0,0.0,0.0,0.0,0.0,0.0,0.0,0.0,0.0,0.0,0.0,0.0,0.0,0.0,0.0,0.0,0.0,0.0,0.0,0.0,0.0,0.0,0.0,0.0,0.0,0.0,0.0,0.0,2.4047,2.3219,2.2505,2.2739,2.2893,2.2893,2.2579,2.3337,2.5213,0.0,0.0,0.0,0.0,0.0,0.0,0.0,0.0,0.0,0.0,0.0,0.0,0.0,0.0,0.0,0.0,0.0,0.0,0.0,0.0,0.0,0.0,0.0,0.0,0.0,0.0,0.0,0.0,0.0,0.0,0.0,0.0,0.0,0.0,0.0,0.0,0.0,0.0,2.7789,2.654,0.0,0.0,0.0,0.0,0.0,0.0,0.0,0.0,2.7285,0.0,0.0,0.0,0.0,0.0,0.0,0.0,0.0,0.0,0.0,0.0,0.0,0.0,0.0,0.0,0.0,0.0,0.0,0.0,0.0,0.0,0.0,0.0,0.0,0.0,0.0,0.0,0.0,0.0,0.0,0.0,0.0,0.0,0.0,0.0,0.0,0.0,0.0,0.0,0.0,0.0,0.0,0.0,0.0,0.0,0.0,0.0,0.0,0.0,0.0,0.0,0.0,0.0,0.0,0.0,0.0,2.4202,2.4003,2.356,2.2847,2.2867,2.2893,2.2893,2.2579,2.3098,2.4468,0.0,0.0,0.0,0.0,0.0,0.0,0.0,0.0,0.0,0.0,0.0,0.0,0.0,0.0,0.0,0.0,0.0,0.0,0.0,0.0,0.0,0.0,0.0,0.0,0.0,0.0,0.0,0.0,0.0,0.0,0.0,0.0,0.0,0.0,0.0,0.0,0.0,0.0,0.0,2.7196,2.6749,0.0,0.0,0.0,0.0,0.0,0.0,0.0,0.0,2.66,0.0,0.0,0.0,0.0,0.0,0.0,0.0,0.0,0.0,0.0,0.0,0.0,0.0,0.0,0.0,0.0,0.0,0.0,0.0,0.0,0.0,0.0,0.0,0.0,0.0,0.0,0.0,0.0,0.0,0.0,0.0,0.0,0.0,0.0,0.0,0.0,0.0,0.0,0.0,0.0,0.0,0.0,0.0,0.0,0.0,0.0,0.0,0.0,0.0,0.0,0.0,0.0,0.0,0.0,0.0,2.496,2.3842,2.3105,2.288,2.2893,2.2893,2.2893,2.2565,2.2802,0.0,0.0,0.0,0.0,0.0,0.0,0.0,0.0,0.0,0.0,0.0,0.0,0.0,0.0,0.0,0.0,0.0,0.0,0.0,0.0,0.0,0.0,0.0,0.0,0.0,0.0,0.0,0.0,0.0,0.0,0.0,0.0,0.0,0.0,0.0,0.0,0.0,0.0,0.0,0.0,2.5889,2.5562,2.6339,0.0,0.0,0.0,0.0,0.0,0.0,2.7062,2.7194,0.0,0.0,0.0,0.0,0.0,0.0,0.0,0.0,0.0,0.0,0.0,0.0,0.0,0.0,0.0,0.0,0.0,0.0,0.0,0.0,0.0,0.0,0.0,0.0,0.0,0.0,0.0,0.0,0.0,0.0,0.0,0.0,0.0,0.0,0.0,0.0,0.0,0.0,0.0,0.0,0.0,0.0,0.0,0.0,0.0,0.0,0.0,0.0,0.0,0.0,0.0,0.0,0.0,0.0,0.0,2.5633,2.3834,2.2856,2.288,2.2893,2.2893,2.2893,2.2512,2.2498,0.0,0.0,0.0,0.0,0.0,0.0,0.0,0.0,0.0,0.0,0.0,0.0,0.0,0.0,0.0,0.0,0.0,0.0,0.0,0.0,0.0,0.0,0.0,0.0,0.0,0.0,0.0,0.0,0.0,0.0,0.0,0.0,0.0,0.0,0.0,0.0,0.0,0.0,0.0,0.0,0.0,2.4592,2.4547,2.4965,0.0,0.0,0.0,0.0,2.7146,2.7363,0.0,0.0,0.0,0.0,0.0,0.0,0.0,0.0,0.0,0.0,0.0,0.0,0.0,0.0,0.0,0.0,0.0,0.0,0.0,0.0,0.0,0.0,0.0,0.0,0.0,0.0,0.0,0.0,0.0,0.0,0.0,0.0,0.0,0.0,0.0,0.0,0.0,0.0,0.0,0.0,0.0,0.0,0.0,0.0,0.0,0.0,0.0,0.0,0.0,0.0,0.0,0.0,0.0,0.0,0.0,0.0,2.4665,2.4433,2.3822,2.2928,2.2893,2.2893,2.2893,2.2325,2.2331,0.0,0.0,0.0,0.0,0.0,0.0,0.0,0.0,0.0,0.0,0.0,0.0,0.0,0.0,0.0,0.0,0.0,0.0,0.0,0.0,0.0,0.0,0.0,0.0,0.0,0.0,0.0,0.0,0.0,0.0,0.0,0.0,0.0,0.0,0.0,0.0,0.0,0.0,0.0,0.0,0.0,2.5681,2.772,2.6876,2.5993,0.0,0.0,0.0,2.5378,2.5482,0.0,0.0,0.0,0.0,0.0,0.0,0.0,0.0,0.0,0.0,0.0,0.0,0.0,0.0,0.0,0.0,0.0,0.0,0.0,0.0,0.0,0.0,0.0,0.0,0.0,0.0,0.0,0.0,0.0,0.0,0.0,0.0,0.0,0.0,0.0,0.0,0.0,0.0,0.0,0.0,0.0,0.0,0.0,0.0,0.0,0.0,0.0,0.0,0.0,0.0,0.0,0.0,0.0,0.0,0.0,2.419,2.5341,2.4224,2.3372,2.2941,2.3033,2.3126,2.3126,2.2712,2.2719,0.0,0.0,0.0,0.0,0.0,0.0,0.0,0.0,0.0,0.0,0.0,0.0,0.0,0.0,0.0,0.0,0.0,0.0,0.0,0.0,0.0,0.0,0.0,0.0,0.0,0.0,0.0,0.0,0.0,0.0,0.0,0.0,0.0,0.0,0.0,0.0,0.0,0.0,0.0,0.0,0.0,0.0,2.6221,2.6473,0.0,0.0,0.0,2.6752,2.5943,0.0,0.0,0.0,0.0,0.0,0.0,0.0,0.0,0.0,0.0,0.0,0.0,0.0,0.0,0.0,0.0,0.0,0.0,0.0,0.0,0.0,0.0,0.0,0.0,0.0,0.0,0.0,0.0,0.0,0.0,0.0,0.0,0.0,0.0,0.0,0.0,0.0,0.0,0.0,0.0,0.0,0.0,0.0,0.0,0.0,0.0,0.0,0.0,0.0,0.0,0.0,0.0,0.0,0.0,0.0,0.0,0.0,2.5442,2.3949,2.3121,2.3134,2.3313,2.3434,2.3434,2.314,0.0,0.0,0.0,0.0,0.0,0.0,0.0,0.0,0.0,0.0,0.0,0.0,0.0,0.0,0.0,0.0,0.0,0.0,0.0,0.0,0.0,0.0,0.0,0.0,0.0,0.0,0.0,2.5062,0.0,0.0,0.0,0.0,0.0,0.0,0.0,0.0,0.0,0.0,0.0,0.0,0.0,0.0,2.5869,2.4876,2.5854,2.621,0.0,0.0,2.6842,2.6125,2.5841,2.5954,0.0,0.0,0.0,0.0,0.0,0.0,0.0,0.0,0.0,0.0,0.0,0.0,0.0,0.0,0.0,0.0,0.0,0.0,0.0,0.0,0.0,0.0,0.0,0.0,0.0,0.0,0.0,0.0,0.0,0.0,0.0,0.0,0.0,0.0,0.0,0.0,0.0,0.0,0.0,0.0,0.0,0.0,0.0,0.0,0.0,0.0,0.0,0.0,0.0,0.0,0.0,0.0,0.0,0.0,0.0,2.3914,2.3821,2.3736,2.375,2.3763,2.3777,2.3763,2.346,2.3434,0.0,0.0,0.0,0.0,0.0,0.0,0.0,0.0,0.0,0.0,0.0,0.0,0.0,0.0,0.0,0.0,0.0,0.0,0.0,0.0,0.0,0.0,0.0,0.0,0.0,0.0,0.0,0.0,0.0,0.0,0.0,0.0,0.0,0.0,0.0,0.0,0.0,0.0,0.0,0.0,0.0,2.6524,2.5474,2.5447,2.5222,0.0,0.0,2.5624,2.4869,2.5187,2.5892,2.697,0.0,0.0,0.0,0.0,0.0,0.0,0.0,0.0,0.0,0.0,0.0,0.0,0.0,0.0,0.0,0.0,0.0,0.0,0.0,0.0,0.0,0.0,0.0,0.0,0.0,0.0,0.0,0.0,0.0,0.0,0.0,0.0,0.0,0.0,0.0,0.0,0.0,0.0,0.0,0.0,0.0,0.0,0.0,0.0,0.0,0.0,0.0,0.0,0.0,0.0,0.0,0.0,0.0,2.4001,2.477,2.411,2.3817,2.3817,2.3941,2.4035,2.4071,2.3928,2.3915,0.0,0.0,0.0,0.0,0.0,0.0,0.0,0.0,0.0,0.0,0.0,0.0,0.0,0.0,0.0,0.0,0.0,0.0,0.0,0.0,0.0,0.0,0.0,0.0,0.0,0.0,0.0,0.0,2.4173,2.4496,2.4592,0.0,0.0,0.0,0.0,0.0,0.0,0.0,0.0,0.0,0.0,2.6176,2.5912,2.6233,0.0,0.0,2.5843,2.6168,2.4811,2.513,2.5498,2.5585,2.6472,0.0,0.0,0.0,0.0,0.0,0.0,0.0,0.0,0.0,0.0,0.0,0.0,0.0,0.0,0.0,0.0,0.0,0.0,0.0,0.0,0.0,0.0,0.0,0.0,0.0,0.0,0.0,0.0,0.0,0.0,0.0,0.0,0.0,0.0,0.0,0.0,0.0,0.0,0.0,0.0,0.0,0.0,0.0,0.0,0.0,0.0,0.0,0.0,0.0,0.0,0.0,0.0,2.4458,2.5282,2.4634,2.4289,2.4289,2.4489,2.4596,2.4596,2.4596,2.4596,0.0,0.0,0.0,0.0,0.0,0.0,0.0,0.0,0.0,0.0,0.0,0.0,0.0,0.0,0.0,0.0,0.0,0.0,0.0,0.0,0.0,0.0,0.0,0.0,0.0,0.0,0.0,0.0,2.4023,2.4494,2.4223,0.0,0.0,0.0,0.0,0.0,0.0,0.0,0.0,0.0,0.0,2.6087,2.5786,2.621,2.625,2.5254,2.5999,2.6295,2.519,2.5384,2.5531,2.5211,0.0,0.0,0.0,0.0,0.0,0.0,0.0,0.0,0.0,0.0,0.0,0.0,0.0,0.0,0.0,0.0,0.0,0.0,0.0,0.0,0.0,0.0,0.0,0.0,0.0,0.0,0.0,0.0,0.0,0.0,2.5141,0.0,0.0,0.0,0.0,0.0,0.0,0.0,0.0,0.0,0.0,0.0,0.0,0.0,0.0,0.0,0.0,0.0,0.0,0.0,0.0,0.0,0.0,0.0,2.5125,2.5291,2.5451,2.5451,2.5478,2.5464,2.5464,2.5478,2.5478,2.5464,0.0,0.0,0.0,0.0,0.0,0.0,0.0,0.0,0.0,0.0,0.0,0.0,0.0,0.0,0.0,0.0,0.0,0.0,0.0,0.0,0.0,0.0,0.0,0.0,0.0,0.0,2.3803,2.4058,2.4459,0.0,0.0,0.0,0.0,0.0,0.0,0.0,0.0,0.0,0.0,2.6117,2.6533,2.4864,2.4941,2.5181,2.5117,2.5382,2.565,2.5917,2.5984,2.6078,0.0,0.0,0.0,0.0,0.0,0.0,0.0,0.0,0.0,0.0,0.0,0.0,0.0,0.0,0.0,0.0,0.0,0.0,0.0,0.0,0.0,0.0,0.0,0.0,0.0,0.0,0.0,2.7882,2.6599,0.0,0.0,0.0,0.0,0.0,0.0,0.0,0.0,0.0,0.0,0.0,2.4616,2.4374,0.0,0.0,0.0,0.0,0.0,0.0,0.0,0.0,0.0,0.0,0.0,0.0,2.4847,2.4977,2.5298,2.5518,2.5518,2.5518,2.5518,2.5518,2.5518,2.5518,2.5518,0.0,0.0,0.0,0.0,0.0,0.0,0.0,0.0,0.0,0.0,0.0,0.0,0.0,0.0,0.0,0.0,0.0,0.0,0.0,0.0,0.0,0.0,0.0,0.0,0.0,2.4502,0.0,0.0,0.0,0.0,0.0,0.0,0.0,0.0,0.0,0.0,0.0,2.5133,2.4605,2.4752,2.4819,2.4454,2.4791,2.5283,0.0,0.0,0.0,0.0,0.0,0.0,0.0,0.0,0.0,0.0,0.0,0.0,0.0,0.0,2.6375,2.6293,2.6724,2.7161,2.7259,0.0,0.0,0.0,0.0,0.0,0.0,0.0,0.0,0.0,0.0,0.0,0.0,0.0,0.0,0.0,0.0,2.578,0.0,0.0,0.0,0.0,0.0,0.0,0.0,0.0,2.4547,2.4819,2.4356,2.4462,2.4629,0.0,2.4895,2.4767,0.0,0.0,0.0,0.0,0.0,0.0,0.0,0.0,2.5035,2.5048,2.5633,2.5972,2.5972,2.6066,2.6119,2.6119,2.6119,2.6079,2.5972,2.5972,2.5785,0.0,0.0,0.0,0.0,0.0,0.0,0.0,0.0,0.0,0.0,0.0,0.0,0.0,0.0,0.0,0.0,0.0,0.0,0.0,0.0,0.0,0.0,0.0,2.5053,0.0,0.0,0.0,0.0,0.0,0.0,0.0,0.0,0.0,2.5315,2.4809,2.4515,2.4749,2.4701,2.4585,2.4456,0.0,0.0,0.0,0.0,0.0,0.0,0.0,2.6414,2.6241,2.6813,2.7309,2.7281,2.7281,2.7281,2.7281,0.0,0.0,2.636,2.6413,2.66,2.68,2.6841,2.7109,2.7968,2.7553,2.7243,0.0,0.0,0.0,0.0,0.0,0.0,0.0,0.0,2.7108,2.6212,0.0,2.5325,0.0,0.0,0.0,0.0,0.0,2.4831,0.0,0.0,2.5141,2.5224,2.4706,2.5024,2.4969,2.4602,2.4717,2.4717,2.4666,2.5247,0.0,0.0,0.0,0.0,0.0,0.0,2.5361,2.5388,2.6308,2.6827,2.6787,2.7094,2.7296,2.7282,2.7282,2.7108,2.68,2.6774,2.6573,2.6065,2.6038,0.0,0.0,0.0,0.0,0.0,0.0,0.0,0.0,0.0,0.0,0.0,0.0,0.0,0.0,0.0,0.0,0.0,0.0,0.0,0.0,2.5558,0.0,0.0,0.0,0.0,0.0,0.0,0.0,0.0,0.0,0.0,2.4984,2.5101,2.5296,2.5244,0.0,0.0,0.0,0.0,2.584,2.4941,2.5003,2.5282,2.5603,2.5826,2.6107,2.6561,0.0,0.0,2.8112,2.8205,2.8205,2.8219,2.8419,2.8257,2.708,2.6961,2.708,2.7629,2.7749,2.7843,2.8125,2.8236,2.8207,2.8025,0.0,0.0,0.0,0.0,2.8809,2.8138,2.7116,2.7169,2.633,2.4911,2.5157,0.0,0.0,0.0,0.0,0.0,0.0,2.4796,2.4863,2.5556,2.5891,2.5905,2.6439,2.66,2.652,2.6507,2.652,2.648,2.668,2.6188,2.5059,0.0,0.0,0.0,0.0,2.5924,2.6235,2.6851,2.7134,2.7134,2.7269,2.7309,2.7309,2.7309,2.7269,2.7188,2.7134,2.7054,2.6948,2.6934,0.0,0.0,0.0,0.0,0.0,0.0,0.0,0.0,0.0,0.0,0.0,0.0,0.0,0.0,0.0,0.0,0.0,0.0,0.0,2.6106,2.652,2.668,0.0,0.0,0.0,0.0,0.0,0.0,0.0,0.0,0.0,2.5741,2.5113,2.4725,0.0,0.0,2.4665,2.4384,2.5032,2.5713,2.616,0.0,0.0,0.0,2.7777,2.7782,2.7742,2.7985,2.835,2.8724,2.8791,2.8778,2.8778,2.8815,2.8748,2.8468,2.8361,2.8414,2.8575,2.8615,2.8628,2.8764,2.8778,2.8778,2.7645,2.8287,2.874,2.8645,2.8209,2.8215,2.757,2.6542,2.6655,2.6164,2.5277,2.5625,2.5545,2.517,2.536,0.0,0.0,0.0,2.5772,2.5998,2.6346,2.6613,2.6747,2.7094,2.7362,2.7469,2.7483,2.7536,2.7657,2.745,2.7013,2.6244,0.0,0.0,2.5627,2.5997,2.6419,2.6811,2.7383,2.771,2.7789,2.7909,2.7963,2.7976,2.7976,2.7856,2.767,2.7657,2.755,2.7322,2.7309,2.7229,0.0,0.0,0.0,0.0,0.0,0.0,0.0,0.0,0.0,0.0,0.0,2.6213,0.0,0.0,0.0,0.0,2.6106,2.6133,2.6533,2.6881,0.0,0.0,0.0,0.0,0.0,0.0,0.0,2.5756,2.6268,2.6633,2.6383,2.5931,2.5593,2.5542,2.5627,2.5579,2.5302,0.0,2.6499,2.6813,2.6951,2.7256,2.7968,2.8261,2.8406,2.8511,2.8751,2.8991,2.9179,2.9299,2.9335,2.9392,2.9348,2.9335,2.9348,2.9335,2.9295,2.9232,2.9175,2.9245,2.9352,2.9392,2.9348,2.7376,2.7459,2.8453,2.8201,2.7216,2.7193,2.6596,2.5665,2.5984,2.5944,2.5718,2.6493,2.656,2.6131,2.664,0.0,2.6907,2.7201,2.7362,2.7376,2.7403,2.7416,2.7416,2.7443,2.759,2.7802,2.7802,2.7949,2.8245,2.7849,2.7725,2.7904,2.7135,2.6525,2.6141,2.6483,2.682,2.7164,2.7859,2.835,2.8644,2.8855,2.9001,2.8988,2.9001,2.8778,2.8286,2.8259,2.8005,2.7483,2.7443,2.7443,2.7375,0.0,0.0,0.0,0.0,0.0,0.0,0.0,0.0,0.0,0.0,0.0,0.0,0.0,0.0,0.0,2.696,0.0,2.692,2.6987,0.0,0.0,0.0,2.7344,2.7179,2.7231,2.7181,2.7004,0.0,0.0,2.7042,0.0,2.7388,2.7307,2.7715,2.7723,2.7068,2.7504,2.7766,2.7187,2.7123,2.7226,2.7732,2.8043,2.8468,2.8985,2.9339,2.9499,2.9526,2.9713,2.9887,2.9873,2.9913,2.99,2.99,2.9873,2.9833,2.9566,2.9526,2.9593,2.9806,2.986,2.986,2.7978,2.798,2.8249,2.7946,2.7294,2.7282,2.7122,2.6894,2.6961,2.6961,2.6907,2.7068,2.7122,2.7015,2.7335,2.7495,2.7509,2.7831,2.7978,2.7991,2.8177,2.8283,2.8297,2.8511,2.8615,2.8668,2.8681,2.8708,2.8818,2.8702,2.8512,2.8217,2.8008,2.7543,2.6966,2.72,2.7496,2.7709,2.8112,2.8468,2.8881,2.8961,2.9001,2.9001,2.9001,2.8935,2.8831,2.8788,2.8721,2.8631,2.8575,2.8511,2.8297,2.7991,0.0,0.0,0.0,0.0,0.0,0.0,0.0,0.0,0.0,2.5923,2.5923,0.0,2.6385,0.0,2.6781,2.7559,2.8121,2.8334,0.0,0.0,2.8444,2.8337,2.7807,2.8205,2.8277,2.7593,2.7822,2.8039,2.8039,2.8255,2.8561,2.8867,2.8239,2.7726,2.7518,2.7974,2.8339,2.8369,2.8627,2.8965,2.9172,2.9384,2.9486,2.9655,2.9766,2.9806,2.9775,2.986,2.9913,2.9913,2.9913,2.9913,2.9927,2.9913,2.99,2.9833,2.982,2.9833,2.99,2.9913,2.9913,2.8537,2.8537,2.8551,2.835,2.803,2.7817,2.7697,2.7697,2.7697,2.7777,2.7911,2.8003,2.8056,2.807,2.823,2.8254,2.831,2.847,2.8537,2.8551,2.8711,2.8804,2.8761,2.8921,2.9068,2.9232,2.9232,2.9299,2.9388,2.9388,2.93,2.9022,2.9022,2.8678,2.8114,2.7761,2.7697,2.7946,2.8424,2.8934,2.9388,2.9388,2.93,2.9066,2.9066,2.8925,2.8574,2.8443,2.8378,2.8378,2.8247,2.8147,2.796,2.7658,2.7297,0.0,0.0,0.0,0.0,0.0,0.0,0.0,0.0,0.0,0.0,0.0,2.7006,0.0,2.7643,2.8175,2.8548,2.8751,2.8735,2.8631,2.8858,2.8888,2.8644,2.8964,2.911,2.8744,2.8889,2.9079,2.9079,2.9211,2.9446,2.9847,2.9325,2.8856,2.8739,2.8934,2.9185,2.9462,2.9739,2.9967,3.0261,3.0314,3.0314,3.0301,3.0314,3.0301,3.0301,3.0301,3.0314,3.0314,3.0301,3.0301,3.0314,3.0314,3.0314,3.0314,3.0301,3.0261,3.014,3.0221,3.0301,2.9108,2.9108,2.9108,2.9108,2.9068,2.8634,2.8366,2.8299,2.8299,2.8446,2.8671,2.8881,2.9001,2.9001,2.9041,2.9055,2.9055,2.9081,2.9108,2.9108,2.9148,2.9161,2.9205,2.9202,2.9406,2.9646,2.9659,2.978,3.002,3.002,2.9989,2.9944,2.9944,2.9705,2.9183,2.8271,2.7909,2.8112,2.8886,2.948,2.9885,2.9853,2.9602,2.9189,2.9144,2.8835,2.8074,2.7864,2.7737,2.7693,2.7495,2.7411,2.7455,2.7021,2.6704,0.0,2.6056,0.0,0.0,0.0,0.0,0.0,0.0,0.0,0.0,2.7818,2.819,2.8937,2.8798,2.8638,2.8764,2.8778,2.8778,2.8778,2.9005,2.9228,2.9553,2.9637,2.9713,2.9993,3.0034,3.0034,2.9989,3.0034,3.0127,3.0386,3.0381,3.0183,3.0087,2.9989,3.0069,3.0426,3.0453,3.052,3.0688,3.0755,3.0768,3.0768,3.0755,3.0795,3.0755,3.0808,3.0835,3.0835,3.0875,3.0902,3.0902,3.0902,3.0902,3.0902,3.0942,3.0862,3.0528,3.0627,3.0782,2.9753,2.9708,2.9708,2.9753,2.974,2.9619,2.9312,2.8828,2.8871,2.8898,2.8921,2.8975,2.9001,2.9015,2.9285,2.9406,2.9419,2.9646,2.9708,2.9753,3.0007,3.0159,3.0127,3.0354,3.0488,3.0541,3.0541,3.0568,3.0621,3.0621,3.0438,3.0057,3.007,2.9794,2.9274,0.0,0.0,0.0,2.9468,2.9899,2.9945,2.961,2.9264,2.8955,2.8942,0.0,2.8411,2.8392,2.8322,2.8322,2.8271,0.0,0.0,0.0,0.0,0.0,0.0,0.0,0.0,0.0,0.0,0.0,2.7985,2.7799,2.7426,2.7431,2.7913,2.9023,2.8898,2.9009,2.9602,2.9673,2.9659,2.9673,2.9713,2.986,3.0199,3.0239,3.0346,3.0595,3.0621,3.0621,3.0608,3.0621,3.0648,3.0728,3.0715,3.0688,3.0662,3.0635,3.0648,3.0702,3.0768,3.0755,3.0782,3.0835,3.0902,3.0795,3.0795,3.0822,3.0875,3.1036,3.1156,3.1183,3.1343,3.155,3.155,3.1503,3.1503,3.155,3.1677,3.1623,3.0889,3.0768,3.0795,3.0341,0.0,3.0341,3.0341,0.0,3.0341,3.0181,2.9887,2.9593,2.9472,2.9442,2.9633,2.97,2.9713,3.0007,3.0127,3.014,3.0287,3.0354,3.0354,3.0501,3.0568,3.0581,3.0728,3.0795,3.0795,3.0795,3.0795,3.0795,3.0942,3.0856,3.0624,3.0816,3.082,3.0681,3.0812,3.0444,2.9512,2.9839,3.0194,3.0379,3.0135,2.9885,2.9512,0.0,0.0,0.0,0.0,0.0,0.0,0.0,0.0,0.0,0.0,0.0,2.8893,2.8828,2.8814,2.9086,2.9086,2.9177,2.9404,2.9404,2.9059,2.8124,2.8538,2.9068,2.9713,2.9798,2.9954,3.0282,3.0354,3.0354,3.0354,3.0341,3.0421,3.0541,3.0614,3.0635,3.0755,3.0795,3.0835,3.0982,3.1009,3.1142,3.1383,3.1436,3.149,3.1583,3.1276,3.1089,3.1383,3.1583,3.1711,3.1664,3.1711,3.1698,3.1711,3.1711,3.1711,3.1711,3.177,3.1877,3.1891,3.2059,3.2152,3.2152,3.2152,3.2152,3.2152,3.2225,3.2246,3.1778,3.165,3.1711,3.0795,3.0795,3.0795,3.0795,3.0795,3.0795,3.0822,3.0835,0.0,0.0,0.0,3.0327,3.048,3.0507,3.0734,3.0795,3.0795,3.0795,3.0822,3.0862,3.0915,3.0982,3.1022,3.1076,3.1102,3.1102,3.1102,3.1102,3.1116,3.1343,3.145,3.149,3.1704,3.1992,3.2185,3.2474,3.192,3.0629,3.0436,3.0576,3.0963,3.0869,3.0656,3.0171,3.0171,2.9959,2.95,2.9284,2.9271,2.9428,2.9284,2.9236,2.9289,2.9448,2.9379,2.9028,2.9196,2.952,2.9873,2.9926,3.0254,3.0929,3.0942,3.0457,2.9275,2.9973,3.048,3.048,3.0648,3.0808,3.0862,3.0862,3.0889,3.0942,3.0955,3.0969,3.1022,3.1022,3.1076,3.1089,3.1156,3.1196,3.145,3.149,3.1623,3.2051,3.2131,3.2318,3.2554,3.1998,3.1664,3.2051,3.2313,3.2527,3.2567,3.2527,3.2594,3.2487,3.2581,3.2674,3.2688,3.2755,3.2822,3.2835,3.2862,3.2929,3.2915,3.2955,3.2902,3.2902,3.2915,3.2902,3.2902,3.2915,3.2822,3.0795,3.0795,3.0795,3.0795,3.0795,3.0795,3.0929,3.1129,3.0808,3.0675,3.0675,3.0715,3.0728,3.0728,3.0768,3.0795,3.0795,3.0795,3.0929,0.0,3.1423,3.1677,3.1931,3.2233,3.2353,3.2353,3.234,3.2353,3.2353,3.238,3.2407,3.2407,3.2447,3.25,3.2527,3.2567,3.2465,3.2256,3.1759,3.1578,3.1626,3.1189,3.0818,3.0539,3.0562,3.0399,3.0074,3.0083,3.0023,3.0061,3.0035,3.0097,3.0288,3.0314,3.0371,3.0471,3.0531,3.0603,3.065,3.0863,3.1142,3.1517,3.1591,3.1276,3.0583,3.0629,3.0728,3.0742,3.0822,3.0902,3.1116,3.1183,3.1303,3.155,3.1543,3.1637,3.1864,3.1877,3.1971,3.2246,3.2353,3.2326,3.2393,3.2407,3.2447,3.2527,3.2674,3.2755,3.3066,3.2759,3.2474,3.2514,3.2567,3.2594,3.2714,3.2607,3.2701,3.2594,3.2862,3.3036,3.3049,3.3347,3.3651,3.3681,3.3788,3.3948,3.3988,3.4068,3.3961,3.3935,3.3921,3.3961,3.3935,3.3948,3.3694,3.1791,3.1791,3.1791,3.1791,3.1791,3.1791,3.1824,3.1979,3.181,3.1557,3.1303,3.1436,3.1503,3.1517,3.1724,3.1791,3.1791,3.1791,3.1858,3.1944,3.2126,3.226,3.2393,3.2541,3.2594,3.2594,3.2594,3.2594,3.2607,3.2755,3.2853,3.3026,3.3334,3.3507,3.3507,3.3507,3.3507,3.3494,3.2669,3.2252,3.2252,3.2008,3.1796,3.1701,3.1701,3.1648,3.1517,3.1517,3.1517,3.1504,3.1517,3.1548,3.1622,3.1657,3.1652,3.1757,3.1791,3.1791,3.1744,3.1912,3.2045,3.2179,3.2193,3.2166,3.1998,3.169,3.1503,3.1503,3.1637,3.1797,3.1931,3.1944,3.1998,3.2179,3.2193,3.2246,3.2367,3.2345,3.25,3.2768,3.2835,3.2955,3.329,3.333,3.3347,3.3467,3.3507,3.3627,3.3855,3.3681,3.3507,3.3507,3.3507,3.3507,3.3494,3.3507,3.3557,3.3507,3.3614,3.3694,3.3708,3.3988,3.4095,3.4122,3.4242,3.4309,3.4336,3.4322,3.4322,3.4322,3.4322,3.4322,3.4322,3.4322,3.4108,3.2594,3.2594,3.2594,3.2594,3.2607,3.2661,3.2688,3.2701,3.2835,3.2648,3.226,3.2211,3.2198,3.2225,3.2487,3.2581,3.2594,3.2594,3.2621,3.2701,3.2768,3.2822,3.2902,3.2955,3.2995,3.2995,3.2995,3.2995,3.3022,3.3173,3.3387,3.3641,3.4082,3.4322,3.4322,3.4322,3.4322,3.4269,3.3414,3.2995,3.2995,3.2995,3.2995,3.2995,3.3009,3.2995,3.2995,3.2995,3.2995,3.2995,3.2995,3.2969,3.2902,3.2902,3.2862,3.2808,3.2795,3.2835,3.2888,3.2902,3.2929,3.2995,3.2995,3.3089,3.3213,3.2879,3.2532,3.2452,3.2634,3.2795,3.2875,3.2902,3.2915,3.2982,3.2995,3.3036,3.3009,3.2995,3.3076,3.324,3.328,3.348,3.3855,3.3988,3.4042,3.4202,3.4322,3.4336,3.4389,3.4416,3.4429,3.4482,3.4416,3.4269,3.4322,3.4282,3.4255,3.4322,3.4362,3.4349,3.4389,3.4442,3.4523,3.4549,3.4536,3.4576,3.4536,3.4536,3.4549,3.4576,3.4589,3.4549,3.4563,3.4563,3.4456,3.2607,3.2594,3.2648,3.2594,3.2563,3.2741,3.2762,3.2828,3.3457,3.3798,3.3245,3.2853,3.2483,3.2554,3.2572,3.255,3.2648,3.2607,3.2768,3.3022,3.3213,3.348,3.3734,3.4002,3.4162,3.4122,3.4095,3.4042,3.4055,3.4135,3.4202,3.4229,3.4295,3.4349,3.4336,3.4336,3.4336,3.4322,3.4215,3.4162,3.4162,3.4162,3.4148,3.4162,3.4148,3.4162,3.4082,3.4148,3.4148,3.4162,3.4122,3.4015,3.3788,3.3761,3.3641,3.3337,3.331,3.343,3.3721,3.3761,3.3841,3.4122,3.4095,3.4108,3.4162,3.4122,3.3868,3.3454,3.332,3.344,3.3721,3.3734,3.3788,3.3975,3.4028,3.4162,3.4082,3.4148,3.4175,3.4137,3.4122,3.4229,3.4282,3.4322,3.4322,3.4402,3.4429,3.4496,3.467,3.4723,3.4803,3.491,3.4696,3.4389,3.4376,3.4322,3.4402,3.4389,3.4563,3.4683,3.4763,3.491,3.5097,3.495,3.5044,3.503,3.5057,3.511,3.507,3.499,3.5017,3.5084,3.511,3.5057,3.4897,3.3601,3.3601,3.3601,3.2603,3.1009,2.9349,2.8615,2.8638,2.8894,2.8985,2.8951,2.8592,3.0325,3.3436,3.1883,3.1921,3.355,3.3601,3.3654,3.3774,3.3895,3.4015,3.4148,3.4255,3.4322,3.4322,3.4322,3.4322,3.4349,3.4496,3.4576,3.4603,3.475,3.483,3.4843,3.4843,3.4843,3.483,3.4843,3.483,3.4803,3.4496,3.4322,3.4322,3.4322,3.4322,3.4322,3.4322,3.4322,3.4322,3.4322,3.4269,3.4148,3.4135,3.4095,3.3924,3.3911,3.3964,3.4135,3.4135,3.4189,3.4322,3.4322,3.4389,3.4563,3.4589,3.4523,3.4456,3.4148,3.4015,3.4135,3.4148,3.4202,3.4295,3.4322,3.4322,3.4322,3.4322,3.4376,3.4549,3.4576,3.4656,3.479,3.4843,3.4843,3.4843,3.483,3.4883,3.5004,3.5017,3.507,3.5137,3.4977,3.487,3.483,3.4843,3.483,3.4843,3.4937,3.5017,3.503,3.5097,3.5191,3.5204,3.5204,3.5204,3.5164,3.5204,3.5204,3.5204,3.5204,3.5204,3.5204,3.5204,3.5057,3.262,3.1987,3.1935,3.0718,2.8652,2.6545,2.5598,2.5608,2.5721,2.5741,2.5646,2.5016,2.743,3.1392,2.9776,2.9966,3.1728,3.1935,3.1935,3.1948,3.201,3.1995,3.2047,3.2135,3.216,3.2316,3.2914,3.333,3.3304,3.2673,3.2511,3.2549,3.2711,3.2798,3.281,3.281,3.2798,3.2745,3.2798,3.281,3.2695,3.2411,3.2901,3.4342,3.4563,3.4563,3.4563,3.4563,3.4563,3.4563,3.4563,3.4563,3.4563,3.4563,3.4563,3.4563,3.4563,3.4563,3.4563,3.4563,3.4563,3.4563,3.4563,3.4643,3.483,3.4936,3.4977,3.5097,3.4803,3.4511,3.4563,3.4563,3.4563,3.4563,3.4563,3.4563,3.4576,3.4563,3.4656,3.4895,3.4883,3.495,3.5137,3.5177,3.5151,3.5164,3.5177,3.5204,3.5204,3.5191,3.5191,3.5204,3.5191,3.5177,3.5204,3.5151,3.5204,3.5204,3.5177,3.5177,3.5204,3.5204,3.5204,3.5204,3.5204,3.5204,3.5204,3.5204,3.5204,3.5204,3.5204,3.5204,3.5204,3.5204,3.5204,2.8547,2.625,2.603,2.605,2.5766,2.546,2.5407,2.5077,2.5616,2.5865,2.5307,2.3331,2.4009,2.6663,2.5915,2.5872,2.6198,2.6482,2.6587,2.6608,2.6741,2.6558,2.6472,2.6709,2.6963,2.7727,2.9877,3.0965,3.0829,2.8435,2.6843,2.7048,2.7381,2.7122,2.7338,2.75,2.7015,2.75,2.7553,2.7176,2.7122,2.7091,2.9697,3.407,3.5032,3.4939,3.5124,3.5137,3.5137,3.5151,3.511,3.5137,3.5137,3.5137,3.5124,3.5124,3.5137,3.5137,3.5124,3.5097,3.511,3.5137,3.5084,3.5137,3.5124,3.5137,3.5164,3.5204,3.5164,3.5124,3.5151,3.5084,3.5084,3.5097,3.5124,3.511,3.5124,3.507,3.5151,3.5164,3.5137,3.5151,3.5191,3.5204,3.5204,3.5204,3.5204,3.5204,3.5204,3.5204,3.5204,3.5204,3.5204,3.5204,3.5204,3.5204,3.5204,3.5204,3.5204,3.5204,3.5204,3.5204,3.5204,3.5204,3.5204,3.5204,3.5204,3.5204,3.5204,3.5204,3.5204,3.5204,3.5204,3.5204,3.5204,2.7141,2.5965,2.4203,2.3404,2.3242,2.1466,2.066,2.0668,2.0778,2.0864,2.0708,1.9855,2.0035,2.1007,2.0778,2.2702,2.5965,2.6179,2.6179,2.6189,2.6313,2.6354,2.6364,2.6445,2.6475,2.6691,2.7553,2.8092,2.8038,2.6961,2.6475,2.6475,2.6475,2.6475,2.6475,2.6475,2.6475,2.6475,2.6475,2.6475,2.6323,2.6475,2.7607,2.9551,3.1497,3.3341,3.5151,3.5204,3.5204,3.5204,3.5204,3.5204,3.5204,3.5204,3.5204,3.5204,3.5204,3.5204,3.5204,3.5204,3.5204,3.5204,3.5204,3.5217,3.5204,3.5204,3.5271,3.5418,3.5471,3.5538,3.5645,3.5431,3.5204,3.5204,3.5204,3.5217,3.5204,3.5204,3.5204,3.5204,3.5204,3.5204,3.5231,3.5204,3.5204,3.5204,3.5204,3.5217,3.5204,3.5204,3.5231,3.5244,3.5351,3.5418,3.5471,3.5297,3.5204,3.5204,3.5204,3.5217,3.5231,3.5271,3.5284,3.5324,3.5297,3.5297,3.5338,3.5324,3.5311,3.5284,3.5284,3.5324,3.5204,3.5324,3.5284,2.372,2.3393,2.1609,2.0803,2.0584,1.8736,1.7915,1.7915,1.7915,1.7915,1.7915,1.7915,1.7915,1.7915,1.7915,1.9815,2.3502,2.3656,2.372,2.372,2.372,2.372,2.372,2.372,2.372,2.3665,2.372,2.4155,2.4905,2.4145,2.3774,2.3665,2.372,2.372,2.3729,2.3774,2.3764,2.3819,2.3818,2.3809,2.3855,2.3864,2.4348,2.5388,2.7231,3.0032,3.3578,3.383,3.4319,3.5032,3.5204,3.5204,3.5204,3.5204,3.5244,3.5324,3.5338,3.5378,3.5471,3.5485,3.5485,3.5485,3.5485,3.5485,3.5485,3.5485,3.5578,3.5725,3.5778,3.5872,3.5993,3.5712,3.5485,3.5485,3.5485,3.5471,3.5485,3.5485,3.5498,3.5511,3.5525,3.5498,3.5471,3.5485,3.5498,3.5471,3.5485,3.5485,3.5485,3.5471,3.5485,3.5498,3.5658,3.5752,3.5778,3.5658,3.5605,3.5591,3.5525,3.5458,3.5404,3.5431,3.5431,3.5458,3.5458,3.5471,3.5471,3.5471,3.5458,3.5444,3.5551,3.5658,3.5578,3.5525,3.5525,1.8136,1.835,1.797,1.8191,1.8247,1.8026,1.7915,1.7915,1.7915,1.7915,1.7915,1.7915,1.7915,1.7915,1.7915,1.8136,1.8626,1.8839,1.8784,1.8729,1.8626,1.8571,1.8681,1.8839,1.8839,1.8736,1.8247,1.9603,2.1945,2.0003,1.8757,1.8316,1.8723,1.9069,1.8212,1.8907,1.8587,1.8832,1.9099,1.8902,1.8371,1.8952,2.0219,2.2223,2.2829,2.5314,3.0423,3.0786,3.2008,3.4279,3.4662,3.5006,3.4464,3.4464,3.4914,3.4764,3.5244,3.5604,3.5763,3.5884,3.6033,3.6033,3.6073,3.6033,3.5952,3.6033,3.606,3.6059,3.6072,3.6099,3.6126,3.6099,3.6046,3.6059,3.5965,3.6019,3.606,3.61,3.6113,3.606,3.6033,3.61,3.61,3.6033,3.5939,3.5952,3.5965,3.6006,3.5925,3.5925,3.6019,3.6019,3.6032,3.6059,3.6072,3.6072,3.6072,3.6072,3.5979,3.5899,3.5845,3.5832,3.5805,3.5859,3.5859,3.5859,3.5845,3.5805,3.5845,3.5859,3.6006,3.5939,3.5872,3.5819,3.5899,1.7915,1.7915,1.7915,1.7915,1.7915,1.7915,1.7915,1.7915,1.7915,1.7915,1.7915,1.7915,1.7915,1.7915,1.7915,1.7915,1.7915,1.7915,1.7915,1.7915,1.7915,1.7915,1.7915,1.7915,1.7915,1.7915,1.7915,1.8302,1.8978,1.8413,1.8023,1.8036,1.8124,1.8179,1.8172,1.8226,1.8247,1.8253,1.8294,1.8314,1.8321,1.8321,1.8824,1.9488,1.9658,2.1478,2.5011,2.7084,2.8573,2.9665,2.9556,2.9567,2.9611,2.9567,2.9601,2.9875,3.1721,3.2791,3.3203,3.4909,3.6032,3.614,3.614,3.6126,3.6126,3.614,3.6233,3.6326,3.638,3.6433,3.662,3.6674,3.6487,3.6112,3.6126,3.6099,3.6126,3.6153,3.6126,3.6126,3.6126,3.6126,3.614,3.614,3.6126,3.6167,3.6167,3.6167,3.6153,3.6139,3.6126,3.6126,3.6247,3.6366,3.638,3.6433,3.65,3.642,3.6326,3.6259,3.6219,3.6206,3.6179,3.6166,3.6153,3.6193,3.618,3.6193,3.6179,3.6139,3.6112,3.6086,3.6126,3.618,3.6206,1.7915,1.7915,1.7915,1.7915,1.7915,1.7915,1.7915,1.7915,1.7915,1.7915,1.7915,1.7915,1.7915,1.7915,1.7915,1.7915,1.7915,1.7915,1.7915,1.7915,1.7915,1.7915,1.7915,1.7915,1.7956,1.7997,1.7948,1.7982,1.8036,1.8124,1.8179,1.8199,1.8274,1.8314,1.8328,1.8375,1.8339,1.8409,1.8457,1.8484,1.8484,1.8484,1.8484,1.8484,1.8484,1.9441,2.1232,2.3019,2.49,2.6551,2.702,2.702,2.702,2.7121,2.705,2.7509,2.8871,3.0463,3.1769,3.3616,3.5329,3.6052,3.6393,3.6393,3.6393,3.6393,3.65,3.6633,3.6674,3.674,3.6832,3.6872,3.6754,3.646,3.642,3.6393,3.6393,3.6393,3.6406,3.6433,3.642,3.6393,3.6393,3.6393,3.6393,3.6393,3.6393,3.6393,3.6393,3.6406,3.638,3.6406,3.654,3.666,3.6674,3.6712,3.6845,3.6725,3.6579,3.658,3.654,3.654,3.6527,3.654,3.654,3.6553,3.654,3.65,3.6513,3.6406,3.634,3.6446,3.6513,3.6487,3.654,1.7915,1.7915,1.7915,1.7915,1.7915,1.7915,1.7915,1.7915,1.7915,1.7929,1.7942,1.7956,1.7956,1.7956,1.7997,1.799,1.7949,1.7983,1.799,1.7983,1.7983,1.7983,1.7963,1.7983,1.8002,1.8091,1.8104,1.8172,1.8267,1.8308,1.8328,1.8335,1.8362,1.8355,1.8409,1.8427,1.8545,1.8565,1.8674,1.8728,1.8735,1.88,1.8793,1.8793,1.8786,1.8895,1.9171,1.9619,2.1609,2.5683,2.584,2.5738,2.6247,2.6505,2.6075,2.6117,2.6857,2.8586,3.0891,3.2302,3.3677,3.5757,3.6503,3.6706,3.6239,3.591,3.5672,3.5404,3.5541,3.5789,3.5772,3.6256,3.641,3.6939,3.6941,3.6927,3.6925,3.6912,3.6914,3.6914,3.6899,3.6872,3.6847,3.6805,3.6805,3.6805,3.6792,3.6765,3.6765,3.678,3.6832,3.6832,3.6779,3.6765,3.6752,3.6779,3.6885,3.6845,3.6739,3.678,3.6754,3.6767,3.678,3.6807,3.6821,3.6861,3.6874,3.678,3.6767,3.6727,3.6725,3.6859,3.6832,3.6725,3.674,1.7915,1.7915,1.7915,1.7915,1.7915,1.7915,1.7922,1.7922,1.7922,1.7997,1.8009,1.803,1.8091,1.8186,1.8192,1.8199,1.8179,1.8186,1.8199,1.8199,1.8199,1.8131,1.8084,1.8145,1.8213,1.8253,1.826,1.828,1.8328,1.843,1.847,1.8477,1.8579,1.8633,1.866,1.8674,1.8701,1.8701,1.8735,1.882,1.882,1.882,1.882,1.882,1.882,1.882,1.882,1.882,1.9198,2.0647,2.0969,2.0969,2.1289,2.1339,2.1526,2.1794,2.3348,2.4669,2.6367,2.9776,3.2497,3.3627,3.5262,3.5917,3.3751,3.3583,3.2535,3.1127,3.0444,3.0681,3.1053,3.2766,3.4792,3.7148,3.6778,3.695,3.7406,3.7395,3.7261,3.7248,3.7088,3.6952,3.6939,3.6939,3.6939,3.6939,3.6939,3.6939,3.7005,3.6979,3.7032,3.6925,3.6872,3.6872,3.6872,3.6872,3.6885,3.6885,3.6859,3.6872,3.6845,3.6819,3.6832,3.6859,3.6832,3.6859,3.6859,3.6832,3.6872,3.6885,3.6885,3.6885,3.6885,3.6819,3.6819,1.7915,1.7929,1.7983,1.801,1.8024,1.8023,1.8057,1.8057,1.8057,1.8104,1.8179,1.8186,1.8233,1.8258,1.8314,1.8314,1.8321,1.8321,1.8314,1.8328,1.8375,1.8321,1.824,1.8287,1.8348,1.8409,1.8352,1.845,1.8511,1.8593,1.8626,1.864,1.8773,1.882,1.88,1.882,1.882,1.882,1.882,1.882,1.882,1.882,1.882,1.882,1.882,1.882,1.882,1.882,1.882,1.8871,1.8813,1.882,1.882,1.882,1.882,1.8878,2.0536,2.1898,2.3605,2.6831,2.9028,3.0472,3.2436,3.2213,3.1092,3.0648,2.964,2.8759,2.8203,2.8216,2.8538,3.0085,3.1825,3.3208,3.3826,3.4864,3.7299,3.7649,3.7582,3.7515,3.7422,3.7246,3.719,3.7134,3.719,3.7328,3.7368,3.7368,3.7355,3.7246,3.7261,3.7221,3.7235,3.7301,3.7315,3.7315,3.7288,3.7248,3.7208,3.7195,3.7005,3.6979,3.6939,3.6939,3.6912,3.6912,3.6952,3.6952,3.6885,3.6885,3.6885,3.6912,3.6925,3.7005,3.6992,1.7942,1.7956,1.805,1.8118,1.8138,1.826,1.8287,1.8308,1.8287,1.8308,1.8335,1.8342,1.8369,1.8362,1.8423,1.8375,1.8382,1.8409,1.8396,1.8437,1.8491,1.8491,1.8403,1.8409,1.847,1.8545,1.8559,1.862,1.8687,1.88,1.8813,1.88,1.8813,1.882,1.882,1.882,1.882,1.882,1.882,1.882,1.882,1.882,1.882,1.8827,1.8861,1.883,1.8895,1.8888,1.8837,1.8875,1.8841,1.882,1.882,1.8827,1.8854,1.8875,1.9238,2.0335,2.2373,2.3436,2.4836,2.7268,2.8102,2.7895,2.7956,2.7754,2.7367,2.6337,2.727,2.69,2.7425,2.763,2.8186,2.9196,2.9168,3.112,3.5233,3.6883,3.687,3.6857,3.6674,3.6762,3.6818,3.6818,3.6508,3.4224,3.5069,3.5988,3.6441,3.7005,3.7257,3.7635,3.7676,3.7742,3.7756,3.7742,3.7716,3.7676,3.7622,3.7542,3.7246,3.7166,3.7072,3.7059,3.7206,3.7206,3.7139,3.7086,3.7032,3.7072,3.7206,3.7126,3.7032,3.7179,3.7219,1.8043,1.8057,1.8206,1.8274,1.8274,1.8308,1.8321,1.8328,1.8328,1.8403,1.847,1.8427,1.8552,1.8711,1.8698,1.8667,1.864,1.864,1.8667,1.8674,1.8687,1.8701,1.8654,1.8647,1.8674,1.8701,1.8708,1.8728,1.8813,1.882,1.882,1.882,1.882,1.882,1.882,1.882,1.882,1.882,1.882,1.882,1.8827,1.8834,1.8841,1.8796,1.8884,1.9,1.9088,1.9108,1.9108,1.9054,1.8963,1.8854,1.8875,1.8884,1.8938,1.8966,1.904,1.9442,2.0319,2.222,2.3883,2.461,2.6301,2.7251,2.4906,2.4774,2.3666,2.2053,2.1324,2.2905,2.4657,2.2938,2.4247,2.6702,2.6661,2.6702,2.996,3.0995,3.1247,3.1087,3.0978,3.0442,3.0627,3.1122,3.1122,3.0858,3.2137,3.3814,3.4881,3.5972,3.6067,3.5959,3.6944,3.6798,3.7097,3.7395,3.805,3.8036,3.801,3.7983,3.7742,3.7539,3.7526,3.7609,3.7649,3.7595,3.7448,3.7529,3.7515,3.7569,3.7569,3.7502,3.7462,3.7529,3.7446,1.8091,1.8118,1.8328,1.8359,1.843,1.8498,1.8525,1.8531,1.8525,1.8565,1.8626,1.864,1.8687,1.882,1.882,1.8813,1.882,1.882,1.882,1.8813,1.8813,1.882,1.882,1.882,1.882,1.882,1.8813,1.882,1.882,1.882,1.882,1.882,1.882,1.882,1.882,1.882,1.882,1.882,1.882,1.882,1.882,1.8837,1.8918,1.8959,1.9047,1.9135,1.9183,1.9196,1.9196,1.9162,1.9054,1.8966,1.8972,1.904,1.9081,1.9108,1.9149,1.9196,1.9842,2.0612,2.1574,2.1777,2.3361,2.3063,2.2286,2.1899,2.1287,1.9991,1.9784,2.0477,2.1858,2.1154,2.2115,2.3186,2.3367,2.3118,2.4769,2.7059,2.8947,2.8927,2.9209,2.9099,2.8775,2.7776,2.8403,2.9451,2.9883,3.1335,3.1357,3.2266,3.2605,3.3141,3.487,3.575,3.6109,3.6897,3.8242,3.837,3.8384,3.8384,3.8219,3.8139,3.8073,3.805,3.7903,3.7796,3.7702,3.7809,3.7863,3.7769,3.7742,3.7796,3.7796,3.7742,3.7716,1.8124,1.8152,1.8443,1.8565,1.8586,1.8701,1.88,1.8807,1.882,1.8786,1.882,1.882,1.8749,1.882,1.882,1.882,1.882,1.882,1.882,1.882,1.882,1.882,1.882,1.882,1.882,1.882,1.882,1.882,1.882,1.882,1.882,1.882,1.882,1.882,1.882,1.882,1.882,1.882,1.882,1.8847,1.8875,1.8925,1.904,1.9196,1.923,1.9264,1.9305,1.9312,1.9291,1.9271,1.9271,1.9271,1.9264,1.9244,1.9237,1.9244,1.9284,1.9318,1.9332,1.955,1.9651,1.9461,1.9641,1.9756,1.9906,2.0102,1.9981,1.9873,1.9765,1.9765,1.9725,1.9786,1.9725,2.0144,1.9961,1.9725,2.0622,2.4666,2.6487,2.7025,2.6015,2.563,2.6185,2.5997,2.7066,2.7929,2.8226,2.8464,2.8464,2.9286,3.0172,3.186,3.3992,3.617,3.6775,3.6936,3.8184,3.8557,3.8624,3.8624,3.858,3.8544,3.8384,3.821,3.8063,3.801,3.8036,3.813,3.8116,3.7956,3.801,3.8157,3.8103,3.7969,3.7969,1.8287,1.8308,1.8599,1.8779,1.8728,1.8807,1.882,1.882,1.882,1.882,1.882,1.882,1.882,1.882,1.882,1.882,1.882,1.882,1.882,1.882,1.882,1.882,1.882,1.882,1.882,1.882,1.882,1.882,1.882,1.882,1.882,1.882,1.882,1.882,1.882,1.882,1.882,1.8827,1.8841,1.8895,1.8918,1.9013,1.9156,1.9359,1.9393,1.9447,1.9603,1.9637,1.9643,1.9643,1.9643,1.9576,1.9529,1.9447,1.94,1.9413,1.9488,1.9529,1.9535,1.9623,1.959,1.9617,1.9603,1.961,1.9718,1.9725,1.9725,1.9725,1.9725,1.9725,1.9725,1.9725,1.9725,1.9725,1.9725,1.9725,2.0022,2.104,2.2288,2.2651,2.2175,2.2054,2.2945,2.3419,2.354,2.4193,2.4726,2.5026,2.5206,2.7103,2.9276,3.1347,3.3782,3.5983,3.7781,3.7826,3.8303,3.8593,3.8678,3.8678,3.8691,3.8704,3.8584,3.8424,3.841,3.8464,3.8477,3.8464,3.845,3.8357,3.845,3.8544,3.8424,3.8317,3.841,1.8321,1.8348,1.864,1.882,1.882,1.882,1.882,1.882,1.882,1.882,1.882,1.882,1.882,1.882,1.882,1.882,1.882,1.882,1.882,1.882,1.882,1.882,1.882,1.882,1.882,1.882,1.882,1.882,1.882,1.882,1.882,1.882,1.882,1.882,1.882,1.882,1.882,1.8776,1.8895,1.8911,1.9013,1.9115,1.9339,1.9481,1.9549,1.959,1.9698,1.9725,1.9725,1.9718,1.9718,1.9725,1.9698,1.9603,1.9549,1.9563,1.9684,1.9725,1.9725,1.9725,1.9718,1.9718,1.9725,1.9725,1.9725,1.9725,1.9725,1.9725,1.9725,1.9725,1.9725,1.9725,1.9725,1.9725,1.9725,1.9725,1.9725,1.9725,1.9725,1.9725,2.0326,2.0683,2.0326,2.044,1.9961,2.0319,2.1275,2.1812,2.2288,2.4073,2.6575,2.7998,3.0068,3.3042,3.5365,3.6558,3.7283,3.7878,3.8718,3.8718,3.8718,3.8718,3.8718,3.8638,3.8704,3.8718,3.8691,3.8597,3.8678,3.8718,3.8664,3.8638,3.8678,3.8718,3.8718,1.8321,1.8348,1.864,1.882,1.882,1.882,1.882,1.882,1.882,1.882,1.882,1.882,1.882,1.882,1.882,1.882,1.882,1.882,1.882,1.882,1.882,1.882,1.882,1.882,1.882,1.882,1.882,1.882,1.882,1.882,1.882,1.882,1.882,1.882,1.882,1.882,1.8827,1.8843,1.8911,1.9,1.9128,1.9332,1.9529,1.9711,1.9725,1.9718,1.9725,1.9725,1.9725,1.9725,1.9725,1.9725,1.9725,1.9725,1.9725,1.9725,1.9725,1.9725,1.9725,1.9725,1.9725,1.9725,1.9725,1.9725,1.9725,1.9725,1.9725,1.9725,1.9725,1.9725,1.9725,1.9725,1.9725,1.9725,1.9725,1.9725,1.9725,1.9725,1.9725,1.9725,1.9725,1.9725,1.9725,1.9725,1.9725,1.9725,2.0562,2.0501,2.0858,2.0622,2.2288,2.3359,2.5497,2.9,3.1734,3.4228,3.5248,3.6383,3.782,3.8718,3.8718,3.8718,3.8718,3.8718,3.8718,3.8718,3.8718,3.8718,3.8718,3.8718,3.8718,3.8718,3.8718,3.8718,3.8718,1.8321,1.8342,1.8633,1.882,1.882,1.882,1.882,1.882,1.882,1.882,1.882,1.882,1.882,1.882,1.882,1.882,1.882,1.882,1.882,1.882,1.882,1.882,1.882,1.882,1.882,1.882,1.882,1.882,1.882,1.882,1.882,1.882,1.882,1.882,1.882,1.882,1.8837,1.8938,1.8986,1.9122,1.9352,1.9535,1.9624,1.9718,1.9725,1.9725,1.9725,1.9725,1.9725,1.9725,1.9725,1.9725,1.9725,1.9725,1.9725,1.9725,1.9725,1.9725,1.9725,1.9725,1.9725,1.9725,1.9725,1.9725,1.9725,1.9725,1.9725,1.9725,1.9725,1.9725,1.9725,1.9725,1.9725,1.9725,1.9725,1.9725,1.9725,1.9725,1.9725,1.9725,1.9725,1.9725,1.9725,1.9725,1.9725,1.9725,1.9725,1.9725,1.9725,1.9725,1.9961,2.1457,2.2703,2.5976,2.8881,3.1192,3.3395,3.4768,3.6979,3.8602,3.8718,3.8718,3.8718,3.8718,3.8718,3.8718,3.8718,3.8718,3.8718,3.8718,3.8718,3.8718,3.8718,3.8718,3.8718,1.824,1.8342,1.8545,1.8681,1.8813,1.882,1.882,1.882,1.882,1.882,1.882,1.882,1.882,1.882,1.882,1.882,1.882,1.882,1.882,1.882,1.882,1.882,1.882,1.882,1.882,1.882,1.882,1.882,1.882,1.882,1.882,1.882,1.882,1.882,1.8827,1.882,1.885,1.8993,1.9156,1.9345,1.9522,1.9684,1.9725,1.9725,1.9725,1.9725,1.9725,1.9725,1.9725,1.9725,1.9725,1.9725,1.9725,1.9725,1.9725,1.9725,1.9725,1.9725,1.9725,1.9725,1.9725,1.9725,1.9725,1.9725,1.9725,1.9725,1.9725,1.9725,1.9725,1.9725,1.9725,1.9725,1.9725,1.9725,1.9725,1.9725,1.9725,1.9725,1.9725,1.9725,1.9725,1.9725,1.9725,1.9725,1.9725,1.9725,1.9725,1.9725,1.9725,1.9725,2.0083,2.0797,2.1926,2.354,2.6216,2.8702,3.1557,3.3571,3.6921,3.824,3.8602,3.8718,3.8718,3.8718,3.8718,3.8718,3.8718,3.8718,3.8718,3.8718,3.8718,3.8718,3.8718,3.8718,3.8718,1.8124,1.8274,1.8457,1.862,1.882,1.882,1.882,1.882,1.882,1.882,1.882,1.882,1.882,1.882,1.882,1.882,1.882,1.882,1.882,1.882,1.882,1.882,1.882,1.882,1.882,1.882,1.882,1.882,1.882,1.882,1.882,1.882,1.882,1.882,1.8834,1.8888,1.8932,1.9142,1.9359,1.9529,1.963,1.9718,1.9725,1.9725,1.9725,1.9725,1.9725,1.9725,1.9725,1.9725,1.9725,1.9725,1.9725,1.9725,1.9725,1.9725,1.9725,1.9725,1.9725,1.9725,1.9725,1.9725,1.9725,1.9725,1.9725,1.9725,1.9725,1.9725,1.9725,1.9725,1.9725,1.9725,1.9725,1.9725,1.9725,1.9725,1.9725,1.9725,1.9725,1.9725,1.9725,1.9725,1.9725,1.9725,1.9725,1.9725,1.9725,1.9725,1.9725,1.9725,1.9961,2.038,2.0797,2.1752,2.3238,2.5976,2.894,3.1911,3.519,3.7096,3.7037,3.7994,3.8718,3.8718,3.8718,3.8718,3.8718,3.8718,3.8718,3.8718,3.8718,3.8718,3.8718,3.8718,3.8718,1.7968,1.8131,1.8409,1.8613,1.8813,1.882,1.882,1.882,1.882,1.882,1.882,1.882,1.882,1.882,1.882,1.882,1.882,1.882,1.882,1.882,1.882,1.882,1.882,1.882,1.882,1.882,1.882,1.882,1.882,1.882,1.882,1.882,1.882,1.882,1.8868,1.8911,1.9094,1.9312,1.9522,1.9677,1.9718,1.9725,1.9725,1.9725,1.9725,1.9725,1.9725,1.9725,1.9725,1.9725,1.9725,1.9725,1.9725,1.9725,1.9725,1.9725,1.9725,1.9725,1.9725,1.9725,1.9725,1.9725,1.9725,1.9725,1.9725,1.9725,1.9725,1.9725,1.9725,1.9725,1.9725,1.9725,1.9725,1.9725,1.9725,1.9725,1.9725,1.9725,1.9725,1.9725,1.9725,1.9725,1.9725,1.9725,1.9725,1.9725,1.9725,1.9725,1.9725,1.9725,1.9725,1.9901,1.9847,2.0258,2.044,2.3065,2.6455,2.8821,3.1498,3.3512,3.4639,3.6021,3.7574,3.8718,3.8718,3.8718,3.8718,3.8718,3.8718,3.8718,3.8718,3.8718,3.8718,3.8718,3.8718,1.7948,1.8111,1.8321,1.8484,1.8626,1.8779,1.882,1.882,1.882,1.882,1.882,1.882,1.882,1.882,1.882,1.882,1.882,1.882,1.882,1.882,1.882,1.882,1.882,1.882,1.882,1.882,1.882,1.882,1.882,1.882,1.882,1.882,1.882,1.882,1.8823,1.9006,1.923,1.9406,1.9576,1.9725,1.9725,1.9725,1.9725,1.9725,1.9725,1.9725,1.9725,1.9725,1.9725,1.9725,1.9725,1.9725,1.9725,1.9725,1.9725,1.9725,1.9725,1.9725,1.9725,1.9725,1.9725,1.9725,1.9725,1.9725,1.9725,1.9725,1.9725,1.9725,1.9725,1.9725,1.9725,1.9725,1.9725,1.9725,1.9725,1.9725,1.9725,1.9725,1.9725,1.9725,1.9725,1.9725,1.9725,1.9725,1.9725,1.9725,1.9725,1.9725,1.9725,1.9725,1.9725,1.9725,1.9725,1.9725,1.9961,2.1933,2.4193,2.6036,2.7929,3.0068,3.2077,3.4041,3.5599,3.7096,3.8544,3.8414,3.8414,3.8602,3.866,3.866,3.866,3.8718,3.8718,3.8718,3.8718,1.7983,1.8036,1.8186,1.8362,1.8538,1.8694,1.882,1.882,1.882,1.882,1.882,1.882,1.882,1.882,1.882,1.882,1.882,1.882,1.882,1.882,1.882,1.882,1.882,1.882,1.882,1.882,1.882,1.882,1.882,1.882,1.882,1.882,1.882,1.8841,1.8905,1.9115,1.9345,1.9495,1.959,1.9725,1.9725,1.9725,1.9725,1.9725,1.9725,1.9725,1.9725,1.9725,1.9725,1.9725,1.9725,1.9725,1.9725,1.9725,1.9725,1.9725,1.9725,1.9725,1.9725,1.9725,1.9725,1.9725,1.9725,1.9725,1.9725,1.9725,1.9725,1.9725,1.9725,1.9725,1.9725,1.9725,1.9725,1.9725,1.9725,1.9725,1.9725,1.9725,1.9725,1.9725,1.9725,1.9725,1.9725,1.9725,1.9725,1.9725,1.9725,1.9725,1.9725,1.9725,1.9725,1.9725,1.9725,1.9725,1.9847,2.1161,2.2288,2.3005,2.5026,2.7402,2.9475,3.1557,3.3688,3.547,3.6675,3.7574,3.7762,3.7574,3.8007,3.8544,3.8602,3.8718,3.8718,3.8718,3.8718,1.7922,1.7942,1.8036,1.8267,1.8454,1.8694,1.8813,1.882,1.882,1.882,1.882,1.882,1.882,1.882,1.882,1.882,1.882,1.882,1.882,1.882,1.882,1.882,1.882,1.882,1.882,1.882,1.882,1.882,1.882,1.882,1.882,1.8841,1.8816,1.8877,1.9006,1.9271,1.9495,1.963,1.9657,1.9725,1.9725,1.9725,1.9725,1.9725,1.9725,1.9725,1.9725,1.9725,1.9725,1.9725,1.9725,1.9725,1.9725,1.9725,1.9725,1.9725,1.9725,1.9725,1.9725,1.9725,1.9725,1.9725,1.9725,1.9725,1.9725,1.9725,1.9725,1.9725,1.9725,1.9725,1.9725,1.9725,1.9725,1.9725,1.9725,1.9725,1.9725,1.9725,1.9725,1.9725,1.9725,1.9725,1.9725,1.9725,1.9725,1.9725,1.9725,1.9725,1.9725,1.9725,1.9725,1.9725,1.9725,1.9725,1.9725,1.9725,2.0319,2.0858,2.2168,2.4666,2.7044,2.9237,3.1369,3.3512,3.4287,3.4651,3.5541,3.6313,3.74,3.8485,3.8602,3.8718,3.8718,3.8718,3.8718,1.7915,1.7929,1.803,1.8145,1.8274,1.8504,1.8667,1.8749,1.882,1.882,1.882,1.882,1.882,1.882,1.882,1.882,1.882,1.882,1.882,1.882,1.882,1.882,1.882,1.882,1.882,1.882,1.882,1.882,1.882,1.882,1.882,1.8841,1.8938,1.9074,1.9169,1.9345,1.9508,1.9691,1.9725,1.9725,1.9725,1.9725,1.9725,1.9725,1.9725,1.9725,1.9725,1.9725,1.9725,1.9725,1.9725,1.9725,1.9725,1.9725,1.9725,1.9725,1.9725,1.9725,1.9725,1.9725,1.9725,1.9725,1.9725,1.9725,1.9725,1.9725,1.9725,1.9725,1.9725,1.9725,1.9725,1.9725,1.9725,1.9725,1.9725,1.9725,1.9725,1.9725,1.9725,1.9725,1.9725,1.9725,1.9725,1.9725,1.9725,1.9725,1.9725,1.9725,1.9725,1.9725,1.9725,1.9725,1.9725,1.9725,1.9725,1.9725,1.9725,2.0204,2.0858,2.2107,2.4486,2.6805,2.8464,3.0305,3.0966,3.1616,3.2924,3.4534,3.7096,3.8414,3.8414,3.8602,3.8718,3.8718,3.8718,1.7915,1.7929,1.7968,1.8043,1.8131,1.8409,1.862,1.88,1.882,1.882,1.882,1.882,1.882,1.882,1.882,1.882,1.882,1.882,1.882,1.882,1.882,1.882,1.882,1.882,1.882,1.882,1.882,1.882,1.882,1.882,1.8854,1.8898,1.9074,1.9196,1.9305,1.944,1.9563,1.9711,1.9725,1.9725,1.9725,1.9725,1.9725,1.9725,1.9725,1.9725,1.9725,1.9725,1.9725,1.9725,1.9725,1.9725,1.9725,1.9725,1.9725,1.9725,1.9725,1.9725,1.9725,1.9725,1.9725,1.9725,1.9725,1.9725,1.9725,1.9725,1.9725,1.9725,1.9725,1.9725,1.9725,1.9725,1.9725,1.9725,1.9725,1.9725,1.9725,1.9725,1.9725,1.9725,1.9725,1.9725,1.9725,1.9725,1.9725,1.9725,1.9725,1.9725,1.9725,1.9725,1.9725,1.9725,1.9725,1.9725,1.9725,1.9725,1.9725,1.9725,2.0198,2.0858,2.1986,2.4305,2.5677,2.6924,2.7581,2.8643,3.0611,3.263,3.5131,3.7037,3.7994,3.824,3.8602,3.8718,3.8718,1.7915,1.7915,1.7915,1.7948,1.8118,1.8382,1.8599,1.8807,1.8813,1.882,1.882,1.882,1.882,1.882,1.882,1.882,1.882,1.882,1.882,1.882,1.882,1.882,1.882,1.882,1.882,1.882,1.882,1.882,1.882,1.882,1.8888,1.8986,1.9128,1.9284,1.9427,1.9549,1.963,1.9718,1.9725,1.9725,1.9725,1.9725,1.9725,1.9725,1.9725,1.9725,1.9725,1.9725,1.9725,1.9725,1.9725,1.9725,1.9725,1.9725,1.9725,1.9725,1.9725,1.9725,1.9725,1.9725,1.9725,1.9725,1.9725,1.9725,1.9725,1.9725,1.9725,1.9725,1.9725,1.9725,1.9725,1.9725,1.9725,1.9725,1.9725,1.9725,1.9725,1.9725,1.9725,1.9725,1.9725,1.9725,1.9725,1.9725,1.9725,1.9725,1.9725,1.9725,1.9725,1.9725,1.9725,1.9725,1.9725,1.9725,1.9725,1.9725,1.9725,1.9725,1.9725,2.0265,2.1214,2.1865,2.3065,2.4073,2.4425,2.5677,2.77,3.0245,3.2972,3.4592,3.5248,3.7471,3.7704,3.8544,3.8718,1.7915,1.7915,1.7915,1.7942,1.8024,1.8253,1.8464,1.8599,1.8766,1.882,1.882,1.882,1.882,1.882,1.882,1.882,1.882,1.882,1.882,1.882,1.882,1.882,1.882,1.882,1.882,1.882,1.882,1.882,1.882,1.882,1.8911,1.9122,1.9169,1.9345,1.9515,1.9637,1.9718,1.9725,1.9725,1.9725,1.9725,1.9725,1.9725,1.9725,1.9725,1.9725,1.9725,1.9725,1.9725,1.9725,1.9725,1.9725,1.9725,1.9725,1.9725,1.9725,1.9725,1.9725,1.9725,1.9725,1.9725,1.9725,1.9725,1.9725,1.9725,1.9725,1.9725,1.9725,1.9725,1.9725,1.9725,1.9725,1.9725,1.9725,1.9725,1.9725,1.9725,1.9725,1.9725,1.9725,1.9725,1.9725,1.9725,1.9725,1.9725,1.9725,1.9725,1.9725,1.9725,1.9725,1.9725,1.9725,1.9725,1.9725,1.9725,1.9725,1.9725,1.9725,1.9725,1.9725,2.0204,2.0737,2.1033,2.1631,2.2643,2.3592,2.4846,2.7521,3.0364,3.0601,3.138,3.4475,3.6934,3.7342,3.7936,1.7915,1.7915,1.7915,1.7915,1.7956,1.8124,1.8314,1.847,1.8667,1.882,1.882,1.882,1.882,1.882,1.882,1.882,1.882,1.882,1.882,1.882,1.882,1.882,1.882,1.882,1.882,1.882,1.882,1.882,1.882,1.8847,1.8911,1.9169,1.9203,1.9386,1.963,1.9718,1.9718,1.9725,1.9725,1.9725,1.9725,1.9725,1.9725,1.9725,1.9725,1.9725,1.9725,1.9725,1.9725,1.9725,1.9725,1.9725,1.9725,1.9725,1.9725,1.9725,1.9725,1.9725,1.9725,1.9725,1.9725,1.9725,1.9725,1.9725,1.9725,1.9725,1.9725,1.9725,1.9725,1.9725,1.9725,1.9725,1.9725,1.9725,1.9725,1.9725,1.9725,1.9725,1.9725,1.9725,1.9725,1.9725,1.9725,1.9725,1.9725,1.9725,1.9725,1.9725,1.9725,1.9725,1.9725,1.9725,1.9725,1.9725,1.9725,1.9725,1.9725,1.9725,1.9725,1.9725,1.9725,1.9847,2.0319,2.0737,2.1214,2.2047,2.2703,2.5026,2.7282,2.7402,2.8057,3.0789,3.3406,3.5061,3.5716,1.7915,1.7915,1.7915,1.7915,1.7942,1.8036,1.8179,1.8335,1.8606,1.8749,1.8813,1.882,1.882,1.882,1.882,1.882,1.882,1.882,1.882,1.882,1.882,1.882,1.882,1.882,1.882,1.882,1.882,1.882,1.882,1.8847,1.8911,1.9183,1.9203,1.9359,1.9677,1.9718,1.9725,1.9725,1.9725,1.9725,1.9725,1.9725,1.9725,1.9725,1.9725,1.9725,1.9725,1.9725,1.9725,1.9725,1.9725,1.9725,1.9725,1.9725,1.9725,1.9725,1.9725,1.9725,1.9725,1.9725,1.9725,1.9725,1.9725,1.9725,1.9725,1.9725,1.9725,1.9725,1.9725,1.9725,1.9725,1.9725,1.9725,1.9725,1.9725,1.9725,1.9725,1.9725,1.9725,1.9725,1.9725,1.9725,1.9725,1.9725,1.9725,1.9725,1.9725,1.9725,1.9725,1.9725,1.9725,1.9725,1.9725,1.9725,1.9725,1.9725,1.9725,1.9725,1.9725,1.9725,1.9725,1.9725,1.9725,2.0144,2.0501,2.0204,2.0858,2.2884,2.4193,2.4305,2.5317,2.7342,2.9475,3.1144,3.2748,1.7915,1.7915,1.7915,1.7915,1.7936,1.8023,1.8104,1.8172,1.8457,1.8654,1.88,1.882,1.882,1.882,1.882,1.882,1.882,1.882,1.882,1.882,1.882,1.882,1.882,1.882,1.882,1.882,1.882,1.882,1.882,1.8854,1.8905,1.9169,1.921,1.9352,1.9698,1.9725,1.9725,1.9725,1.9725,1.9725,1.9725,1.9725,1.9725,1.9725,1.9725,1.9725,1.9725,1.9725,1.9725,1.9725,1.9725,1.9725,1.9725,1.9725,1.9725,1.9725,1.9725,1.9725,1.9725,1.9725,1.9725,1.9725,1.9725,1.9725,1.9725,1.9725,1.9725,1.9725,1.9725,1.9725,1.9725,1.9725,1.9725,1.9725,1.9725,1.9725,1.9725,1.9725,1.9725,1.9725,1.9725,1.9725,1.9725,1.9725,1.9725,1.9725,1.9725,1.9725,1.9725,1.9725,1.9725,1.9725,1.9725,1.9725,1.9725,1.9725,1.9725,1.9725,1.9725,1.9725,1.9725,1.9725,1.9725,1.9725,1.9786,1.9725,1.9725,2.0144,2.11,2.1691,2.2107,2.3953,2.4254,2.5557,2.7759,1.7915,1.7915,1.7915,1.7915,1.7936,1.7955,1.803,1.8124,1.8335,1.8525,1.866,1.8721,1.882,1.882,1.882,1.882,1.882,1.882,1.882,1.882,1.882,1.882,1.882,1.882,1.882,1.882,1.882,1.882,1.882,1.8847,1.8898,1.9156,1.9223,1.9345,1.9677,1.9725,1.9725,1.9725,1.9725,1.9725,1.9725,1.9725,1.9725,1.9725,1.9725,1.9725,1.9725,1.9725,1.9725,1.9725,1.9725,1.9725,1.9725,1.9725,1.9725,1.9725,1.9725,1.9725,1.9725,1.9725,1.9725,1.9725,1.9725,1.9725,1.9725,1.9725,1.9725,1.9725,1.9725,1.9725,1.9725,1.9725,1.9725,1.9725,1.9725,1.9725,1.9725,1.9725,1.9725,1.9725,1.9725,1.9725,1.9725,1.9725,1.9725,1.9725,1.9725,1.9725,1.9725,1.9725,1.9725,1.9725,1.9725,1.9725,1.9725,1.9725,1.9725,1.9725,1.9725,1.9725,1.9725,1.9725,1.9725,1.9725,1.9725,1.9725,1.9725,1.9725,1.9725,2.044,2.0319,2.0326,2.0562,2.1154,2.3186,1.7915,1.7915,1.7915,1.7915,1.7915,1.7922,1.799,1.807,1.8226,1.8375,1.8518,1.866,1.8735,1.882,1.882,1.882,1.882,1.882,1.882,1.882,1.882,1.882,1.882,1.882,1.882,1.882,1.882,1.882,1.882,1.8847,1.8891,1.9135,1.9264,1.9359,1.9637,1.9725,1.9725,1.9725,1.9725,1.9725,1.9725,1.9725,1.9725,1.9725,1.9725,1.9725,1.9725,1.9725,1.9725,1.9725,1.9725,1.9725,1.9725,1.9725,1.9725,1.9725,1.9725,1.9725,1.9725,1.9725,1.9725,1.9725,1.9725,1.9725,1.9725,1.9725,1.9725,1.9725,1.9725,1.9725,1.9725,1.9725,1.9725,1.9725,1.9725,1.9725,1.9725,1.9725,1.9725,1.9725,1.9725,1.9725,1.9725,1.9725,1.9725,1.9725,1.9725,1.9725,1.9725,1.9725,1.9725,1.9725,1.9725,1.9725,1.9725,1.9725,1.9725,1.9725,1.9725,1.9725,1.9725,1.9725,1.9725,1.9725,1.9725,1.9725,1.9725,1.9725,1.9725,1.9725,1.9725,1.9725,1.9847,2.0326,2.0022,1.7915,1.7915,1.7915,1.7915,1.7915,1.7915,1.7936,1.7983,1.8077,1.8219,1.8382,1.8511,1.8633,1.882,1.882,1.882,1.882,1.882,1.882,1.882,1.882,1.882,1.882,1.882,1.882,1.882,1.882,1.882,1.882,1.8834,1.8905,1.9169,1.9196,1.9345,1.9603,1.9718,1.9725,1.9725,1.9725,1.9725,1.9718,1.9718,1.9725,1.9725,1.9725,1.9725,1.9725,1.9725,1.9725,1.9725,1.9725,1.9725,1.9725,1.9725,1.9725,1.9725,1.9725,1.9725,1.9725,1.9725,1.9725,1.9725,1.9725,1.9725,1.9725,1.9725,1.9725,1.9725,1.9725,1.9725,1.9725,1.9725,1.9725,1.9725,1.9725,1.9725,1.9725,1.9725,1.9725,1.9725,1.9725,1.9725,1.9725,1.9725,1.9725,1.9725,1.9725,1.9725,1.9725,1.9725,1.9725,1.9725,1.9725,1.9725,1.9725,1.9725,1.9725,1.9725,1.9725,1.9725,1.9725,1.9725,1.9725,1.9725,1.9725,1.9725,1.9725,1.9725,1.9725,1.9725,1.9725,1.9725,1.9725,1.9725,1.9725]},{"header":{"parameterUnit":"m.s-1","parameterCategory":1,"la1":31.0,"la2":29.5877,"lo1":-88.7671,"lo2":-86.6584,"dy":0.0162,"dx":0.0185,"nx":115,"ny":88,"refTime":"2023-04-07T12:00:00:Z","depth":0,"parameterNumber":3,"parameterNumberName":"V-component_of_WINDS"},"data":[0.0,0.0,0.0,0.0,0.0,0.0,0.0,0.0,0.0,0.0,0.0,0.0,0.0,0.0,0.0,0.0,0.0,0.0,0.0,0.0,0.0,0.0,0.0,0.0,0.0,0.0,0.0,0.0,0.0,0.0,0.0,0.0,0.0,0.0,0.0,0.0,0.0,0.0,0.0,0.0,0.0,0.0,0.0,0.0,0.0,0.0,0.0,0.0,0.0,0.0,0.0,0.0,0.0,0.0,0.0,0.0,0.0,0.0,0.0,0.0,0.0,0.0,0.0,0.0,0.0,0.0,0.0,0.0,0.0,0.0,0.0,0.0,0.0,0.0,0.0,0.0,0.0,0.0,0.0,0.0,0.0,0.0,0.0,0.0,0.0,0.0,0.0,0.0,0.0,0.0,0.0,0.0,0.0,0.0,0.0,0.0,0.0,0.0,0.0,0.0,0.0,0.0,0.0,0.0,0.0,0.0,0.0,0.0,0.0,0.0,0.0,0.0,0.0,0.0,0.0,0.0,0.0,0.0,0.0,0.0,0.0,0.0,0.0,0.0,0.0,0.0,0.0,0.0,0.0,0.0,0.0,0.0,0.0,0.0,0.0,0.0,0.0,0.0,0.0,0.0,0.0,0.0,0.0,0.0,0.0,0.0,0.0,0.0,0.0,0.0,0.0,0.0,0.0,0.0,0.0,0.0,0.0,0.0,0.0,0.0,0.0,0.0,0.0,0.0,0.0,0.0,0.0,0.0,0.0,0.0,0.0,0.0,0.0,0.0,0.0,0.0,0.0,0.0,0.0,0.0,0.0,0.0,0.0,0.0,0.0,0.0,0.0,0.0,0.0,0.0,0.0,0.0,0.0,0.0,0.0,0.0,0.0,0.0,0.0,0.0,0.0,0.0,0.0,0.0,0.0,0.0,0.0,0.0,0.0,0.0,0.0,0.0,0.0,0.0,0.0,0.0,0.0,0.0,0.0,0.0,0.0,0.0,0.0,0.0,0.0,0.0,0.0,0.0,0.0,0.0,0.0,0.0,0.0,0.0,0.0,0.0,0.0,0.0,0.0,0.0,0.0,0.0,0.0,0.0,0.0,0.0,0.0,0.0,0.0,0.0,0.0,0.0,0.0,0.0,0.0,0.0,0.0,0.0,0.0,0.0,0.0,0.0,0.0,0.0,0.0,0.0,0.0,0.0,0.0,0.0,0.0,0.0,0.0,0.0,0.0,0.0,0.0,0.0,0.0,0.0,0.0,0.0,0.0,0.0,0.0,0.0,0.0,0.0,0.0,0.0,0.0,0.0,0.0,0.0,0.0,0.0,0.0,0.0,0.0,0.0,0.0,0.0,0.0,0.0,0.0,0.0,0.0,0.0,0.0,0.0,0.0,0.0,0.0,0.0,0.0,0.0,0.0,0.0,0.0,0.0,0.0,0.0,0.0,0.0,0.0,0.0,0.0,0.0,0.0,0.0,0.0,0.0,0.0,0.0,0.0,0.0,0.0,0.0,0.0,0.0,0.0,0.0,0.0,0.0,0.0,0.0,0.0,0.0,0.0,0.0,0.0,0.0,0.0,0.0,0.0,0.0,0.0,0.0,0.0,0.0,0.0,0.0,0.0,0.0,0.0,0.0,0.0,0.0,0.0,0.0,0.0,0.0,0.0,0.0,0.0,0.0,0.0,0.0,0.0,0.0,0.0,0.0,0.0,0.0,0.0,0.0,0.0,0.0,0.0,0.0,0.0,0.0,0.0,0.0,0.0,0.0,0.0,0.0,0.0,0.0,0.0,0.0,0.0,0.0,0.0,0.0,0.0,0.0,0.0,0.0,0.0,0.0,0.0,0.0,0.0,0.0,0.0,0.0,0.0,0.0,0.0,0.0,0.0,0.0,0.0,0.0,0.0,0.0,0.0,0.0,0.0,0.0,0.0,0.0,0.0,0.0,0.0,0.0,0.0,0.0,0.0,0.0,0.0,0.0,0.0,0.0,0.0,0.0,0.0,0.0,0.0,0.0,0.0,0.0,0.0,0.0,0.0,0.0,0.0,0.0,0.0,0.0,0.0,0.0,0.0,0.0,0.0,0.0,0.0,0.0,0.0,0.0,0.0,0.0,0.0,0.0,0.0,0.0,0.0,0.0,0.0,0.0,0.0,0.0,0.0,0.0,0.0,0.0,0.0,0.0,0.0,0.0,0.0,0.0,0.0,0.0,0.0,0.0,0.0,0.0,0.0,0.0,0.0,0.0,0.0,0.0,0.0,0.0,0.0,0.0,0.0,0.0,0.0,0.0,0.0,0.0,0.0,0.0,0.0,0.0,0.0,0.0,0.0,0.0,0.0,0.0,0.0,0.0,0.0,0.0,0.0,0.0,0.0,0.0,0.0,0.0,0.0,0.0,0.0,0.0,0.0,0.0,0.0,0.0,0.0,0.0,0.0,0.0,0.0,0.0,0.0,0.0,0.0,0.0,0.0,0.0,0.0,0.0,0.0,0.0,0.0,0.0,0.0,0.0,0.0,0.0,0.0,0.0,0.0,0.0,0.0,0.0,0.0,0.0,0.0,0.0,0.0,0.0,0.0,0.0,0.0,0.0,0.0,0.0,0.0,0.0,0.0,0.0,0.0,0.0,0.0,0.0,0.0,0.0,0.0,0.0,0.0,0.0,0.0,0.0,0.0,0.0,0.0,0.0,0.0,0.0,0.0,0.0,0.0,0.0,0.0,0.0,0.0,0.0,0.0,0.0,0.0,0.0,0.0,0.0,0.0,0.0,0.0,0.0,0.0,0.0,0.0,0.0,0.0,0.0,0.0,0.0,0.0,0.0,0.0,0.0,0.0,0.0,0.0,0.0,0.0,0.0,0.0,0.0,0.0,0.0,0.0,0.0,0.0,0.0,0.0,0.0,0.0,0.0,0.0,0.0,0.0,0.0,0.0,0.0,0.0,0.0,0.0,0.0,0.0,0.0,0.0,0.0,0.0,0.0,0.0,0.0,0.0,0.0,0.0,0.0,0.0,0.0,0.0,0.0,0.0,0.0,0.0,0.0,0.0,0.0,0.0,0.0,0.0,0.0,0.0,0.0,0.0,0.0,0.0,0.0,0.0,0.0,0.0,0.0,0.0,0.0,0.0,0.0,0.0,0.0,0.0,0.0,0.0,0.0,0.0,0.0,0.0,0.0,0.0,0.0,0.0,0.0,0.0,0.0,0.0,0.0,0.0,0.0,0.0,0.0,0.0,0.0,0.0,0.0,0.0,0.0,0.0,0.0,0.0,0.0,0.0,0.0,0.0,0.0,0.0,0.0,0.0,0.0,0.0,0.0,0.0,0.0,0.0,0.0,0.0,0.0,0.0,0.0,0.0,0.0,0.0,0.0,0.0,0.0,0.0,0.0,0.0,0.0,0.0,0.0,0.0,0.0,0.0,0.0,0.0,0.0,0.0,0.0,0.0,0.0,0.0,0.0,0.0,0.0,0.0,0.0,0.0,0.0,0.0,0.0,0.0,0.0,0.0,0.0,0.0,0.0,0.0,0.0,0.0,0.0,0.0,0.0,0.0,0.0,0.0,0.0,0.0,0.0,0.0,0.0,0.0,0.0,0.0,0.0,0.0,0.0,0.0,0.0,0.0,0.0,0.0,0.0,0.0,0.0,0.0,0.0,0.0,0.0,0.0,0.0,0.0,0.0,0.0,0.0,0.0,0.0,0.0,0.0,0.0,0.0,0.0,0.0,0.0,0.0,0.0,0.0,0.0,0.0,0.0,0.0,0.0,0.0,0.0,0.0,0.0,0.0,0.0,0.0,0.0,0.0,0.0,0.0,0.0,0.0,0.0,0.0,0.0,0.0,0.0,0.0,0.0,0.0,0.0,0.0,0.0,0.0,0.0,0.0,0.0,0.0,0.0,0.0,0.0,0.0,0.0,0.0,0.0,0.0,0.0,0.0,0.0,0.0,0.0,0.0,0.0,0.0,0.0,0.0,0.0,0.0,0.0,0.0,0.0,0.0,0.0,0.0,0.0,0.0,0.0,0.0,0.0,0.0,0.0,0.0,0.0,0.0,0.0,0.0,0.0,0.0,0.0,0.0,0.0,0.0,0.0,0.0,0.0,0.0,0.0,0.0,0.0,0.0,0.0,0.0,0.0,0.0,0.0,0.0,0.0,0.0,0.0,0.0,0.0,0.0,0.0,0.0,0.0,0.0,0.0,0.0,0.0,0.0,0.0,0.0,0.0,0.0,0.0,0.0,0.0,0.0,0.0,0.0,0.0,0.0,0.0,0.0,0.0,0.0,0.0,0.0,4.0722,0.0,0.0,0.0,0.0,0.0,0.0,0.0,0.0,0.0,0.0,0.0,0.0,0.0,0.0,0.0,0.0,0.0,0.0,0.0,0.0,0.0,0.0,0.0,0.0,0.0,0.0,0.0,0.0,0.0,0.0,0.0,0.0,0.0,0.0,0.0,0.0,0.0,0.0,0.0,0.0,0.0,0.0,0.0,0.0,0.0,0.0,0.0,0.0,0.0,0.0,0.0,0.0,0.0,0.0,0.0,0.0,0.0,0.0,0.0,0.0,0.0,0.0,0.0,0.0,0.0,0.0,0.0,0.0,0.0,0.0,0.0,0.0,0.0,0.0,0.0,0.0,0.0,0.0,0.0,0.0,0.0,0.0,0.0,0.0,0.0,0.0,0.0,0.0,0.0,0.0,0.0,0.0,0.0,0.0,0.0,0.0,0.0,0.0,0.0,0.0,0.0,0.0,0.0,0.0,0.0,0.0,0.0,0.0,0.0,0.0,4.1159,4.1619,4.1964,4.2137,4.2171,0.0,0.0,0.0,0.0,0.0,0.0,0.0,0.0,0.0,0.0,0.0,0.0,0.0,0.0,0.0,0.0,0.0,0.0,0.0,0.0,0.0,0.0,0.0,0.0,0.0,0.0,0.0,0.0,0.0,0.0,0.0,0.0,0.0,0.0,0.0,0.0,0.0,0.0,0.0,0.0,0.0,0.0,0.0,0.0,0.0,0.0,0.0,0.0,0.0,0.0,0.0,0.0,0.0,0.0,0.0,0.0,0.0,0.0,0.0,0.0,0.0,0.0,0.0,0.0,0.0,0.0,0.0,0.0,0.0,0.0,0.0,0.0,0.0,0.0,0.0,0.0,0.0,0.0,0.0,0.0,0.0,0.0,0.0,0.0,0.0,0.0,0.0,0.0,0.0,0.0,0.0,0.0,0.0,0.0,0.0,0.0,0.0,0.0,0.0,0.0,0.0,0.0,0.0,0.0,0.0,0.0,0.0,0.0,0.0,0.0,0.0,0.0,4.3219,4.3219,4.3185,0.0,0.0,0.0,0.0,0.0,0.0,0.0,0.0,0.0,0.0,0.0,0.0,0.0,0.0,0.0,0.0,0.0,0.0,0.0,0.0,0.0,0.0,0.0,0.0,0.0,0.0,0.0,0.0,0.0,0.0,0.0,0.0,0.0,0.0,0.0,0.0,0.0,0.0,0.0,0.0,0.0,0.0,0.0,0.0,0.0,0.0,0.0,0.0,0.0,0.0,0.0,0.0,0.0,0.0,0.0,0.0,0.0,0.0,0.0,0.0,0.0,0.0,0.0,0.0,0.0,0.0,0.0,0.0,0.0,0.0,0.0,0.0,0.0,0.0,0.0,0.0,0.0,0.0,0.0,0.0,0.0,0.0,0.0,0.0,0.0,0.0,0.0,0.0,0.0,0.0,0.0,0.0,0.0,0.0,0.0,0.0,0.0,0.0,0.0,0.0,0.0,0.0,0.0,0.0,0.0,0.0,0.0,0.0,0.0,0.0,4.3138,4.3219,4.3219,0.0,4.3219,0.0,0.0,0.0,0.0,0.0,0.0,0.0,0.0,0.0,0.0,0.0,0.0,0.0,0.0,0.0,0.0,0.0,0.0,0.0,0.0,0.0,0.0,0.0,0.0,0.0,0.0,0.0,0.0,0.0,0.0,0.0,0.0,0.0,0.0,0.0,0.0,0.0,0.0,0.0,0.0,0.0,0.0,0.0,0.0,0.0,0.0,0.0,0.0,0.0,0.0,0.0,0.0,0.0,0.0,0.0,0.0,0.0,0.0,0.0,0.0,0.0,0.0,0.0,0.0,0.0,0.0,0.0,0.0,0.0,0.0,0.0,0.0,0.0,0.0,0.0,0.0,0.0,0.0,0.0,0.0,0.0,0.0,0.0,0.0,0.0,0.0,0.0,0.0,0.0,0.0,0.0,0.0,0.0,0.0,0.0,0.0,0.0,0.0,0.0,0.0,0.0,0.0,0.0,0.0,0.0,0.0,0.0,0.0,0.0,0.0,4.4274,4.4735,4.4735,4.4697,0.0,0.0,0.0,0.0,0.0,0.0,0.0,0.0,0.0,0.0,0.0,0.0,0.0,0.0,0.0,0.0,0.0,0.0,0.0,0.0,0.0,0.0,0.0,0.0,0.0,0.0,0.0,0.0,0.0,0.0,0.0,0.0,0.0,0.0,0.0,0.0,0.0,0.0,0.0,0.0,0.0,0.0,0.0,0.0,0.0,0.0,0.0,0.0,0.0,0.0,0.0,0.0,0.0,0.0,0.0,0.0,0.0,0.0,0.0,0.0,0.0,0.0,0.0,0.0,0.0,0.0,0.0,0.0,0.0,0.0,0.0,0.0,0.0,0.0,0.0,0.0,0.0,0.0,0.0,0.0,0.0,0.0,0.0,0.0,0.0,0.0,0.0,0.0,0.0,0.0,0.0,0.0,0.0,0.0,0.0,0.0,0.0,0.0,0.0,0.0,0.0,0.0,0.0,0.0,0.0,0.0,0.0,0.0,0.0,0.0,4.5015,4.5246,4.5778,4.6034,4.6087,4.5983,0.0,0.0,0.0,0.0,0.0,0.0,0.0,0.0,0.0,0.0,0.0,0.0,0.0,0.0,0.0,0.0,0.0,0.0,0.0,0.0,0.0,0.0,0.0,0.0,0.0,0.0,0.0,0.0,0.0,0.0,0.0,0.0,0.0,0.0,0.0,0.0,0.0,0.0,0.0,0.0,0.0,0.0,0.0,0.0,0.0,0.0,0.0,0.0,0.0,0.0,0.0,0.0,0.0,0.0,0.0,0.0,0.0,0.0,0.0,0.0,0.0,0.0,0.0,0.0,0.0,0.0,0.0,0.0,0.0,0.0,0.0,0.0,0.0,0.0,0.0,0.0,0.0,0.0,0.0,0.0,0.0,0.0,0.0,0.0,0.0,0.0,0.0,0.0,0.0,0.0,0.0,0.0,0.0,0.0,0.0,0.0,0.0,0.0,0.0,0.0,0.0,0.0,0.0,0.0,0.0,0.0,0.0,0.0,4.5721,4.5756,4.5778,4.5847,4.6534,4.6965,0.0,0.0,0.0,0.0,0.0,0.0,0.0,0.0,0.0,0.0,0.0,0.0,0.0,0.0,0.0,0.0,0.0,0.0,0.0,0.0,0.0,0.0,0.0,0.0,0.0,0.0,0.0,0.0,0.0,0.0,0.0,0.0,0.0,0.0,0.0,0.0,0.0,0.0,0.0,0.0,0.0,0.0,0.0,0.0,0.0,0.0,0.0,0.0,0.0,0.0,0.0,0.0,0.0,0.0,0.0,0.0,0.0,0.0,0.0,0.0,0.0,0.0,0.0,0.0,0.0,0.0,0.0,0.0,0.0,0.0,0.0,0.0,0.0,0.0,0.0,0.0,0.0,0.0,0.0,0.0,0.0,0.0,0.0,0.0,0.0,0.0,0.0,0.0,0.0,0.0,0.0,0.0,0.0,0.0,0.0,0.0,0.0,0.0,0.0,0.0,0.0,0.0,0.0,0.0,0.0,0.0,0.0,0.0,0.0,4.6065,4.658,4.6749,4.6626,4.7378,4.781,0.0,0.0,0.0,0.0,0.0,0.0,0.0,0.0,0.0,0.0,0.0,0.0,0.0,0.0,0.0,0.0,0.0,0.0,0.0,0.0,0.0,0.0,0.0,0.0,0.0,0.0,0.0,0.0,0.0,0.0,0.0,0.0,0.0,0.0,0.0,0.0,0.0,0.0,0.0,0.0,0.0,0.0,0.0,0.0,0.0,0.0,0.0,0.0,0.0,0.0,0.0,0.0,0.0,0.0,0.0,0.0,0.0,0.0,0.0,0.0,0.0,0.0,0.0,0.0,0.0,0.0,0.0,0.0,0.0,0.0,0.0,0.0,0.0,0.0,0.0,0.0,0.0,0.0,0.0,0.0,0.0,0.0,0.0,0.0,0.0,0.0,0.0,0.0,0.0,0.0,0.0,0.0,0.0,0.0,0.0,0.0,0.0,0.0,0.0,0.0,0.0,0.0,0.0,0.0,0.0,0.0,0.0,0.0,0.0,4.66,0.0,4.7668,4.7435,4.8299,4.8697,0.0,0.0,0.0,0.0,0.0,0.0,0.0,0.0,0.0,0.0,0.0,0.0,0.0,0.0,0.0,0.0,0.0,0.0,0.0,0.0,0.0,0.0,0.0,0.0,0.0,0.0,0.0,0.0,0.0,0.0,0.0,0.0,0.0,0.0,0.0,0.0,0.0,0.0,0.0,0.0,0.0,0.0,0.0,0.0,0.0,0.0,0.0,0.0,0.0,0.0,0.0,0.0,0.0,0.0,0.0,0.0,0.0,0.0,0.0,0.0,0.0,0.0,0.0,0.0,0.0,0.0,0.0,0.0,0.0,0.0,0.0,0.0,0.0,0.0,0.0,0.0,0.0,0.0,0.0,0.0,0.0,0.0,0.0,0.0,0.0,0.0,0.0,0.0,0.0,0.0,0.0,0.0,0.0,0.0,0.0,0.0,0.0,0.0,0.0,0.0,0.0,0.0,0.0,0.0,0.0,0.0,0.0,0.0,4.6648,4.741,4.8122,4.8478,4.8347,4.9214,4.9648,0.0,0.0,0.0,0.0,0.0,0.0,0.0,0.0,0.0,0.0,0.0,0.0,0.0,0.0,0.0,0.0,0.0,0.0,0.0,0.0,0.0,0.0,0.0,0.0,0.0,0.0,0.0,0.0,0.0,0.0,0.0,0.0,0.0,0.0,0.0,0.0,0.0,0.0,0.0,0.0,0.0,0.0,0.0,0.0,0.0,0.0,0.0,0.0,0.0,0.0,0.0,0.0,0.0,0.0,0.0,0.0,0.0,0.0,0.0,0.0,0.0,0.0,0.0,0.0,0.0,0.0,0.0,0.0,0.0,0.0,0.0,0.0,0.0,0.0,0.0,0.0,0.0,0.0,0.0,0.0,0.0,0.0,0.0,0.0,0.0,0.0,0.0,0.0,0.0,0.0,0.0,0.0,0.0,0.0,0.0,0.0,0.0,0.0,0.0,0.0,0.0,0.0,0.0,0.0,0.0,0.0,0.0,0.0,0.0,4.899,4.9236,4.9508,4.9864,5.015,5.029,0.0,0.0,0.0,0.0,0.0,0.0,0.0,0.0,0.0,0.0,0.0,0.0,0.0,0.0,0.0,0.0,0.0,0.0,0.0,0.0,0.0,0.0,0.0,0.0,0.0,0.0,0.0,0.0,0.0,0.0,0.0,0.0,0.0,0.0,0.0,0.0,0.0,0.0,0.0,0.0,0.0,0.0,0.0,0.0,0.0,0.0,0.0,0.0,0.0,0.0,0.0,0.0,0.0,0.0,0.0,0.0,0.0,0.0,0.0,0.0,0.0,0.0,0.0,0.0,0.0,0.0,0.0,0.0,0.0,0.0,0.0,0.0,0.0,0.0,0.0,0.0,0.0,0.0,0.0,0.0,0.0,0.0,0.0,0.0,0.0,0.0,0.0,0.0,0.0,0.0,0.0,0.0,0.0,0.0,0.0,0.0,0.0,0.0,0.0,0.0,0.0,0.0,0.0,0.0,0.0,0.0,0.0,0.0,0.0,5.0989,5.0581,5.0522,5.0871,5.0928,5.0809,5.0598,0.0,0.0,0.0,0.0,0.0,0.0,0.0,0.0,0.0,0.0,0.0,0.0,0.0,0.0,0.0,0.0,0.0,0.0,0.0,0.0,0.0,0.0,0.0,0.0,0.0,0.0,0.0,0.0,0.0,0.0,0.0,0.0,0.0,0.0,0.0,0.0,0.0,0.0,0.0,0.0,0.0,0.0,0.0,0.0,0.0,0.0,0.0,0.0,0.0,0.0,0.0,0.0,0.0,0.0,0.0,0.0,0.0,0.0,0.0,0.0,0.0,0.0,0.0,0.0,0.0,0.0,0.0,0.0,0.0,0.0,0.0,0.0,0.0,0.0,0.0,0.0,0.0,0.0,0.0,0.0,0.0,0.0,0.0,0.0,0.0,0.0,0.0,0.0,0.0,0.0,0.0,0.0,0.0,0.0,0.0,0.0,0.0,0.0,0.0,0.0,0.0,0.0,0.0,0.0,0.0,0.0,0.0,0.0,5.3154,5.2235,5.172,5.1497,5.1495,5.1234,0.0,0.0,0.0,0.0,0.0,0.0,0.0,0.0,0.0,0.0,0.0,0.0,0.0,0.0,0.0,0.0,0.0,0.0,0.0,0.0,0.0,0.0,0.0,0.0,0.0,0.0,0.0,0.0,0.0,0.0,0.0,0.0,0.0,0.0,0.0,0.0,0.0,0.0,0.0,0.0,0.0,0.0,0.0,0.0,0.0,0.0,0.0,0.0,0.0,0.0,0.0,0.0,0.0,0.0,0.0,0.0,0.0,0.0,0.0,0.0,0.0,0.0,0.0,0.0,0.0,0.0,0.0,0.0,0.0,0.0,0.0,0.0,0.0,0.0,0.0,0.0,0.0,0.0,0.0,0.0,0.0,0.0,0.0,0.0,0.0,0.0,0.0,0.0,0.0,0.0,0.0,0.0,0.0,0.0,0.0,0.0,0.0,0.0,0.0,0.0,0.0,0.0,0.0,0.0,0.0,0.0,0.0,0.0,0.0,5.2891,5.4259,5.462,5.3682,5.2247,5.1689,0.0,0.0,0.0,0.0,0.0,0.0,0.0,0.0,0.0,0.0,0.0,0.0,0.0,0.0,0.0,0.0,0.0,0.0,0.0,0.0,0.0,0.0,0.0,0.0,0.0,0.0,0.0,0.0,0.0,0.0,0.0,0.0,0.0,0.0,0.0,0.0,0.0,0.0,0.0,0.0,0.0,0.0,0.0,0.0,0.0,0.0,0.0,0.0,0.0,0.0,0.0,0.0,0.0,0.0,0.0,0.0,0.0,0.0,0.0,0.0,0.0,0.0,0.0,0.0,0.0,0.0,0.0,0.0,0.0,0.0,0.0,0.0,0.0,0.0,0.0,0.0,0.0,0.0,0.0,0.0,0.0,0.0,0.0,0.0,0.0,0.0,0.0,0.0,0.0,0.0,0.0,0.0,0.0,0.0,0.0,0.0,0.0,0.0,0.0,0.0,0.0,0.0,0.0,0.0,0.0,0.0,0.0,0.0,5.49,5.4525,5.6514,5.7244,5.6542,5.457,5.3547,0.0,0.0,0.0,0.0,0.0,0.0,0.0,0.0,0.0,0.0,0.0,0.0,0.0,0.0,0.0,0.0,0.0,0.0,0.0,0.0,0.0,0.0,0.0,0.0,0.0,0.0,0.0,0.0,0.0,0.0,0.0,0.0,0.0,0.0,0.0,0.0,0.0,0.0,0.0,0.0,0.0,0.0,0.0,0.0,0.0,0.0,0.0,0.0,0.0,0.0,0.0,0.0,0.0,0.0,0.0,0.0,0.0,0.0,0.0,0.0,0.0,0.0,0.0,0.0,0.0,0.0,0.0,0.0,0.0,0.0,0.0,0.0,0.0,0.0,0.0,0.0,0.0,0.0,0.0,0.0,0.0,0.0,0.0,0.0,0.0,0.0,0.0,0.0,0.0,0.0,0.0,0.0,0.0,0.0,0.0,0.0,0.0,0.0,0.0,0.0,0.0,0.0,0.0,0.0,0.0,0.0,0.0,0.0,5.6982,5.7002,5.8681,5.9526,5.9477,5.7438,5.5932,0.0,0.0,0.0,0.0,0.0,0.0,0.0,0.0,0.0,0.0,0.0,0.0,0.0,0.0,0.0,0.0,0.0,0.0,0.0,0.0,0.0,0.0,0.0,0.0,0.0,0.0,0.0,0.0,0.0,0.0,0.0,0.0,0.0,0.0,0.0,0.0,0.0,0.0,0.0,0.0,0.0,0.0,0.0,0.0,0.0,0.0,0.0,0.0,0.0,0.0,0.0,0.0,0.0,0.0,0.0,0.0,0.0,0.0,0.0,0.0,0.0,0.0,0.0,0.0,0.0,0.0,0.0,0.0,0.0,0.0,0.0,0.0,0.0,0.0,0.0,0.0,0.0,0.0,0.0,0.0,0.0,0.0,0.0,0.0,0.0,0.0,0.0,0.0,0.0,0.0,0.0,0.0,0.0,0.0,0.0,0.0,0.0,0.0,0.0,0.0,0.0,0.0,0.0,0.0,0.0,0.0,0.0,0.0,5.8068,5.7823,5.9969,6.1116,6.1103,5.7978,5.6353,0.0,0.0,0.0,0.0,0.0,0.0,0.0,0.0,0.0,0.0,0.0,0.0,0.0,0.0,0.0,0.0,0.0,0.0,0.0,0.0,0.0,0.0,0.0,0.0,0.0,0.0,0.0,0.0,0.0,0.0,0.0,0.0,0.0,0.0,0.0,0.0,0.0,0.0,0.0,0.0,0.0,0.0,0.0,0.0,0.0,0.0,0.0,0.0,5.6672,0.0,0.0,0.0,0.0,0.0,0.0,0.0,0.0,0.0,0.0,0.0,0.0,0.0,0.0,0.0,0.0,0.0,0.0,0.0,0.0,0.0,0.0,0.0,0.0,0.0,0.0,0.0,0.0,0.0,0.0,0.0,0.0,0.0,0.0,0.0,0.0,0.0,0.0,0.0,0.0,0.0,0.0,0.0,0.0,0.0,0.0,0.0,0.0,0.0,0.0,0.0,0.0,0.0,0.0,0.0,0.0,0.0,0.0,0.0,5.9346,5.971,6.13,6.2144,6.2083,5.9949,5.8701,0.0,0.0,0.0,0.0,0.0,0.0,0.0,0.0,0.0,0.0,0.0,0.0,0.0,0.0,0.0,0.0,0.0,0.0,0.0,0.0,0.0,0.0,0.0,0.0,0.0,0.0,0.0,0.0,0.0,0.0,0.0,0.0,0.0,0.0,0.0,0.0,0.0,0.0,0.0,0.0,0.0,0.0,0.0,0.0,0.0,0.0,0.0,0.0,0.0,0.0,0.0,0.0,0.0,0.0,0.0,0.0,0.0,0.0,0.0,0.0,0.0,0.0,0.0,0.0,0.0,0.0,0.0,0.0,0.0,0.0,0.0,0.0,0.0,0.0,0.0,0.0,0.0,0.0,0.0,0.0,0.0,0.0,0.0,0.0,0.0,0.0,0.0,0.0,0.0,0.0,0.0,0.0,0.0,0.0,0.0,0.0,0.0,0.0,0.0,0.0,0.0,0.0,0.0,0.0,0.0,0.0,0.0,5.9799,6.0586,6.1728,6.2475,6.2793,6.2793,6.2034,6.1293,6.0588,0.0,0.0,0.0,0.0,0.0,0.0,0.0,0.0,0.0,0.0,0.0,0.0,0.0,0.0,0.0,0.0,0.0,0.0,0.0,0.0,0.0,0.0,0.0,0.0,0.0,0.0,0.0,0.0,0.0,0.0,0.0,0.0,0.0,0.0,0.0,0.0,0.0,0.0,5.5283,5.5721,0.0,0.0,0.0,0.0,0.0,0.0,0.0,0.0,5.8263,0.0,0.0,0.0,0.0,0.0,0.0,0.0,0.0,0.0,0.0,0.0,0.0,0.0,0.0,0.0,0.0,0.0,0.0,0.0,0.0,0.0,0.0,0.0,0.0,0.0,0.0,0.0,0.0,0.0,0.0,0.0,0.0,0.0,0.0,0.0,0.0,0.0,0.0,0.0,0.0,0.0,0.0,0.0,0.0,0.0,0.0,0.0,0.0,0.0,0.0,0.0,0.0,0.0,0.0,0.0,0.0,6.0663,6.0742,6.1375,6.256,6.2719,6.2793,6.2793,6.2034,6.1676,6.1818,0.0,0.0,0.0,0.0,0.0,0.0,0.0,0.0,0.0,0.0,0.0,0.0,0.0,0.0,0.0,0.0,0.0,0.0,0.0,0.0,0.0,0.0,0.0,0.0,0.0,0.0,0.0,0.0,0.0,0.0,0.0,0.0,0.0,0.0,0.0,0.0,0.0,0.0,0.0,5.5838,5.5924,0.0,0.0,0.0,0.0,0.0,0.0,0.0,0.0,5.8708,0.0,0.0,0.0,0.0,0.0,0.0,0.0,0.0,0.0,0.0,0.0,0.0,0.0,0.0,0.0,0.0,0.0,0.0,0.0,0.0,0.0,0.0,0.0,0.0,0.0,0.0,0.0,0.0,0.0,0.0,0.0,0.0,0.0,0.0,0.0,0.0,0.0,0.0,0.0,0.0,0.0,0.0,0.0,0.0,0.0,0.0,0.0,0.0,0.0,0.0,0.0,0.0,0.0,0.0,0.0,6.12,6.1308,6.1798,6.2756,6.2793,6.2793,6.2793,6.1998,6.1911,0.0,0.0,0.0,0.0,0.0,0.0,0.0,0.0,0.0,0.0,0.0,0.0,0.0,0.0,0.0,0.0,0.0,0.0,0.0,0.0,0.0,0.0,0.0,0.0,0.0,0.0,0.0,0.0,0.0,0.0,0.0,0.0,0.0,0.0,0.0,0.0,0.0,0.0,0.0,0.0,5.6972,5.7162,5.7711,0.0,0.0,0.0,0.0,0.0,0.0,6.0428,6.0368,0.0,0.0,0.0,0.0,0.0,0.0,0.0,0.0,0.0,0.0,0.0,0.0,0.0,0.0,0.0,0.0,0.0,0.0,0.0,0.0,0.0,0.0,0.0,0.0,0.0,0.0,0.0,0.0,0.0,0.0,0.0,0.0,0.0,0.0,0.0,0.0,0.0,0.0,0.0,0.0,0.0,0.0,0.0,0.0,0.0,0.0,0.0,0.0,0.0,0.0,0.0,0.0,0.0,0.0,0.0,6.1598,6.1688,6.2058,6.2756,6.2793,6.2793,6.2793,6.1851,6.1814,0.0,0.0,0.0,0.0,0.0,0.0,0.0,0.0,0.0,0.0,0.0,0.0,0.0,0.0,0.0,0.0,0.0,0.0,0.0,0.0,0.0,0.0,0.0,0.0,0.0,0.0,0.0,0.0,0.0,0.0,0.0,0.0,0.0,0.0,0.0,0.0,0.0,0.0,0.0,0.0,0.0,5.8646,5.9722,5.9718,0.0,0.0,0.0,0.0,6.1331,6.2004,0.0,0.0,0.0,0.0,0.0,0.0,0.0,0.0,0.0,0.0,0.0,0.0,0.0,0.0,0.0,0.0,0.0,0.0,0.0,0.0,0.0,0.0,0.0,0.0,0.0,0.0,0.0,0.0,0.0,0.0,0.0,0.0,0.0,0.0,0.0,0.0,0.0,0.0,0.0,0.0,0.0,0.0,0.0,0.0,0.0,0.0,0.0,0.0,0.0,0.0,0.0,0.0,0.0,0.0,0.0,0.0,6.2118,6.2126,6.2363,6.278,6.2793,6.2793,6.2793,6.1337,6.1251,0.0,0.0,0.0,0.0,0.0,0.0,0.0,0.0,0.0,0.0,0.0,0.0,0.0,0.0,0.0,0.0,0.0,0.0,0.0,0.0,0.0,0.0,0.0,0.0,0.0,0.0,0.0,0.0,0.0,0.0,0.0,0.0,0.0,0.0,0.0,0.0,0.0,0.0,0.0,0.0,0.0,5.9328,6.0129,6.081,6.1235,0.0,0.0,0.0,6.3011,6.3769,0.0,0.0,0.0,0.0,0.0,0.0,0.0,0.0,0.0,0.0,0.0,0.0,0.0,0.0,0.0,0.0,0.0,0.0,0.0,0.0,0.0,0.0,0.0,0.0,0.0,0.0,0.0,0.0,0.0,0.0,0.0,0.0,0.0,0.0,0.0,0.0,0.0,0.0,0.0,0.0,0.0,0.0,0.0,0.0,0.0,0.0,0.0,0.0,0.0,0.0,0.0,0.0,0.0,0.0,0.0,6.2305,6.1845,6.2291,6.2616,6.2817,6.3282,6.3539,6.3539,6.2401,6.2316,0.0,0.0,0.0,0.0,0.0,0.0,0.0,0.0,0.0,0.0,0.0,0.0,0.0,0.0,0.0,0.0,0.0,0.0,0.0,0.0,0.0,0.0,0.0,0.0,0.0,0.0,0.0,0.0,0.0,0.0,0.0,0.0,0.0,0.0,0.0,0.0,0.0,0.0,0.0,0.0,0.0,0.0,6.1308,6.2177,0.0,0.0,0.0,6.3797,6.3118,0.0,0.0,0.0,0.0,0.0,0.0,0.0,0.0,0.0,0.0,0.0,0.0,0.0,0.0,0.0,0.0,0.0,0.0,0.0,0.0,0.0,0.0,0.0,0.0,0.0,0.0,0.0,0.0,0.0,0.0,0.0,0.0,0.0,0.0,0.0,0.0,0.0,0.0,0.0,0.0,0.0,0.0,0.0,0.0,0.0,0.0,0.0,0.0,0.0,0.0,0.0,0.0,0.0,0.0,0.0,0.0,0.0,6.2479,6.3108,6.3417,6.3453,6.4053,6.4383,6.4383,6.3576,0.0,0.0,0.0,0.0,0.0,0.0,0.0,0.0,0.0,0.0,0.0,0.0,0.0,0.0,0.0,0.0,0.0,0.0,0.0,0.0,0.0,0.0,0.0,0.0,0.0,0.0,0.0,5.7297,0.0,0.0,0.0,0.0,0.0,0.0,0.0,0.0,0.0,0.0,0.0,0.0,0.0,0.0,6.2261,6.2749,6.3492,6.4065,0.0,0.0,6.4903,6.4057,6.5602,6.6313,0.0,0.0,0.0,0.0,0.0,0.0,0.0,0.0,0.0,0.0,0.0,0.0,0.0,0.0,0.0,0.0,0.0,0.0,0.0,0.0,0.0,0.0,0.0,0.0,0.0,0.0,0.0,0.0,0.0,0.0,0.0,0.0,0.0,0.0,0.0,0.0,0.0,0.0,0.0,0.0,0.0,0.0,0.0,0.0,0.0,0.0,0.0,0.0,0.0,0.0,0.0,0.0,0.0,0.0,0.0,6.504,6.5115,6.5105,6.5141,6.5178,6.5215,6.5178,6.4457,6.4383,0.0,0.0,0.0,0.0,0.0,0.0,0.0,0.0,0.0,0.0,0.0,0.0,0.0,0.0,0.0,0.0,0.0,0.0,0.0,0.0,0.0,0.0,0.0,0.0,0.0,0.0,0.0,0.0,0.0,0.0,0.0,0.0,0.0,0.0,0.0,0.0,0.0,0.0,0.0,0.0,0.0,6.3935,6.4361,6.4497,6.4963,0.0,0.0,6.6106,6.7185,6.8733,6.9598,6.9019,0.0,0.0,0.0,0.0,0.0,0.0,0.0,0.0,0.0,0.0,0.0,0.0,0.0,0.0,0.0,0.0,0.0,0.0,0.0,0.0,0.0,0.0,0.0,0.0,0.0,0.0,0.0,0.0,0.0,0.0,0.0,0.0,0.0,0.0,0.0,0.0,0.0,0.0,0.0,0.0,0.0,0.0,0.0,0.0,0.0,0.0,0.0,0.0,0.0,0.0,0.0,0.0,0.0,6.4841,6.4844,6.5134,6.5325,6.5325,6.5778,6.6035,6.6022,6.5742,6.5705,0.0,0.0,0.0,0.0,0.0,0.0,0.0,0.0,0.0,0.0,0.0,0.0,0.0,0.0,0.0,0.0,0.0,0.0,0.0,0.0,0.0,0.0,0.0,0.0,0.0,0.0,0.0,0.0,6.206,6.2688,6.3238,0.0,0.0,0.0,0.0,0.0,0.0,0.0,0.0,0.0,0.0,6.53,6.5993,6.6917,0.0,0.0,6.7988,6.7948,6.7707,6.9045,6.9701,6.8545,6.8961,0.0,0.0,0.0,0.0,0.0,0.0,0.0,0.0,0.0,0.0,0.0,0.0,0.0,0.0,0.0,0.0,0.0,0.0,0.0,0.0,0.0,0.0,0.0,0.0,0.0,0.0,0.0,0.0,0.0,0.0,0.0,0.0,0.0,0.0,0.0,0.0,0.0,0.0,0.0,0.0,0.0,0.0,0.0,0.0,0.0,0.0,0.0,0.0,0.0,0.0,0.0,0.0,6.5963,6.5861,6.6439,6.6733,6.6733,6.7283,6.7577,6.7577,6.7577,6.7577,0.0,0.0,0.0,0.0,0.0,0.0,0.0,0.0,0.0,0.0,0.0,0.0,0.0,0.0,0.0,0.0,0.0,0.0,0.0,0.0,0.0,0.0,0.0,0.0,0.0,0.0,0.0,0.0,6.4041,6.4865,6.6216,0.0,0.0,0.0,0.0,0.0,0.0,0.0,0.0,0.0,0.0,6.6974,6.7174,6.8392,6.9171,6.8917,6.9307,6.9404,6.8857,6.9743,7.0146,6.9265,0.0,0.0,0.0,0.0,0.0,0.0,0.0,0.0,0.0,0.0,0.0,0.0,0.0,0.0,0.0,0.0,0.0,0.0,0.0,0.0,0.0,0.0,0.0,0.0,0.0,0.0,0.0,0.0,0.0,0.0,5.7562,0.0,0.0,0.0,0.0,0.0,0.0,0.0,0.0,0.0,0.0,0.0,0.0,0.0,0.0,0.0,0.0,0.0,0.0,0.0,0.0,0.0,0.0,0.0,6.8798,6.9486,6.9926,6.9926,7.0,6.9963,6.9963,7.0,7.0,6.9963,0.0,0.0,0.0,0.0,0.0,0.0,0.0,0.0,0.0,0.0,0.0,0.0,0.0,0.0,0.0,0.0,0.0,0.0,0.0,0.0,0.0,0.0,0.0,0.0,0.0,0.0,6.5288,6.5985,6.7086,0.0,0.0,0.0,0.0,0.0,0.0,0.0,0.0,0.0,0.0,6.8595,6.8895,6.7853,6.8408,6.9068,6.9009,6.9619,7.0353,7.1087,7.127,7.1527,0.0,0.0,0.0,0.0,0.0,0.0,0.0,0.0,0.0,0.0,0.0,0.0,0.0,0.0,0.0,0.0,0.0,0.0,0.0,0.0,0.0,0.0,0.0,0.0,0.0,0.0,0.0,5.7806,5.8365,0.0,0.0,0.0,0.0,0.0,0.0,0.0,0.0,0.0,0.0,0.0,6.4443,6.4869,0.0,0.0,0.0,0.0,0.0,0.0,0.0,0.0,0.0,0.0,0.0,0.0,6.9563,6.9807,6.9982,7.011,7.011,7.011,7.011,7.011,7.011,7.011,7.011,0.0,0.0,0.0,0.0,0.0,0.0,0.0,0.0,0.0,0.0,0.0,0.0,0.0,0.0,0.0,0.0,0.0,0.0,0.0,0.0,0.0,0.0,0.0,0.0,0.0,6.732,0.0,0.0,0.0,0.0,0.0,0.0,0.0,0.0,0.0,0.0,0.0,6.7671,6.8529,6.9057,6.9365,6.9536,7.0743,7.177,0.0,0.0,0.0,0.0,0.0,0.0,0.0,0.0,0.0,0.0,0.0,0.0,0.0,0.0,7.0543,7.0323,7.0537,7.0872,7.1127,0.0,0.0,0.0,0.0,0.0,0.0,0.0,0.0,0.0,0.0,0.0,0.0,0.0,0.0,0.0,0.0,6.1198,0.0,0.0,0.0,0.0,0.0,0.0,0.0,0.0,6.5221,6.6162,6.6916,6.721,6.7898,0.0,6.8632,6.7473,0.0,0.0,0.0,0.0,0.0,0.0,0.0,0.0,7.0698,7.0735,7.1148,7.1358,7.1358,7.1615,7.1762,7.1762,7.1762,7.1651,7.1358,7.1358,7.0844,0.0,0.0,0.0,0.0,0.0,0.0,0.0,0.0,0.0,0.0,0.0,0.0,0.0,0.0,0.0,0.0,0.0,0.0,0.0,0.0,0.0,0.0,0.0,6.8949,0.0,0.0,0.0,0.0,0.0,0.0,0.0,0.0,0.0,7.0266,6.9576,6.9349,6.9888,7.0485,7.0897,7.09,0.0,0.0,0.0,0.0,0.0,0.0,0.0,7.3192,7.2714,7.392,7.4903,7.4955,7.4955,7.4955,7.4955,0.0,0.0,7.2422,7.2569,7.3083,7.3634,7.3744,7.3729,7.37,7.3939,7.4095,0.0,0.0,0.0,0.0,0.0,0.0,0.0,0.0,6.2158,6.2033,0.0,6.3579,0.0,0.0,0.0,0.0,0.0,6.799,0.0,0.0,6.8958,6.9302,6.7994,6.8752,6.9187,6.9235,6.8489,6.8489,6.9295,6.9959,0.0,0.0,0.0,0.0,0.0,0.0,7.1618,7.1692,7.3023,7.3707,7.3722,7.4441,7.4867,7.483,7.483,7.4478,7.3758,7.3685,7.301,7.149,7.1417,0.0,0.0,0.0,0.0,0.0,0.0,0.0,0.0,0.0,0.0,0.0,0.0,0.0,0.0,0.0,0.0,0.0,0.0,0.0,0.0,7.022,0.0,0.0,0.0,0.0,0.0,0.0,0.0,0.0,0.0,0.0,7.0799,7.113,7.1559,7.1536,0.0,0.0,0.0,0.0,7.3479,7.2179,7.2613,7.3425,7.4224,7.3567,7.3468,7.5006,0.0,0.0,7.7105,7.7362,7.7362,7.7399,7.7949,7.7635,7.4529,7.4074,7.4529,7.5909,7.624,7.6497,7.7142,7.7185,7.7237,6.4742,0.0,0.0,0.0,0.0,6.414,6.4905,6.5973,6.6204,6.6417,6.6628,6.7287,0.0,0.0,0.0,0.0,0.0,0.0,6.8128,6.8311,7.0096,7.1013,7.1174,7.2518,7.3208,7.3237,7.2951,7.2987,7.3251,7.3428,7.3066,7.2263,0.0,0.0,0.0,0.0,7.4236,7.4086,7.4404,7.4551,7.4551,7.4793,7.4903,7.4903,7.4903,7.4793,7.4573,7.4551,7.4331,7.3913,7.3876,0.0,0.0,0.0,0.0,0.0,0.0,0.0,0.0,0.0,0.0,0.0,0.0,0.0,0.0,0.0,0.0,0.0,0.0,0.0,7.1725,7.2863,7.3303,0.0,0.0,0.0,0.0,0.0,0.0,0.0,0.0,0.0,7.3969,7.3194,7.2708,0.0,0.0,7.4253,7.3811,7.4542,7.5342,7.5974,0.0,0.0,0.0,7.7102,7.6851,7.6741,7.7151,7.7892,7.8919,7.9103,7.9066,7.9066,7.9302,7.9119,7.8348,7.8054,7.8201,7.8641,7.8751,7.8788,7.9029,7.9066,7.9066,7.0181,6.925,6.7198,6.6473,6.6659,6.7081,6.7813,6.8808,6.91,6.9287,6.9449,7.0403,7.0183,6.9155,6.9793,0.0,0.0,0.0,7.0807,7.1307,7.2261,7.2995,7.3487,7.4441,7.505,7.5344,7.538,7.5527,7.5858,7.5933,7.5757,7.5283,0.0,0.0,7.5495,7.5369,7.5388,7.5581,7.5749,7.6004,7.635,7.668,7.6827,7.6864,7.6864,7.6533,7.5894,7.5858,7.5564,7.494,7.4903,7.4683,0.0,0.0,0.0,0.0,0.0,0.0,0.0,0.0,0.0,0.0,0.0,7.2018,0.0,0.0,0.0,0.0,7.1725,7.1923,7.2899,7.3854,0.0,0.0,0.0,0.0,0.0,0.0,0.0,7.574,7.6019,7.6265,7.6351,7.5846,7.5259,7.4575,7.5495,7.6171,7.5893,0.0,7.7096,7.7732,7.7312,7.7371,7.8569,7.8713,7.8578,7.8332,7.8993,7.9653,8.0167,8.0498,8.0734,8.0755,8.0771,8.0734,8.0771,8.0734,8.0624,8.0314,8.0293,8.0351,8.0645,8.0755,8.0771,7.5087,7.4682,6.9984,6.8187,6.8544,6.9477,7.0084,7.0513,7.127,7.116,7.066,7.2789,7.2973,7.1674,7.3193,0.0,7.3927,7.4735,7.505,7.5087,7.516,7.5197,7.5197,7.527,7.5674,7.6387,7.6387,7.679,7.7472,7.7699,7.8158,7.8799,7.6626,7.5557,7.565,7.5572,7.5868,7.6575,7.7197,7.7892,7.8699,7.9412,7.9816,7.9779,7.9816,7.9066,7.7582,7.7509,7.6812,7.538,7.527,7.527,7.5212,0.0,0.0,0.0,0.0,0.0,0.0,0.0,0.0,0.0,0.0,0.0,0.0,0.0,0.0,0.0,7.4324,0.0,7.4089,7.4147,0.0,0.0,0.0,7.5639,7.6486,7.6633,7.7024,7.7873,0.0,0.0,7.7983,0.0,7.8566,7.698,7.7995,7.8697,7.8057,7.8484,7.8682,7.8264,7.8079,7.8374,7.9273,7.933,7.9427,7.9905,8.0608,8.1048,8.1122,8.1636,8.2113,8.2076,8.2186,8.215,8.215,8.2076,8.1966,8.1232,8.1122,8.1305,8.1893,8.2039,8.2039,7.6738,7.6613,7.543,7.4251,7.3244,7.3457,7.3641,7.3766,7.3949,7.3949,7.3802,7.4368,7.439,7.4096,7.5102,7.5542,7.5579,7.6335,7.6738,7.6775,7.7414,7.7708,7.7745,7.8332,7.8751,7.8898,7.8935,7.9008,7.9176,7.926,7.9412,7.9682,7.9093,7.8595,7.8175,7.8714,7.8735,7.8246,7.8974,7.9427,7.9486,7.9706,7.9816,7.9816,7.9816,7.9633,7.9213,7.9229,7.9045,7.8662,7.8641,7.8332,7.7745,7.8229,0.0,0.0,0.0,0.0,0.0,0.0,0.0,0.0,0.0,7.4361,7.4361,0.0,7.5689,0.0,7.5757,7.689,7.7393,7.798,0.0,0.0,7.8148,7.852,7.8253,7.8692,7.9164,7.957,7.9532,7.9455,7.9455,8.0208,8.0514,7.9989,7.9882,7.9813,7.9637,7.9685,7.9888,8.025,8.0283,8.0535,8.125,8.1422,8.1427,8.1615,8.1782,8.1893,8.1946,8.2039,8.2186,8.2186,8.2186,8.2186,8.2223,8.2186,8.215,8.1966,8.1929,8.1966,8.215,8.2186,8.2186,7.8405,7.8405,7.8442,7.7892,7.7011,7.6298,7.5968,7.5968,7.5968,7.6188,7.6555,7.6937,7.7084,7.7121,7.7561,7.776,7.7781,7.8222,7.8405,7.8442,7.8883,7.914,7.9155,7.9596,8.0,8.0314,8.0314,8.0498,8.0881,8.0881,8.0913,8.0971,8.0971,8.0845,8.0506,8.0339,8.0154,8.0026,8.0686,8.1003,8.0881,8.0881,8.0913,8.0956,8.0956,8.084,8.0551,8.0182,7.9998,7.9998,7.963,7.921,7.882,7.9341,7.9135,0.0,0.0,0.0,0.0,0.0,0.0,0.0,0.0,0.0,0.0,0.0,7.7334,0.0,7.7524,7.8204,7.8568,7.8993,7.9082,7.8662,7.9286,7.9774,7.9779,8.0121,8.0525,8.1029,8.1019,8.0992,8.0992,8.136,8.1732,8.2003,8.1817,8.1487,8.1155,8.1003,8.1287,8.2059,8.2125,8.2333,8.3141,8.3287,8.3287,8.3251,8.3287,8.3251,8.3251,8.3251,8.3287,8.3287,8.3251,8.3251,8.3287,8.3287,8.3287,8.3287,8.3251,8.3141,8.281,8.303,8.3251,8.011,8.011,8.011,8.011,8.0,7.8537,7.7803,7.7619,7.7619,7.8023,7.8772,7.9486,7.9816,7.9816,7.9926,7.9963,7.9963,8.0036,8.011,8.011,8.022,8.0257,8.0241,8.0367,8.0791,8.1452,8.1489,8.1819,8.248,8.248,8.2533,8.2549,8.2549,8.2594,8.2697,8.1526,8.1197,8.1788,8.2429,8.2675,8.2529,8.2582,8.2589,8.2571,8.2586,8.2281,8.1677,8.0923,8.0554,8.0569,7.9852,7.9468,7.9453,7.9601,7.9378,0.0,7.873,0.0,0.0,0.0,0.0,0.0,0.0,0.0,0.0,7.8829,7.9195,8.0047,7.9391,7.8951,7.9029,7.9066,7.9066,7.9066,7.969,8.044,8.1195,8.1289,8.1636,8.2406,8.2517,8.2517,8.2533,8.2517,8.2774,8.3344,8.3471,8.321,8.2663,8.2533,8.2753,8.3454,8.3528,8.3711,8.4315,8.4499,8.4535,8.4535,8.4499,8.4609,8.4499,8.4646,8.4719,8.4719,8.4829,8.4903,8.4903,8.4903,8.4903,8.4903,8.5013,8.4792,8.3875,8.4005,8.4572,8.1746,8.1762,8.1762,8.1746,8.1709,8.1379,8.0534,7.9339,7.9323,7.9396,7.9596,7.9743,7.9816,7.9853,8.0461,8.0791,8.0828,8.1452,8.1762,8.1746,8.2443,8.272,8.2774,8.3398,8.3765,8.3911,8.3911,8.3985,8.4132,8.4132,8.4198,8.4293,8.433,8.4428,8.4569,0.0,0.0,0.0,8.4088,8.4432,8.4416,8.4493,8.4241,8.3646,8.3609,0.0,8.2511,8.2311,8.2253,8.2253,8.2105,0.0,0.0,0.0,0.0,0.0,0.0,0.0,0.0,0.0,0.0,0.0,8.1129,8.0449,7.909,7.8965,7.979,8.1676,8.1182,8.0935,8.1468,8.1525,8.1489,8.1525,8.1636,8.2039,8.283,8.2941,8.3234,8.4058,8.4132,8.4132,8.4095,8.4132,8.4205,8.4425,8.4389,8.4315,8.4242,8.4168,8.4205,8.4352,8.4535,8.4499,8.4572,8.4719,8.4903,8.4609,8.4609,8.4682,8.4829,8.527,8.56,8.5673,8.6114,8.6537,8.6537,8.6554,8.6554,8.6537,8.7031,8.6885,8.4866,8.4535,8.4609,8.3361,0.0,8.3361,8.3361,0.0,8.3361,8.292,8.2113,8.1305,8.0975,8.1028,8.1415,8.1599,8.1636,8.2443,8.2774,8.281,8.3214,8.3398,8.3398,8.3801,8.3985,8.4022,8.4425,8.4609,8.4609,8.4609,8.4609,8.4609,8.5013,8.521,8.5294,8.5681,8.6136,8.6642,8.701,8.627,8.4362,8.4702,8.4825,8.4759,8.4805,8.4686,8.4362,0.0,0.0,0.0,0.0,0.0,0.0,0.0,0.0,0.0,0.0,0.0,8.2592,8.2987,8.324,8.3145,8.3145,8.3113,8.3033,8.3033,8.2202,8.0254,8.0729,8.166,8.2757,8.2851,8.3002,8.3341,8.3398,8.3398,8.3398,8.3361,8.3581,8.3911,8.3968,8.4168,8.4499,8.4609,8.4719,8.5123,8.5196,8.5563,8.6224,8.6371,8.6518,8.6775,8.593,8.5416,8.6224,8.6775,8.6978,8.6995,8.6978,8.6941,8.6978,8.6978,8.6978,8.6978,8.7288,8.7582,8.7619,8.7932,8.8189,8.8189,8.8189,8.8189,8.8189,8.8536,8.8445,8.7161,8.6958,8.6978,8.4609,8.4609,8.4609,8.4609,8.4609,8.4609,8.4682,8.4719,0.0,0.0,0.0,8.3324,8.3601,8.3675,8.4298,8.4609,8.4609,8.4609,8.4682,8.4792,8.4939,8.5123,8.5233,8.538,8.5453,8.5453,8.5453,8.5453,8.549,8.6114,8.6407,8.6518,8.7105,8.7748,8.8426,8.9069,8.8148,8.5749,8.5651,8.5601,8.5504,8.5538,8.5531,8.5496,8.5496,8.5488,8.5524,8.4896,8.4859,8.5466,8.4896,8.4458,8.4315,8.4922,8.4573,8.3124,8.3603,8.3945,8.3778,8.3926,8.4264,8.4976,8.5013,8.4108,8.196,8.2913,8.3601,8.3601,8.4205,8.4646,8.4792,8.4792,8.4866,8.5013,8.5049,8.5086,8.5233,8.5233,8.538,8.5416,8.56,8.571,8.6407,8.6518,8.6885,8.8059,8.828,8.8793,8.929,8.7912,8.6995,8.8059,8.8629,8.9216,8.9326,8.9216,8.94,8.9106,8.9363,8.962,8.9657,8.984,9.0024,9.006,9.0134,9.0317,9.028,9.0391,9.0244,9.0244,9.028,9.0244,9.0244,9.028,9.0024,8.4609,8.4609,8.4609,8.4609,8.4609,8.4609,8.4976,8.5527,8.4646,8.4278,8.4278,8.4389,8.4425,8.4425,8.4535,8.4609,8.4609,8.4609,8.4976,0.0,8.6334,8.7031,8.7729,8.8409,8.8739,8.8739,8.8702,8.8739,8.8739,8.8812,8.8886,8.8886,8.8996,8.9143,8.9216,8.9326,8.9197,8.8774,8.8912,8.9018,8.9001,8.9155,8.8871,8.8223,8.8132,8.7817,8.7185,8.7058,8.7038,8.7148,8.7075,8.664,8.5828,8.5902,8.5467,8.4435,8.4455,8.4512,8.4496,8.5083,8.5854,8.6591,8.6647,8.593,8.4312,8.4295,8.4425,8.4462,8.4682,8.4903,8.549,8.5673,8.6004,8.6537,8.6664,8.6921,8.7545,8.7582,8.7839,8.8445,8.8739,8.8666,8.8849,8.8886,8.8996,8.9216,8.962,8.984,9.0849,9.0005,8.9069,8.9179,8.9326,8.94,8.973,8.9436,8.9693,8.94,9.0134,9.0611,9.0647,9.162,9.2299,9.2537,9.2831,9.3272,9.3382,9.3602,9.3308,9.3235,9.3198,9.3308,9.3235,9.3272,9.2574,8.7198,8.7198,8.7198,8.7198,8.7198,8.7198,8.7435,8.7711,8.7399,8.6701,8.6004,8.6371,8.6554,8.6591,8.7014,8.7198,8.7198,8.7198,8.7381,8.7766,8.8115,8.8482,8.8849,8.9253,8.94,8.94,8.94,8.94,8.9436,8.984,9.0262,9.0739,9.1583,9.206,9.206,9.206,9.206,9.2024,9.037,8.9523,8.9523,8.9611,8.9479,8.9057,8.9057,8.891,8.8542,8.8542,8.8542,8.8505,8.8542,8.8324,8.7924,8.787,8.7705,8.7252,8.7198,8.7198,8.7215,8.7528,8.7895,8.8262,8.8299,8.8225,8.7912,8.7068,8.6554,8.6554,8.6921,8.7362,8.7729,8.7766,8.7912,8.8262,8.8299,8.8445,8.8776,8.8867,8.9143,8.9877,9.006,9.0391,9.1308,9.1418,9.162,9.195,9.206,9.2391,9.3015,9.2537,9.206,9.206,9.206,9.206,9.2024,9.206,9.2042,9.206,9.2354,9.2574,9.2611,9.3382,9.3675,9.3749,9.4079,9.4263,9.4336,9.4299,9.4299,9.4299,9.4299,9.4299,9.4299,9.4299,9.3712,8.94,8.94,8.94,8.94,8.9436,8.9583,8.9657,8.9693,9.006,8.9546,8.8482,8.85,8.8463,8.8536,8.9106,8.9363,8.94,8.94,8.9473,8.9693,8.9877,9.0024,9.0244,9.0391,9.0501,9.0501,9.0501,9.0501,9.0574,9.1143,9.173,9.2427,9.3639,9.4299,9.4299,9.4299,9.4299,9.4153,9.1803,9.0501,9.0501,9.0501,9.0501,9.0501,9.0537,9.0501,9.0501,9.0501,9.0501,9.0501,9.0501,9.0427,9.0244,9.0244,9.0134,8.9987,8.995,9.006,9.0207,9.0244,9.0317,9.0501,9.0501,9.0758,9.1253,9.0335,8.9381,8.916,8.951,8.995,9.017,9.0244,9.028,9.0464,9.0501,9.0611,9.0537,9.0501,9.0721,9.1326,9.1436,9.1987,9.3015,9.3382,9.3529,9.3969,9.4299,9.4336,9.4483,9.4556,9.4593,9.474,9.4556,9.4153,9.4299,9.4189,9.4116,9.4299,9.441,9.4373,9.4483,9.463,9.485,9.4923,9.4887,9.4997,9.4887,9.4887,9.4923,9.4997,9.5034,9.4923,9.496,9.496,9.4666,8.9436,8.94,8.9546,8.94,8.9619,9.0261,9.0627,9.0811,9.2079,9.2703,9.228,9.0262,8.9398,8.929,8.9491,8.9582,8.9546,8.9436,8.9877,9.0574,9.1253,9.1987,9.2684,9.3418,9.3859,9.3749,9.3675,9.3529,9.3565,9.3786,9.3969,9.4042,9.4226,9.4373,9.4336,9.4336,9.4336,9.4299,9.4006,9.3859,9.3859,9.3859,9.3822,9.3859,9.3822,9.3859,9.3639,9.3822,9.3822,9.3859,9.3749,9.3455,9.2831,9.2758,9.2427,9.1748,9.1675,9.2005,9.2648,9.2758,9.2978,9.3749,9.3675,9.3712,9.3859,9.3749,9.3051,9.1913,9.1546,9.1877,9.2648,9.2684,9.2831,9.3345,9.3492,9.3859,9.3639,9.3822,9.3896,9.3951,9.3749,9.4042,9.4189,9.4299,9.4299,9.452,9.4593,9.4777,9.5254,9.5401,9.5621,9.5914,9.5327,9.4483,9.4446,9.4299,9.452,9.4483,9.496,9.529,9.5511,9.5914,9.6428,9.6025,9.6282,9.6245,9.6318,9.6465,9.6355,9.6135,9.6208,9.6392,9.6465,9.6318,9.5878,9.2317,9.2317,9.2317,9.255,9.3014,9.3797,9.4146,9.422,9.4877,9.5176,9.5064,9.4071,9.3157,9.2335,9.2759,9.2705,9.2336,9.2317,9.2464,9.2794,9.3125,9.3455,9.3822,9.4116,9.4299,9.4299,9.4299,9.4299,9.4373,9.4777,9.4997,9.507,9.5474,9.5694,9.5731,9.5731,9.5731,9.5694,9.5731,9.5694,9.5621,9.4777,9.4299,9.4299,9.4299,9.4299,9.4299,9.4299,9.4299,9.4299,9.4299,9.4153,9.3822,9.3786,9.3675,9.3364,9.3327,9.3474,9.3786,9.3786,9.3932,9.4299,9.4299,9.4483,9.496,9.5034,9.485,9.4666,9.3822,9.3455,9.3786,9.3822,9.3969,9.4226,9.4299,9.4299,9.4299,9.4299,9.4446,9.4923,9.4997,9.5217,9.5584,9.5731,9.5731,9.5731,9.5694,9.5841,9.6171,9.6208,9.6355,9.6539,9.6098,9.5804,9.5694,9.5731,9.5694,9.5731,9.5988,9.6208,9.6245,9.6428,9.6685,9.6722,9.6722,9.6722,9.6612,9.6722,9.6722,9.6722,9.6722,9.6722,9.6722,9.6722,9.6318,9.4736,9.4911,9.4928,9.5247,9.5767,9.6331,9.6587,9.6625,9.6837,9.6913,9.6979,9.7385,9.6855,9.5726,9.5709,9.5404,9.4998,9.4928,9.4928,9.4965,9.515,9.5279,9.5261,9.5521,9.5595,9.5542,9.542,9.5276,9.5368,9.6081,9.6465,9.6577,9.7058,9.7317,9.7354,9.7354,9.7317,9.7335,9.7317,9.7354,9.7187,9.6169,9.5383,9.4999,9.496,9.496,9.496,9.496,9.496,9.496,9.496,9.496,9.496,9.496,9.496,9.496,9.496,9.496,9.496,9.496,9.496,9.496,9.496,9.518,9.5694,9.5822,9.6098,9.6428,9.5621,9.4979,9.496,9.496,9.496,9.496,9.496,9.496,9.4997,9.496,9.5217,9.5712,9.5841,9.6025,9.6539,9.6649,9.6575,9.6612,9.6649,9.6722,9.6722,9.6685,9.6685,9.6722,9.6685,9.6649,9.6722,9.6575,9.6722,9.6722,9.6649,9.6649,9.6722,9.6722,9.6722,9.6722,9.6722,9.6722,9.6722,9.6722,9.6722,9.6722,9.6722,9.6722,9.6722,9.6722,9.6722,9.5798,9.6493,9.6512,9.6588,9.6583,9.6704,9.6718,9.6966,9.7512,9.7809,9.8076,9.9328,9.9528,9.8647,9.7352,9.6555,9.6507,9.6511,9.6482,9.6557,9.725,9.7624,9.7728,9.8392,9.8687,9.8313,9.7722,9.7465,9.759,9.8355,9.8882,9.8786,9.8734,9.8846,9.8787,9.8742,9.8876,9.8742,9.8727,9.8831,9.8846,9.8733,9.7899,9.6713,9.6577,9.6486,9.6502,9.6539,9.6539,9.6575,9.6465,9.6539,9.6539,9.6539,9.6502,9.6502,9.6539,9.6539,9.6502,9.6428,9.6465,9.6539,9.6392,9.6539,9.6502,9.6539,9.6612,9.6722,9.6612,9.6502,9.6575,9.6392,9.6392,9.6428,9.6502,9.6465,9.6502,9.6355,9.6575,9.6612,9.6539,9.6575,9.6685,9.6722,9.6722,9.6722,9.6722,9.6722,9.6722,9.6722,9.6722,9.6722,9.6722,9.6722,9.6722,9.6722,9.6722,9.6722,9.6722,9.6722,9.6722,9.6722,9.6722,9.6722,9.6722,9.6722,9.6722,9.6722,9.6722,9.6722,9.6722,9.6722,9.6722,9.6722,9.6722,9.7868,9.8187,9.8676,9.8909,9.8947,9.9388,9.9598,9.9637,9.9893,10.0035,10.0107,10.0678,10.0722,10.0444,9.9893,9.9073,9.8187,9.813,9.813,9.8168,9.8418,9.8569,9.8607,9.8908,9.9022,9.8964,9.8727,9.8575,9.8591,9.889,9.9022,9.9022,9.9022,9.9022,9.9022,9.9022,9.9022,9.9022,9.9022,9.9022,9.9103,9.9022,9.8712,9.8188,9.7663,9.7173,9.6741,9.6722,9.6722,9.6722,9.6722,9.6722,9.6722,9.6722,9.6722,9.6722,9.6722,9.6722,9.6722,9.6722,9.6722,9.6722,9.6722,9.6759,9.6722,9.6722,9.6906,9.7309,9.7456,9.764,9.7933,9.7346,9.6722,9.6722,9.6722,9.6759,9.6722,9.6722,9.6722,9.6722,9.6722,9.6722,9.6795,9.6722,9.6722,9.6722,9.6722,9.6759,9.6722,9.6722,9.6795,9.6832,9.7126,9.7475,9.7456,9.6979,9.6722,9.6722,9.6722,9.6759,9.6795,9.6906,9.6942,9.7052,9.6979,9.6979,9.7089,9.7052,9.7016,9.6942,9.6942,9.7052,9.6722,9.7052,9.6942,9.9758,9.9835,10.0316,10.0566,10.0611,10.1091,10.1279,10.1279,10.1279,10.1279,10.1279,10.1279,10.1279,10.1279,10.1279,10.0765,9.9809,9.9733,9.9758,9.9758,9.9758,9.9758,9.9758,9.9758,9.9758,9.9771,9.9758,9.9653,9.9428,9.9615,9.9745,9.9771,9.9758,9.9758,9.9796,9.9986,10.0189,10.0176,10.0417,10.062,10.0569,10.0607,10.045,10.0193,9.9667,9.8614,9.7174,9.7046,9.6915,9.6743,9.6722,9.6722,9.6722,9.6722,9.6832,9.7052,9.7089,9.7199,9.7456,9.7493,9.7493,9.7493,9.7493,9.7493,9.7493,9.7493,9.775,9.8154,9.83,9.8557,9.8721,9.8117,9.7493,9.7493,9.7493,9.7456,9.7493,9.7493,9.753,9.7566,9.7603,9.753,9.7456,9.7493,9.753,9.7456,9.7493,9.7493,9.7493,9.7456,9.7493,9.753,9.797,9.8227,9.83,9.797,9.7823,9.7787,9.7603,9.7419,9.7273,9.7346,9.7346,9.7419,9.7419,9.7456,9.7456,9.7456,9.7419,9.7383,9.7676,9.797,9.775,9.7603,9.7603,10.124,10.1161,10.1269,10.123,10.122,10.1259,10.1279,10.1279,10.1279,10.1279,10.1279,10.1279,10.1279,10.1279,10.1279,10.124,10.1111,10.1032,10.1042,10.1052,10.1111,10.1121,10.1101,10.1032,10.1032,10.1091,10.122,10.0847,10.0283,10.0848,10.1206,10.1287,10.1331,10.1346,10.1345,10.2012,10.2468,10.2543,10.3049,10.3562,10.3856,10.3514,10.3114,10.2621,10.2448,10.1057,9.8167,9.8013,9.7785,9.7137,9.7042,9.6835,9.7154,9.7154,9.7242,9.8001,9.7995,9.8322,9.8929,9.8927,9.8831,9.8831,9.8941,9.8831,9.8778,9.8831,9.8905,9.9071,9.9108,9.9181,9.9255,9.9181,9.9035,9.9071,9.8814,9.8795,9.8905,9.9015,9.9052,9.8905,9.8831,9.9015,9.9015,9.8831,9.8741,9.8778,9.8814,9.8758,9.8704,9.8704,9.8961,9.8961,9.8998,9.9071,9.9108,9.9108,9.9108,9.9108,9.8851,9.8631,9.8484,9.8447,9.8374,9.8354,9.8354,9.8354,9.8318,9.8374,9.8484,9.8521,9.8758,9.8741,9.8557,9.8411,9.8631,10.1279,10.1279,10.1279,10.1279,10.1279,10.1279,10.1279,10.1279,10.1279,10.1279,10.1279,10.1279,10.1279,10.1279,10.1279,10.1279,10.1279,10.1279,10.1279,10.1279,10.1279,10.1279,10.1279,10.1279,10.1279,10.1279,10.1279,10.121,10.1165,10.1825,10.2212,10.2289,10.2789,10.3097,10.3058,10.3366,10.3482,10.352,10.3751,10.3866,10.3905,10.3905,10.3775,10.3573,10.3541,10.27,10.1253,10.0638,10.0266,9.9948,9.998,10.0018,9.9964,10.0018,10.013,10.0253,9.9848,9.9625,9.9776,9.9441,9.9164,9.9125,9.9125,9.9088,9.9088,9.9125,9.9382,9.9805,9.9952,10.0099,10.0613,10.076,10.0246,9.9218,9.9088,9.9181,9.9255,9.9162,9.9088,9.9088,9.9088,9.9088,9.9125,9.9125,9.9255,9.9198,9.9198,9.9198,9.9162,9.9292,9.9088,9.9088,9.9419,9.9916,9.9952,10.0099,10.0283,10.0062,9.9805,9.9622,9.9512,9.9475,9.9402,9.9365,9.9328,9.9272,9.9235,9.9272,9.9402,9.9292,9.9218,9.9145,9.9088,9.9235,9.9475,10.1279,10.1279,10.1279,10.1279,10.1279,10.1279,10.1279,10.1279,10.1279,10.1279,10.1279,10.1279,10.1279,10.1279,10.1279,10.1279,10.1279,10.1279,10.1279,10.1279,10.1279,10.1279,10.1279,10.1279,10.151,10.1741,10.1789,10.1981,10.2289,10.2789,10.3097,10.3212,10.3635,10.3866,10.3943,10.4212,10.4338,10.4405,10.4674,10.4828,10.4828,10.4828,10.4828,10.4828,10.4828,10.4575,10.4067,10.3566,10.2728,10.1749,10.1504,10.1504,10.1504,10.1437,10.1617,10.1777,10.1521,10.1218,10.1143,10.0833,10.0287,10.0071,9.9989,9.9989,9.9989,9.9989,10.0283,10.065,10.076,10.0943,10.1367,10.1477,10.098,10.0172,10.0062,9.9989,9.9989,9.9989,10.0026,10.0099,10.0062,9.9989,9.9989,9.9989,9.9989,9.9989,9.9989,9.9989,9.9989,10.0026,9.9952,10.0026,10.0393,10.0723,10.076,10.1037,10.1404,10.1073,10.067,10.0503,10.0393,10.0393,10.0356,10.0393,10.0393,10.0429,10.0393,10.0283,10.0319,10.0026,9.9842,10.0136,10.0319,10.0246,10.0393,10.1279,10.1279,10.1279,10.1279,10.1279,10.1279,10.1279,10.1279,10.1279,10.1356,10.1433,10.151,10.151,10.151,10.1741,10.1702,10.1471,10.1664,10.1702,10.1664,10.1664,10.1664,10.1548,10.1664,10.2097,10.2597,10.2674,10.3058,10.3597,10.3828,10.3943,10.3982,10.4135,10.4097,10.4405,10.4838,10.5174,10.529,10.5905,10.6213,10.6251,10.628,10.6241,10.6241,10.6203,10.6144,10.6015,10.5853,10.4747,10.2294,10.2214,10.228,10.1949,10.1801,10.2436,10.3071,10.2921,10.2859,10.2843,10.245,10.213,10.1503,10.132,10.1538,10.1456,10.1407,10.1615,10.1916,10.1951,10.1947,10.2077,10.2031,10.1934,10.1661,10.1494,10.1457,10.1624,10.1587,10.142,10.142,10.1551,10.1477,10.1237,10.1294,10.1294,10.1294,10.1257,10.1184,10.1184,10.1053,10.1367,10.1367,10.122,10.1184,10.1147,10.122,10.1514,10.1404,10.111,10.1053,10.098,10.1017,10.1053,10.1127,10.1164,10.1274,10.131,10.1053,10.1017,10.0907,10.1073,10.1441,10.1367,10.1073,10.0943,10.1279,10.1279,10.1279,10.1279,10.1279,10.1279,10.1317,10.1317,10.1317,10.1741,10.2135,10.2251,10.2597,10.3135,10.3174,10.3212,10.3097,10.3135,10.3212,10.3212,10.3212,10.2828,10.2558,10.2904,10.3289,10.352,10.3558,10.3674,10.3943,10.452,10.4751,10.4789,10.5366,10.5674,10.5828,10.5905,10.6059,10.6059,10.6251,10.6395,10.6395,10.6395,10.6395,10.6395,10.6395,10.6395,10.6395,10.6395,10.6169,10.5299,10.5116,10.5116,10.4932,10.4882,10.4924,10.5068,10.4774,10.4511,10.4297,10.3416,10.2675,10.2352,10.2048,10.1778,10.2352,10.2407,10.2991,10.3833,10.4239,10.4413,10.4833,10.4515,10.3982,10.3288,10.2964,10.2737,10.2946,10.2742,10.2375,10.2338,10.1898,10.1698,10.1661,10.1661,10.1661,10.1661,10.1661,10.1661,10.1844,10.1771,10.1918,10.1624,10.1477,10.1477,10.1477,10.1477,10.1514,10.1514,10.1441,10.1477,10.1404,10.133,10.1367,10.1441,10.1367,10.1441,10.1441,10.1367,10.1477,10.1514,10.1514,10.1514,10.1514,10.133,10.133,10.1279,10.1356,10.1664,10.1818,10.1894,10.2212,10.2404,10.2404,10.2404,10.2674,10.3097,10.3135,10.3405,10.3876,10.3866,10.3866,10.3905,10.3905,10.3866,10.3943,10.4212,10.3905,10.3443,10.3712,10.4059,10.4405,10.4415,10.4636,10.4982,10.5443,10.5636,10.5713,10.6126,10.6395,10.628,10.6395,10.6395,10.6395,10.6395,10.6395,10.6395,10.6395,10.6395,10.6395,10.6395,10.6395,10.6395,10.6395,10.6395,10.6346,10.6356,10.6395,10.6395,10.6395,10.6395,10.6385,10.5958,10.5565,10.5116,10.4218,10.379,10.3701,10.3268,10.3542,10.4129,10.4301,10.4876,10.5486,10.5716,10.5996,10.6274,10.6009,10.5744,10.5523,10.508,10.4576,10.4064,10.3439,10.3256,10.3072,10.2815,10.2505,10.2526,10.2546,10.2526,10.2558,10.2669,10.2669,10.2632,10.2505,10.2375,10.2265,10.2301,10.2485,10.2522,10.2522,10.2448,10.2338,10.2228,10.2191,10.1844,10.1771,10.1661,10.1661,10.1587,10.1587,10.1698,10.1698,10.1514,10.1514,10.1514,10.1587,10.1624,10.1844,10.1808,10.1433,10.151,10.2366,10.2751,10.2866,10.3558,10.3712,10.3828,10.3712,10.3828,10.3982,10.402,10.4174,10.4135,10.4482,10.4212,10.4251,10.4405,10.4328,10.4559,10.4866,10.4866,10.4366,10.4405,10.4751,10.5174,10.5251,10.5597,10.5982,10.628,10.6356,10.628,10.6356,10.6395,10.6395,10.6395,10.6395,10.6395,10.6395,10.6395,10.6395,10.6395,10.6395,10.6433,10.6626,10.679,10.6818,10.678,10.6828,10.6703,10.651,10.6395,10.6395,10.6433,10.6587,10.6703,10.6717,10.6474,10.5825,10.5714,10.5475,10.5437,10.5339,10.5717,10.6186,10.636,10.6541,10.7122,10.6888,10.7143,10.7252,10.7078,10.7297,10.7553,10.7682,10.6768,10.5111,10.4336,10.43,10.4263,10.4286,10.4172,10.4152,10.4152,10.4179,10.417,10.4054,10.3781,10.3623,10.3422,10.3415,10.3403,10.3513,10.3696,10.3733,10.3696,10.3623,10.3513,10.3366,10.3146,10.2505,10.2285,10.2028,10.1991,10.2395,10.2395,10.2212,10.2065,10.1918,10.2028,10.2395,10.2175,10.1918,10.2322,10.2432,10.2327,10.2404,10.3251,10.3635,10.3635,10.3828,10.3905,10.3943,10.3943,10.4366,10.4751,10.4838,10.5213,10.5779,10.5703,10.5867,10.5713,10.5713,10.5867,10.5905,10.5982,10.6059,10.579,10.5751,10.5905,10.6059,10.6097,10.6213,10.6356,10.6395,10.6395,10.6395,10.6395,10.6395,10.6395,10.6395,10.6395,10.6395,10.6395,10.6395,10.6433,10.6472,10.651,10.6597,10.7098,10.7752,10.8252,10.8367,10.8367,10.8059,10.7203,10.6587,10.6703,10.7098,10.7405,10.7559,10.7982,10.8189,10.7988,10.7413,10.7176,10.7131,10.6729,10.6571,10.7344,10.7575,10.8144,10.9002,10.9386,10.9225,10.9244,10.9977,10.9656,10.9124,10.9214,10.9124,10.8032,10.7211,10.6771,10.6655,10.628,10.5947,10.5935,10.5913,10.5913,10.5868,10.5527,10.5043,10.4817,10.4654,10.4745,10.4989,10.4688,10.4822,10.4758,10.4693,10.4541,10.4504,10.443,10.4357,10.3696,10.3313,10.3276,10.3329,10.3439,10.3293,10.2889,10.3109,10.3072,10.3219,10.3219,10.3036,10.2925,10.3109,10.3056,10.2597,10.2751,10.3943,10.4453,10.452,10.4905,10.5059,10.5097,10.5059,10.529,10.5636,10.5713,10.5982,10.6395,10.6395,10.6356,10.6395,10.6395,10.6395,10.6356,10.6356,10.6395,10.6395,10.6395,10.6395,10.6395,10.6356,10.6395,10.6395,10.6395,10.6395,10.6395,10.6395,10.6395,10.6395,10.6395,10.6395,10.6395,10.6395,10.6395,10.6395,10.6828,10.729,10.7521,10.8021,10.8521,10.879,10.8867,10.8867,10.8675,10.8059,10.7559,10.7598,10.7982,10.8213,10.8367,10.8598,10.8867,10.8712,10.8568,10.8461,10.8859,10.845,10.8793,10.9234,10.9471,10.9831,11.0551,11.0786,11.0819,11.0834,11.109,11.0862,11.0563,11.0525,11.0538,11.002,10.9036,10.8267,10.8192,10.7833,10.766,10.7626,10.7646,10.7644,10.7564,10.7526,10.7071,10.7146,10.6998,10.6855,10.6731,10.6137,10.5885,10.5805,10.5657,10.5427,10.5422,10.5458,10.5458,10.5185,10.4965,10.4782,10.4541,10.4137,10.3843,10.3586,10.388,10.4027,10.377,10.3696,10.3843,10.3843,10.3696,10.3623,10.2789,10.2943,10.4597,10.529,10.5405,10.6059,10.628,10.6318,10.6395,10.6203,10.6395,10.6395,10.6328,10.6395,10.6395,10.6395,10.6395,10.6395,10.6395,10.6395,10.6395,10.6395,10.6395,10.6395,10.6395,10.6395,10.6395,10.6395,10.6395,10.6395,10.6395,10.6395,10.6395,10.6395,10.6395,10.6395,10.6395,10.6395,10.6395,10.6549,10.6703,10.7328,10.7982,10.8867,10.906,10.9252,10.9483,10.9521,10.9406,10.929,10.929,10.929,10.9252,10.9136,10.9098,10.9136,10.9367,10.956,10.9637,10.9479,10.9699,11.0367,11.0335,11.0632,11.1121,11.1166,11.1187,11.1286,11.1385,11.1385,11.1511,11.15,11.1511,11.1396,11.1429,11.1511,11.1269,11.0123,10.9538,10.9407,10.941,10.9381,10.933,10.9334,10.9316,10.922,10.9143,10.9081,10.9081,10.8823,10.8338,10.7772,10.6995,10.6362,10.6237,10.6139,10.5988,10.5935,10.6119,10.6119,10.6177,10.5899,10.5458,10.4981,10.4577,10.443,10.4504,10.4761,10.4724,10.4284,10.443,10.4834,10.4687,10.432,10.432,10.3712,10.3828,10.5482,10.6164,10.6213,10.6318,10.6395,10.6395,10.6395,10.6395,10.6395,10.6395,10.6395,10.6395,10.6395,10.6395,10.6395,10.6395,10.6395,10.6395,10.6395,10.6395,10.6395,10.6395,10.6395,10.6395,10.6395,10.6395,10.6395,10.6395,10.6395,10.6395,10.6395,10.6395,10.6395,10.6395,10.6395,10.6433,10.651,10.6818,10.729,10.7829,10.8636,10.979,10.9983,11.0291,11.0818,11.1011,11.1049,11.1049,11.1049,11.1021,11.0752,11.0291,11.0021,11.0098,11.0521,11.0752,11.0791,11.0934,11.1098,11.1252,11.1175,11.1214,11.1472,11.1511,11.1511,11.1511,11.1511,11.1511,11.1511,11.1511,11.1511,11.1511,11.1511,11.1511,11.1418,11.1151,11.0788,11.0714,11.085,11.0874,11.0614,11.0474,11.0449,11.0267,11.0109,11.0041,11.0,10.9468,10.8785,10.8207,10.7553,10.6961,10.6505,10.6448,10.6318,10.6213,10.6266,10.6266,10.6302,10.6339,10.6009,10.5568,10.5532,10.5678,10.5715,10.5678,10.5642,10.5385,10.5642,10.5899,10.5568,10.5275,10.5532,10.3905,10.4059,10.5713,10.6395,10.6395,10.6395,10.6395,10.6395,10.6395,10.6395,10.6395,10.6395,10.6395,10.6395,10.6395,10.6395,10.6395,10.6395,10.6395,10.6395,10.6395,10.6395,10.6395,10.6395,10.6395,10.6395,10.6395,10.6395,10.6395,10.6395,10.6395,10.6395,10.6395,10.6395,10.6395,10.6395,10.6395,10.6482,10.6818,10.7251,10.7829,10.8406,10.9675,11.0483,11.0868,11.1098,11.1357,11.1511,11.1511,11.1472,11.1472,11.1511,11.1357,11.1175,11.0868,11.0944,11.128,11.1511,11.1511,11.1511,11.1472,11.1472,11.1511,11.1511,11.1511,11.1511,11.1511,11.1511,11.1511,11.1511,11.1511,11.1511,11.1511,11.1511,11.1511,11.1511,11.1511,11.1511,11.1511,11.1511,11.1363,11.1258,11.1363,11.1302,11.1429,11.1325,11.1066,11.0922,11.0788,11.0294,10.9638,10.9242,10.865,10.7865,10.7249,10.6931,10.6763,10.6595,10.6376,10.6376,10.6376,10.6376,10.6376,10.6156,10.6339,10.6376,10.6302,10.6046,10.6266,10.6376,10.6229,10.6156,10.6266,10.6376,10.6376,10.3905,10.4059,10.5713,10.6395,10.6395,10.6395,10.6395,10.6395,10.6395,10.6395,10.6395,10.6395,10.6395,10.6395,10.6395,10.6395,10.6395,10.6395,10.6395,10.6395,10.6395,10.6395,10.6395,10.6395,10.6395,10.6395,10.6395,10.6395,10.6395,10.6395,10.6395,10.6395,10.6395,10.6395,10.6395,10.6395,10.6433,10.6867,10.7251,10.7752,10.8482,10.9637,11.0752,11.1434,11.1511,11.1472,11.1511,11.1511,11.1511,11.1511,11.1511,11.1511,11.1511,11.1511,11.1511,11.1511,11.1511,11.1511,11.1511,11.1511,11.1511,11.1511,11.1511,11.1511,11.1511,11.1511,11.1511,11.1511,11.1511,11.1511,11.1511,11.1511,11.1511,11.1511,11.1511,11.1511,11.1511,11.1511,11.1511,11.1511,11.1511,11.1511,11.1511,11.1511,11.1511,11.1511,11.128,11.1291,11.1185,11.1269,11.0788,11.0487,10.9893,10.894,10.8216,10.7535,10.7287,10.699,10.6615,10.6376,10.6376,10.6376,10.6376,10.6376,10.6376,10.6376,10.6376,10.6376,10.6376,10.6376,10.6376,10.6376,10.6376,10.6376,10.6376,10.3905,10.402,10.5674,10.6395,10.6395,10.6395,10.6395,10.6395,10.6395,10.6395,10.6395,10.6395,10.6395,10.6395,10.6395,10.6395,10.6395,10.6395,10.6395,10.6395,10.6395,10.6395,10.6395,10.6395,10.6395,10.6395,10.6395,10.6395,10.6395,10.6395,10.6395,10.6395,10.6395,10.6395,10.6395,10.6395,10.6828,10.7405,10.7675,10.8444,10.9752,11.0791,11.1291,11.1472,11.1511,11.1511,11.1511,11.1511,11.1511,11.1511,11.1511,11.1511,11.1511,11.1511,11.1511,11.1511,11.1511,11.1511,11.1511,11.1511,11.1511,11.1511,11.1511,11.1511,11.1511,11.1511,11.1511,11.1511,11.1511,11.1511,11.1511,11.1511,11.1511,11.1511,11.1511,11.1511,11.1511,11.1511,11.1511,11.1511,11.1511,11.1511,11.1511,11.1511,11.1511,11.1511,11.1511,11.1511,11.1511,11.1511,11.1429,11.1031,11.0664,10.9781,10.8972,10.8333,10.7756,10.7403,10.6827,10.6418,10.6376,10.6376,10.6376,10.6376,10.6376,10.6376,10.6376,10.6376,10.6376,10.6376,10.6376,10.6376,10.6376,10.6376,10.6376,10.3443,10.402,10.5174,10.5944,10.6356,10.6395,10.6395,10.6395,10.6395,10.6395,10.6395,10.6395,10.6395,10.6395,10.6395,10.6395,10.6395,10.6395,10.6395,10.6395,10.6395,10.6395,10.6395,10.6395,10.6395,10.6395,10.6395,10.6395,10.6395,10.6395,10.6395,10.6395,10.6395,10.6395,10.6433,10.6395,10.6905,10.7713,10.8636,10.9713,11.0714,11.128,11.1511,11.1511,11.1511,11.1511,11.1511,11.1511,11.1511,11.1511,11.1511,11.1511,11.1511,11.1511,11.1511,11.1511,11.1511,11.1511,11.1511,11.1511,11.1511,11.1511,11.1511,11.1511,11.1511,11.1511,11.1511,11.1511,11.1511,11.1511,11.1511,11.1511,11.1511,11.1511,11.1511,11.1511,11.1511,11.1511,11.1511,11.1511,11.1511,11.1511,11.1511,11.1511,11.1511,11.1511,11.1511,11.1511,11.1511,11.1511,11.1407,11.1197,11.086,11.0449,10.9724,10.9019,10.8268,10.7701,10.6847,10.6507,10.6418,10.6376,10.6376,10.6376,10.6376,10.6376,10.6376,10.6376,10.6376,10.6376,10.6376,10.6376,10.6376,10.6376,10.6376,10.2789,10.3635,10.4674,10.5597,10.6395,10.6395,10.6395,10.6395,10.6395,10.6395,10.6395,10.6395,10.6395,10.6395,10.6395,10.6395,10.6395,10.6395,10.6395,10.6395,10.6395,10.6395,10.6395,10.6395,10.6395,10.6395,10.6395,10.6395,10.6395,10.6395,10.6395,10.6395,10.6395,10.6395,10.6472,10.678,10.7367,10.8559,10.979,11.0752,11.1329,11.1472,11.1511,11.1511,11.1511,11.1511,11.1511,11.1511,11.1511,11.1511,11.1511,11.1511,11.1511,11.1511,11.1511,11.1511,11.1511,11.1511,11.1511,11.1511,11.1511,11.1511,11.1511,11.1511,11.1511,11.1511,11.1511,11.1511,11.1511,11.1511,11.1511,11.1511,11.1511,11.1511,11.1511,11.1511,11.1511,11.1511,11.1511,11.1511,11.1511,11.1511,11.1511,11.1511,11.1511,11.1511,11.1511,11.1511,11.1511,11.1511,11.1429,11.1314,11.1197,11.0934,11.0513,10.9781,10.8956,10.8164,10.7307,10.6787,10.6807,10.6553,10.6376,10.6376,10.6376,10.6376,10.6376,10.6376,10.6376,10.6376,10.6376,10.6376,10.6376,10.6376,10.6376,10.1904,10.2828,10.4405,10.5559,10.6356,10.6395,10.6395,10.6395,10.6395,10.6395,10.6395,10.6395,10.6395,10.6395,10.6395,10.6395,10.6395,10.6395,10.6395,10.6395,10.6395,10.6395,10.6395,10.6395,10.6395,10.6395,10.6395,10.6395,10.6395,10.6395,10.6395,10.6395,10.6395,10.6395,10.6664,10.7251,10.829,10.9521,11.0714,11.1242,11.1472,11.1511,11.1511,11.1511,11.1511,11.1511,11.1511,11.1511,11.1511,11.1511,11.1511,11.1511,11.1511,11.1511,11.1511,11.1511,11.1511,11.1511,11.1511,11.1511,11.1511,11.1511,11.1511,11.1511,11.1511,11.1511,11.1511,11.1511,11.1511,11.1511,11.1511,11.1511,11.1511,11.1511,11.1511,11.1511,11.1511,11.1511,11.1511,11.1511,11.1511,11.1511,11.1511,11.1511,11.1511,11.1511,11.1511,11.1511,11.1511,11.1511,11.1511,11.144,11.1489,11.1336,11.1302,11.0589,10.9666,10.8988,10.8285,10.772,10.7404,10.7072,10.6661,10.6376,10.6376,10.6376,10.6376,10.6376,10.6376,10.6376,10.6376,10.6376,10.6376,10.6376,10.6376,10.1789,10.2712,10.3905,10.4828,10.5636,10.6164,10.6395,10.6395,10.6395,10.6395,10.6395,10.6395,10.6395,10.6395,10.6395,10.6395,10.6395,10.6395,10.6395,10.6395,10.6395,10.6395,10.6395,10.6395,10.6395,10.6395,10.6395,10.6395,10.6395,10.6395,10.6395,10.6395,10.6395,10.6395,10.6751,10.779,10.906,11.006,11.1021,11.1511,11.1511,11.1511,11.1511,11.1511,11.1511,11.1511,11.1511,11.1511,11.1511,11.1511,11.1511,11.1511,11.1511,11.1511,11.1511,11.1511,11.1511,11.1511,11.1511,11.1511,11.1511,11.1511,11.1511,11.1511,11.1511,11.1511,11.1511,11.1511,11.1511,11.1511,11.1511,11.1511,11.1511,11.1511,11.1511,11.1511,11.1511,11.1511,11.1511,11.1511,11.1511,11.1511,11.1511,11.1511,11.1511,11.1511,11.1511,11.1511,11.1511,11.1511,11.1511,11.1511,11.1511,11.1511,11.1429,11.0898,11.0267,10.9767,10.922,10.865,10.8074,10.7554,10.7172,10.6787,10.6439,10.6444,10.6444,10.6418,10.6397,10.6397,10.6397,10.6376,10.6376,10.6376,10.6376,10.1664,10.2289,10.3135,10.4135,10.5136,10.602,10.6395,10.6395,10.6395,10.6395,10.6395,10.6395,10.6395,10.6395,10.6395,10.6395,10.6395,10.6395,10.6395,10.6395,10.6395,10.6395,10.6395,10.6395,10.6395,10.6395,10.6395,10.6395,10.6395,10.6395,10.6395,10.6395,10.6395,10.651,10.7213,10.8406,10.9713,11.056,11.1098,11.1511,11.1511,11.1511,11.1511,11.1511,11.1511,11.1511,11.1511,11.1511,11.1511,11.1511,11.1511,11.1511,11.1511,11.1511,11.1511,11.1511,11.1511,11.1511,11.1511,11.1511,11.1511,11.1511,11.1511,11.1511,11.1511,11.1511,11.1511,11.1511,11.1511,11.1511,11.1511,11.1511,11.1511,11.1511,11.1511,11.1511,11.1511,11.1511,11.1511,11.1511,11.1511,11.1511,11.1511,11.1511,11.1511,11.1511,11.1511,11.1511,11.1511,11.1511,11.1511,11.1511,11.1511,11.1511,11.1489,11.1128,11.0788,11.0601,11.0041,10.9394,10.8813,10.8268,10.7665,10.7173,10.6891,10.6661,10.6636,10.6661,10.659,10.6439,10.6418,10.6376,10.6376,10.6376,10.6376,10.1317,10.1433,10.2289,10.3597,10.4992,10.602,10.6356,10.6395,10.6395,10.6395,10.6395,10.6395,10.6395,10.6395,10.6395,10.6395,10.6395,10.6395,10.6395,10.6395,10.6395,10.6395,10.6395,10.6395,10.6395,10.6395,10.6395,10.6395,10.6395,10.6395,10.6395,10.651,10.6713,10.7059,10.779,10.929,11.056,11.1329,11.1483,11.1511,11.1511,11.1511,11.1511,11.1511,11.1511,11.1511,11.1511,11.1511,11.1511,11.1511,11.1511,11.1511,11.1511,11.1511,11.1511,11.1511,11.1511,11.1511,11.1511,11.1511,11.1511,11.1511,11.1511,11.1511,11.1511,11.1511,11.1511,11.1511,11.1511,11.1511,11.1511,11.1511,11.1511,11.1511,11.1511,11.1511,11.1511,11.1511,11.1511,11.1511,11.1511,11.1511,11.1511,11.1511,11.1511,11.1511,11.1511,11.1511,11.1511,11.1511,11.1511,11.1511,11.1511,11.1511,11.1511,11.1511,11.1325,11.1185,11.0812,11.0123,10.9483,10.8877,10.8282,10.772,10.7517,10.7441,10.7191,10.6973,10.6722,10.646,10.6418,10.6376,10.6376,10.6376,10.6376,10.1279,10.1356,10.2251,10.2904,10.3635,10.4943,10.5867,10.6328,10.6395,10.6395,10.6395,10.6395,10.6395,10.6395,10.6395,10.6395,10.6395,10.6395,10.6395,10.6395,10.6395,10.6395,10.6395,10.6395,10.6395,10.6395,10.6395,10.6395,10.6395,10.6395,10.6395,10.651,10.7405,10.8175,10.8713,10.9713,11.0637,11.1318,11.1511,11.1511,11.1511,11.1511,11.1511,11.1511,11.1511,11.1511,11.1511,11.1511,11.1511,11.1511,11.1511,11.1511,11.1511,11.1511,11.1511,11.1511,11.1511,11.1511,11.1511,11.1511,11.1511,11.1511,11.1511,11.1511,11.1511,11.1511,11.1511,11.1511,11.1511,11.1511,11.1511,11.1511,11.1511,11.1511,11.1511,11.1511,11.1511,11.1511,11.1511,11.1511,11.1511,11.1511,11.1511,11.1511,11.1511,11.1511,11.1511,11.1511,11.1511,11.1511,11.1511,11.1511,11.1511,11.1511,11.1511,11.1511,11.1511,11.1385,11.1185,11.0824,11.0163,10.9541,10.9081,10.8585,10.8438,10.8251,10.7901,10.7479,10.6787,10.6444,10.6444,10.6418,10.6376,10.6376,10.6376,10.1279,10.1356,10.1904,10.2327,10.2828,10.4405,10.5597,10.628,10.6395,10.6395,10.6395,10.6395,10.6395,10.6395,10.6395,10.6395,10.6395,10.6395,10.6395,10.6395,10.6395,10.6395,10.6395,10.6395,10.6395,10.6395,10.6395,10.6395,10.6395,10.6395,10.6587,10.7175,10.8175,10.8867,10.9483,11.0252,11.0944,11.1434,11.1511,11.1511,11.1511,11.1511,11.1511,11.1511,11.1511,11.1511,11.1511,11.1511,11.1511,11.1511,11.1511,11.1511,11.1511,11.1511,11.1511,11.1511,11.1511,11.1511,11.1511,11.1511,11.1511,11.1511,11.1511,11.1511,11.1511,11.1511,11.1511,11.1511,11.1511,11.1511,11.1511,11.1511,11.1511,11.1511,11.1511,11.1511,11.1511,11.1511,11.1511,11.1511,11.1511,11.1511,11.1511,11.1511,11.1511,11.1511,11.1511,11.1511,11.1511,11.1511,11.1511,11.1511,11.1511,11.1511,11.1511,11.1511,11.1511,11.1511,11.1347,11.1185,11.0848,11.0203,10.9851,10.9512,10.9349,10.9035,10.8539,10.799,10.7326,10.6807,10.6553,10.6507,10.6418,10.6376,10.6376,10.1279,10.1279,10.1279,10.1789,10.2751,10.4251,10.5482,10.6318,10.6356,10.6395,10.6395,10.6395,10.6395,10.6395,10.6395,10.6395,10.6395,10.6395,10.6395,10.6395,10.6395,10.6395,10.6395,10.6395,10.6395,10.6395,10.6395,10.6395,10.6395,10.6395,10.678,10.7675,10.8482,10.9367,11.0175,11.0868,11.1329,11.1472,11.1511,11.1511,11.1511,11.1511,11.1511,11.1511,11.1511,11.1511,11.1511,11.1511,11.1511,11.1511,11.1511,11.1511,11.1511,11.1511,11.1511,11.1511,11.1511,11.1511,11.1511,11.1511,11.1511,11.1511,11.1511,11.1511,11.1511,11.1511,11.1511,11.1511,11.1511,11.1511,11.1511,11.1511,11.1511,11.1511,11.1511,11.1511,11.1511,11.1511,11.1511,11.1511,11.1511,11.1511,11.1511,11.1511,11.1511,11.1511,11.1511,11.1511,11.1511,11.1511,11.1511,11.1511,11.1511,11.1511,11.1511,11.1511,11.1511,11.1511,11.1511,11.1374,11.1078,11.0872,11.0589,11.0294,11.0176,10.9851,10.9318,10.8601,10.7846,10.746,10.7287,10.6739,10.6657,10.6439,10.6376,10.1279,10.1279,10.1279,10.1433,10.1894,10.352,10.4713,10.5482,10.6087,10.6395,10.6395,10.6395,10.6395,10.6395,10.6395,10.6395,10.6395,10.6395,10.6395,10.6395,10.6395,10.6395,10.6395,10.6395,10.6395,10.6395,10.6395,10.6395,10.6395,10.6395,10.7251,10.8444,10.8713,10.9713,11.0675,11.1368,11.1472,11.1511,11.1511,11.1511,11.1511,11.1511,11.1511,11.1511,11.1511,11.1511,11.1511,11.1511,11.1511,11.1511,11.1511,11.1511,11.1511,11.1511,11.1511,11.1511,11.1511,11.1511,11.1511,11.1511,11.1511,11.1511,11.1511,11.1511,11.1511,11.1511,11.1511,11.1511,11.1511,11.1511,11.1511,11.1511,11.1511,11.1511,11.1511,11.1511,11.1511,11.1511,11.1511,11.1511,11.1511,11.1511,11.1511,11.1511,11.1511,11.1511,11.1511,11.1511,11.1511,11.1511,11.1511,11.1511,11.1511,11.1511,11.1511,11.1511,11.1511,11.1511,11.1511,11.1511,11.1385,11.1208,11.1113,11.0958,11.0676,11.0398,11.0082,10.9364,10.8568,10.8502,10.8319,10.7498,10.6884,10.6743,10.6574,10.1279,10.1279,10.1279,10.1279,10.151,10.2789,10.3866,10.4751,10.5867,10.6395,10.6395,10.6395,10.6395,10.6395,10.6395,10.6395,10.6395,10.6395,10.6395,10.6395,10.6395,10.6395,10.6395,10.6395,10.6395,10.6395,10.6395,10.6395,10.6395,10.6549,10.7251,10.8713,10.8906,10.9944,11.0972,11.1472,11.1472,11.1511,11.1511,11.1511,11.1511,11.1511,11.1511,11.1511,11.1511,11.1511,11.1511,11.1511,11.1511,11.1511,11.1511,11.1511,11.1511,11.1511,11.1511,11.1511,11.1511,11.1511,11.1511,11.1511,11.1511,11.1511,11.1511,11.1511,11.1511,11.1511,11.1511,11.1511,11.1511,11.1511,11.1511,11.1511,11.1511,11.1511,11.1511,11.1511,11.1511,11.1511,11.1511,11.1511,11.1511,11.1511,11.1511,11.1511,11.1511,11.1511,11.1511,11.1511,11.1511,11.1511,11.1511,11.1511,11.1511,11.1511,11.1511,11.1511,11.1511,11.1511,11.1511,11.1511,11.1511,11.1489,11.1325,11.1208,11.1078,11.0836,11.0664,11.0041,10.9423,10.9394,10.9227,10.8489,10.7793,10.7308,10.7133,10.1279,10.1279,10.1279,10.1279,10.1433,10.2289,10.3097,10.3982,10.552,10.6328,10.6356,10.6395,10.6395,10.6395,10.6395,10.6395,10.6395,10.6395,10.6395,10.6395,10.6395,10.6395,10.6395,10.6395,10.6395,10.6395,10.6395,10.6395,10.6395,10.6549,10.7251,10.879,10.8906,10.979,11.1242,11.1472,11.1511,11.1511,11.1511,11.1511,11.1511,11.1511,11.1511,11.1511,11.1511,11.1511,11.1511,11.1511,11.1511,11.1511,11.1511,11.1511,11.1511,11.1511,11.1511,11.1511,11.1511,11.1511,11.1511,11.1511,11.1511,11.1511,11.1511,11.1511,11.1511,11.1511,11.1511,11.1511,11.1511,11.1511,11.1511,11.1511,11.1511,11.1511,11.1511,11.1511,11.1511,11.1511,11.1511,11.1511,11.1511,11.1511,11.1511,11.1511,11.1511,11.1511,11.1511,11.1511,11.1511,11.1511,11.1511,11.1511,11.1511,11.1511,11.1511,11.1511,11.1511,11.1511,11.1511,11.1511,11.1511,11.1511,11.1511,11.1396,11.1291,11.1385,11.1185,11.0626,11.0267,11.0203,10.9935,10.9408,10.8813,10.8388,10.7955,10.1279,10.1279,10.1279,10.1279,10.1394,10.2212,10.2674,10.3058,10.4674,10.579,10.628,10.6395,10.6395,10.6395,10.6395,10.6395,10.6395,10.6395,10.6395,10.6395,10.6395,10.6395,10.6395,10.6395,10.6395,10.6395,10.6395,10.6395,10.6395,10.6587,10.7213,10.8713,10.8944,10.9752,11.1357,11.1511,11.1511,11.1511,11.1511,11.1511,11.1511,11.1511,11.1511,11.1511,11.1511,11.1511,11.1511,11.1511,11.1511,11.1511,11.1511,11.1511,11.1511,11.1511,11.1511,11.1511,11.1511,11.1511,11.1511,11.1511,11.1511,11.1511,11.1511,11.1511,11.1511,11.1511,11.1511,11.1511,11.1511,11.1511,11.1511,11.1511,11.1511,11.1511,11.1511,11.1511,11.1511,11.1511,11.1511,11.1511,11.1511,11.1511,11.1511,11.1511,11.1511,11.1511,11.1511,11.1511,11.1511,11.1511,11.1511,11.1511,11.1511,11.1511,11.1511,11.1511,11.1511,11.1511,11.1511,11.1511,11.1511,11.1511,11.1511,11.1511,11.15,11.1511,11.1511,11.1396,11.1139,11.0946,11.0824,11.032,11.0254,10.9879,10.9303,10.1279,10.1279,10.1279,10.1279,10.1394,10.1827,10.2251,10.2789,10.3982,10.5059,10.5828,10.6174,10.6395,10.6395,10.6395,10.6395,10.6395,10.6395,10.6395,10.6395,10.6395,10.6395,10.6395,10.6395,10.6395,10.6395,10.6395,10.6395,10.6395,10.6549,10.7175,10.8636,10.9021,10.9713,11.1242,11.1511,11.1511,11.1511,11.1511,11.1511,11.1511,11.1511,11.1511,11.1511,11.1511,11.1511,11.1511,11.1511,11.1511,11.1511,11.1511,11.1511,11.1511,11.1511,11.1511,11.1511,11.1511,11.1511,11.1511,11.1511,11.1511,11.1511,11.1511,11.1511,11.1511,11.1511,11.1511,11.1511,11.1511,11.1511,11.1511,11.1511,11.1511,11.1511,11.1511,11.1511,11.1511,11.1511,11.1511,11.1511,11.1511,11.1511,11.1511,11.1511,11.1511,11.1511,11.1511,11.1511,11.1511,11.1511,11.1511,11.1511,11.1511,11.1511,11.1511,11.1511,11.1511,11.1511,11.1511,11.1511,11.1511,11.1511,11.1511,11.1511,11.1511,11.1511,11.1511,11.1511,11.1511,11.1302,11.1325,11.1363,11.128,11.109,11.0563,10.1279,10.1279,10.1279,10.1279,10.1279,10.1317,10.1702,10.2481,10.3366,10.4212,10.502,10.5828,10.6251,10.6395,10.6395,10.6395,10.6395,10.6395,10.6395,10.6395,10.6395,10.6395,10.6395,10.6395,10.6395,10.6395,10.6395,10.6395,10.6395,10.6549,10.7136,10.8521,10.9252,10.979,11.1011,11.1511,11.1511,11.1511,11.1511,11.1511,11.1511,11.1511,11.1511,11.1511,11.1511,11.1511,11.1511,11.1511,11.1511,11.1511,11.1511,11.1511,11.1511,11.1511,11.1511,11.1511,11.1511,11.1511,11.1511,11.1511,11.1511,11.1511,11.1511,11.1511,11.1511,11.1511,11.1511,11.1511,11.1511,11.1511,11.1511,11.1511,11.1511,11.1511,11.1511,11.1511,11.1511,11.1511,11.1511,11.1511,11.1511,11.1511,11.1511,11.1511,11.1511,11.1511,11.1511,11.1511,11.1511,11.1511,11.1511,11.1511,11.1511,11.1511,11.1511,11.1511,11.1511,11.1511,11.1511,11.1511,11.1511,11.1511,11.1511,11.1511,11.1511,11.1511,11.1511,11.1511,11.1511,11.1511,11.1511,11.1511,11.1489,11.1363,11.1418,10.1279,10.1279,10.1279,10.1279,10.1279,10.1279,10.1394,10.1664,10.252,10.3328,10.4251,10.4982,10.5674,10.6395,10.6395,10.6395,10.6395,10.6395,10.6395,10.6395,10.6395,10.6395,10.6395,10.6395,10.6395,10.6395,10.6395,10.6395,10.6395,10.6472,10.7213,10.8713,10.8867,10.9713,11.1175,11.1472,11.1511,11.1511,11.1511,11.1511,11.1472,11.1472,11.1511,11.1511,11.1511,11.1511,11.1511,11.1511,11.1511,11.1511,11.1511,11.1511,11.1511,11.1511,11.1511,11.1511,11.1511,11.1511,11.1511,11.1511,11.1511,11.1511,11.1511,11.1511,11.1511,11.1511,11.1511,11.1511,11.1511,11.1511,11.1511,11.1511,11.1511,11.1511,11.1511,11.1511,11.1511,11.1511,11.1511,11.1511,11.1511,11.1511,11.1511,11.1511,11.1511,11.1511,11.1511,11.1511,11.1511,11.1511,11.1511,11.1511,11.1511,11.1511,11.1511,11.1511,11.1511,11.1511,11.1511,11.1511,11.1511,11.1511,11.1511,11.1511,11.1511,11.1511,11.1511,11.1511,11.1511,11.1511,11.1511,11.1511,11.1511,11.1511,11.1511]}]]